<?xml version='1.0' encoding='UTF-8'?><gpx version="1.1" creator="JPX - https://github.com/jenetics/jpx" xmlns="http://www.topografix.com/GPX/1/1"><trk><trkseg><trkpt lat="43.7703004" lon="11.4222162"><ele>77.66666666666667</ele><time>2026-04-12T14:39:20.185Z</time></trkpt><trkpt lat="43.770182" lon="11.4222255"><ele>78.33333333333334</ele><time>2026-04-12T14:39:22.186Z</time></trkpt><trkpt lat="43.7701063" lon="11.4222041"><ele>79.0</ele><time>2026-04-12T14:39:23.185Z</time></trkpt><trkpt lat="43.7700276" lon="11.4221695"><ele>79.66666666666667</ele><time>2026-04-12T14:39:24.185Z</time></trkpt><trkpt lat="43.7699469" lon="11.4221362"><ele>80.33333333333333</ele><time>2026-04-12T14:39:25.185Z</time></trkpt><trkpt lat="43.7698768" lon="11.4221091"><ele>81.0</ele><time>2026-04-12T14:39:26.186Z</time></trkpt><trkpt lat="43.7698184" lon="11.4220634"><ele>81.0</ele><time>2026-04-12T14:39:27.186Z</time></trkpt><trkpt lat="43.7697664" lon="11.4219866"><ele>81.0</ele><time>2026-04-12T14:39:28.186Z</time></trkpt><trkpt lat="43.7696389" lon="11.421919"><ele>81.0</ele><time>2026-04-12T14:39:30.186Z</time></trkpt><trkpt lat="43.769557" lon="11.4218754"><ele>81.0</ele><time>2026-04-12T14:39:31.186Z</time></trkpt><trkpt lat="43.7694692" lon="11.4218303"><ele>81.0</ele><time>2026-04-12T14:39:32.186Z</time></trkpt><trkpt lat="43.7693716" lon="11.4217819"><ele>81.8</ele><time>2026-04-12T14:39:33.186Z</time></trkpt><trkpt lat="43.769274" lon="11.421737"><ele>82.6</ele><time>2026-04-12T14:39:34.186Z</time></trkpt><trkpt lat="43.769168" lon="11.4216827"><ele>83.4</ele><time>2026-04-12T14:39:35.186Z</time></trkpt><trkpt lat="43.7690751" lon="11.4216375"><ele>84.2</ele><time>2026-04-12T14:39:36.185Z</time></trkpt><trkpt lat="43.7689977" lon="11.4215881"><ele>85.0</ele><time>2026-04-12T14:39:37.185Z</time></trkpt><trkpt lat="43.7689204" lon="11.4215398"><ele>85.0</ele><time>2026-04-12T14:39:38.185Z</time></trkpt><trkpt lat="43.768848" lon="11.4215014"><ele>85.0</ele><time>2026-04-12T14:39:39.186Z</time></trkpt><trkpt lat="43.7687725" lon="11.4214911"><ele>85.0</ele><time>2026-04-12T14:39:40.186Z</time></trkpt><trkpt lat="43.7686958" lon="11.4215151"><ele>85.0</ele><time>2026-04-12T14:39:41.185Z</time></trkpt><trkpt lat="43.7686148" lon="11.4215663"><ele>85.0</ele><time>2026-04-12T14:39:42.186Z</time></trkpt><trkpt lat="43.76853" lon="11.4216254"><ele>85.0</ele><time>2026-04-12T14:39:43.185Z</time></trkpt><trkpt lat="43.7684414" lon="11.4216824"><ele>86.33333333333333</ele><time>2026-04-12T14:39:44.185Z</time></trkpt><trkpt lat="43.7683528" lon="11.4217451"><ele>87.66666666666666</ele><time>2026-04-12T14:39:45.185Z</time></trkpt><trkpt lat="43.7682794" lon="11.4217991"><ele>89.0</ele><time>2026-04-12T14:39:46.185Z</time></trkpt><trkpt lat="43.7681975" lon="11.4218215"><ele>90.33333333333333</ele><time>2026-04-12T14:39:47.185Z</time></trkpt><trkpt lat="43.7681208" lon="11.4218082"><ele>91.66666666666667</ele><time>2026-04-12T14:39:48.186Z</time></trkpt><trkpt lat="43.7680455" lon="11.421785"><ele>93.0</ele><time>2026-04-12T14:39:49.185Z</time></trkpt><trkpt lat="43.7679698" lon="11.4217753"><ele>93.0</ele><time>2026-04-12T14:39:50.185Z</time></trkpt><trkpt lat="43.76789" lon="11.4217748"><ele>93.0</ele><time>2026-04-12T14:39:51.184Z</time></trkpt><trkpt lat="43.7678216" lon="11.421781"><ele>93.0</ele><time>2026-04-12T14:39:52.186Z</time></trkpt><trkpt lat="43.7677531" lon="11.4218033"><ele>93.0</ele><time>2026-04-12T14:39:53.186Z</time></trkpt><trkpt lat="43.7676842" lon="11.4218456"><ele>93.0</ele><time>2026-04-12T14:39:54.186Z</time></trkpt><trkpt lat="43.7676141" lon="11.4218833"><ele>93.0</ele><time>2026-04-12T14:39:55.185Z</time></trkpt><trkpt lat="43.7675323" lon="11.4219391"><ele>95.0</ele><time>2026-04-12T14:39:56.186Z</time></trkpt><trkpt lat="43.7674454" lon="11.42199"><ele>97.0</ele><time>2026-04-12T14:39:57.186Z</time></trkpt><trkpt lat="43.7673585" lon="11.4220516"><ele>99.0</ele><time>2026-04-12T14:39:58.186Z</time></trkpt><trkpt lat="43.7672785" lon="11.4221125"><ele>101.0</ele><time>2026-04-12T14:39:59.185Z</time></trkpt><trkpt lat="43.7672032" lon="11.422195"><ele>103.0</ele><time>2026-04-12T14:40:00.185Z</time></trkpt><trkpt lat="43.7671376" lon="11.4222751"><ele>103.0</ele><time>2026-04-12T14:40:01.185Z</time></trkpt><trkpt lat="43.7670566" lon="11.4224114"><ele>103.0</ele><time>2026-04-12T14:40:03.186Z</time></trkpt><trkpt lat="43.7669799" lon="11.4225293"><ele>103.0</ele><time>2026-04-12T14:40:05.186Z</time></trkpt><trkpt lat="43.7669108" lon="11.4226471"><ele>103.0</ele><time>2026-04-12T14:40:07.185Z</time></trkpt><trkpt lat="43.7668375" lon="11.4227551"><ele>105.33333333333334</ele><time>2026-04-12T14:40:09.185Z</time></trkpt><trkpt lat="43.7667656" lon="11.4228946"><ele>107.66666666666667</ele><time>2026-04-12T14:40:11.185Z</time></trkpt><trkpt lat="43.7667267" lon="11.4229704"><ele>110.0</ele><time>2026-04-12T14:40:12.185Z</time></trkpt><trkpt lat="43.7666866" lon="11.4230522"><ele>112.33333333333334</ele><time>2026-04-12T14:40:13.185Z</time></trkpt><trkpt lat="43.7666462" lon="11.4231335"><ele>114.66666666666667</ele><time>2026-04-12T14:40:14.186Z</time></trkpt><trkpt lat="43.7666026" lon="11.4232146"><ele>117.0</ele><time>2026-04-12T14:40:15.184Z</time></trkpt><trkpt lat="43.7665421" lon="11.4232881"><ele>117.0</ele><time>2026-04-12T14:40:16.185Z</time></trkpt><trkpt lat="43.7664623" lon="11.423365"><ele>116.99999999999999</ele><time>2026-04-12T14:40:17.186Z</time></trkpt><trkpt lat="43.7663664" lon="11.4234487"><ele>116.99999999999999</ele><time>2026-04-12T14:40:18.186Z</time></trkpt><trkpt lat="43.7662801" lon="11.4235045"><ele>117.0</ele><time>2026-04-12T14:40:19.186Z</time></trkpt><trkpt lat="43.7661856" lon="11.4235587"><ele>117.0</ele><time>2026-04-12T14:40:20.186Z</time></trkpt><trkpt lat="43.7660943" lon="11.4235954"><ele>120.33333333333333</ele><time>2026-04-12T14:40:21.186Z</time></trkpt><trkpt lat="43.76601" lon="11.4236447"><ele>123.66666666666666</ele><time>2026-04-12T14:40:22.186Z</time></trkpt><trkpt lat="43.7659275" lon="11.4236855"><ele>127.0</ele><time>2026-04-12T14:40:23.186Z</time></trkpt><trkpt lat="43.7658418" lon="11.4237202"><ele>130.33333333333331</ele><time>2026-04-12T14:40:24.185Z</time></trkpt><trkpt lat="43.7657587" lon="11.4237428"><ele>133.66666666666666</ele><time>2026-04-12T14:40:25.185Z</time></trkpt><trkpt lat="43.7656901" lon="11.423749"><ele>137.0</ele><time>2026-04-12T14:40:26.185Z</time></trkpt><trkpt lat="43.7655955" lon="11.4236784"><ele>137.0</ele><time>2026-04-12T14:40:28.186Z</time></trkpt><trkpt lat="43.7655248" lon="11.4235424"><ele>137.0</ele><time>2026-04-12T14:40:30.186Z</time></trkpt><trkpt lat="43.7654918" lon="11.4234498"><ele>137.0</ele><time>2026-04-12T14:40:31.185Z</time></trkpt><trkpt lat="43.7654483" lon="11.4233579"><ele>137.0</ele><time>2026-04-12T14:40:32.186Z</time></trkpt><trkpt lat="43.765414" lon="11.4232674"><ele>137.0</ele><time>2026-04-12T14:40:33.185Z</time></trkpt><trkpt lat="43.7653585" lon="11.4231953"><ele>137.0</ele><time>2026-04-12T14:40:34.185Z</time></trkpt><trkpt lat="43.7653039" lon="11.4231273"><ele>137.0</ele><time>2026-04-12T14:40:35.186Z</time></trkpt><trkpt lat="43.765238" lon="11.4230812"><ele>137.0</ele><time>2026-04-12T14:40:36.186Z</time></trkpt><trkpt lat="43.7651556" lon="11.4230612"><ele>137.0</ele><time>2026-04-12T14:40:37.185Z</time></trkpt><trkpt lat="43.7650497" lon="11.4230508"><ele>137.0</ele><time>2026-04-12T14:40:38.186Z</time></trkpt><trkpt lat="43.7649489" lon="11.423042"><ele>137.0</ele><time>2026-04-12T14:40:39.185Z</time></trkpt><trkpt lat="43.7648541" lon="11.423051"><ele>138.5</ele><time>2026-04-12T14:40:40.186Z</time></trkpt><trkpt lat="43.7647438" lon="11.4230777"><ele>140.0</ele><time>2026-04-12T14:40:41.185Z</time></trkpt><trkpt lat="43.7646119" lon="11.423115"><ele>141.5</ele><time>2026-04-12T14:40:42.186Z</time></trkpt><trkpt lat="43.7644846" lon="11.4231755"><ele>143.0</ele><time>2026-04-12T14:40:43.185Z</time></trkpt><trkpt lat="43.7643831" lon="11.4232301"><ele>147.75</ele><time>2026-04-12T14:40:44.185Z</time></trkpt><trkpt lat="43.7642855" lon="11.4233295"><ele>152.5</ele><time>2026-04-12T14:40:45.185Z</time></trkpt><trkpt lat="43.7642015" lon="11.4234111"><ele>157.25</ele><time>2026-04-12T14:40:46.186Z</time></trkpt><trkpt lat="43.7641022" lon="11.4235249"><ele>162.0</ele><time>2026-04-12T14:40:47.185Z</time></trkpt><trkpt lat="43.7640268" lon="11.4236502"><ele>162.0</ele><time>2026-04-12T14:40:48.186Z</time></trkpt><trkpt lat="43.763955" lon="11.4237495"><ele>162.0</ele><time>2026-04-12T14:40:49.186Z</time></trkpt><trkpt lat="43.7638948" lon="11.4238316"><ele>162.0</ele><time>2026-04-12T14:40:50.186Z</time></trkpt><trkpt lat="43.7638274" lon="11.4238796"><ele>162.0</ele><time>2026-04-12T14:40:51.186Z</time></trkpt><trkpt lat="43.7637567" lon="11.4239277"><ele>162.0</ele><time>2026-04-12T14:40:52.185Z</time></trkpt><trkpt lat="43.7636811" lon="11.4239556"><ele>162.0</ele><time>2026-04-12T14:40:53.185Z</time></trkpt><trkpt lat="43.7635995" lon="11.4239781"><ele>159.6</ele><time>2026-04-12T14:40:54.186Z</time></trkpt><trkpt lat="43.7635132" lon="11.4239722"><ele>157.2</ele><time>2026-04-12T14:40:55.185Z</time></trkpt><trkpt lat="43.7634238" lon="11.4239476"><ele>154.8</ele><time>2026-04-12T14:40:56.186Z</time></trkpt><trkpt lat="43.7633301" lon="11.4239027"><ele>152.4</ele><time>2026-04-12T14:40:57.186Z</time></trkpt><trkpt lat="43.7632418" lon="11.4238245"><ele>150.0</ele><time>2026-04-12T14:40:58.186Z</time></trkpt><trkpt lat="43.7631381" lon="11.4237272"><ele>155.0</ele><time>2026-04-12T14:40:59.186Z</time></trkpt><trkpt lat="43.7630367" lon="11.4236439"><ele>160.0</ele><time>2026-04-12T14:41:00.186Z</time></trkpt><trkpt lat="43.7629463" lon="11.4235754"><ele>165.0</ele><time>2026-04-12T14:41:01.186Z</time></trkpt><trkpt lat="43.7628677" lon="11.4235109"><ele>170.0</ele><time>2026-04-12T14:41:02.186Z</time></trkpt><trkpt lat="43.7627482" lon="11.4234675"><ele>175.0</ele><time>2026-04-12T14:41:04.186Z</time></trkpt><trkpt lat="43.7626925" lon="11.4235649"><ele>175.16666666666669</ele><time>2026-04-12T14:41:06.185Z</time></trkpt><trkpt lat="43.7626284" lon="11.4236397"><ele>175.33333333333334</ele><time>2026-04-12T14:41:08.185Z</time></trkpt><trkpt lat="43.7625666" lon="11.4236944"><ele>175.5</ele><time>2026-04-12T14:41:10.186Z</time></trkpt><trkpt lat="43.762537" lon="11.4237864"><ele>175.66666666666666</ele><time>2026-04-12T14:41:12.186Z</time></trkpt><trkpt lat="43.7625049" lon="11.4238691"><ele>175.83333333333331</ele><time>2026-04-12T14:41:16.186Z</time></trkpt><trkpt lat="43.7624068" lon="11.4239553"><ele>176.0</ele><time>2026-04-12T14:41:18.185Z</time></trkpt><trkpt lat="43.7623323" lon="11.4239902"><ele>174.16666666666666</ele><time>2026-04-12T14:41:19.185Z</time></trkpt><trkpt lat="43.7622593" lon="11.4240222"><ele>172.33333333333331</ele><time>2026-04-12T14:41:20.186Z</time></trkpt><trkpt lat="43.7621834" lon="11.4240595"><ele>170.5</ele><time>2026-04-12T14:41:21.186Z</time></trkpt><trkpt lat="43.7621053" lon="11.4240834"><ele>168.66666666666666</ele><time>2026-04-12T14:41:22.186Z</time></trkpt><trkpt lat="43.7620075" lon="11.4241121"><ele>166.83333333333334</ele><time>2026-04-12T14:41:23.186Z</time></trkpt><trkpt lat="43.7619086" lon="11.4241117"><ele>165.0</ele><time>2026-04-12T14:41:24.186Z</time></trkpt><trkpt lat="43.7618146" lon="11.4241066"><ele>165.0</ele><time>2026-04-12T14:41:25.186Z</time></trkpt><trkpt lat="43.7617111" lon="11.4241113"><ele>165.0</ele><time>2026-04-12T14:41:26.186Z</time></trkpt><trkpt lat="43.761613" lon="11.4241155"><ele>165.0</ele><time>2026-04-12T14:41:27.185Z</time></trkpt><trkpt lat="43.761511" lon="11.4241254"><ele>165.0</ele><time>2026-04-12T14:41:28.185Z</time></trkpt><trkpt lat="43.7614332" lon="11.424119"><ele>165.0</ele><time>2026-04-12T14:41:29.186Z</time></trkpt><trkpt lat="43.7613546" lon="11.4241036"><ele>165.00000000000003</ele><time>2026-04-12T14:41:30.185Z</time></trkpt><trkpt lat="43.7612838" lon="11.4240784"><ele>165.0</ele><time>2026-04-12T14:41:31.185Z</time></trkpt><trkpt lat="43.7612153" lon="11.4240551"><ele>165.0</ele><time>2026-04-12T14:41:32.186Z</time></trkpt><trkpt lat="43.7611489" lon="11.4240242"><ele>165.0</ele><time>2026-04-12T14:41:33.185Z</time></trkpt><trkpt lat="43.7610891" lon="11.4239954"><ele>165.0</ele><time>2026-04-12T14:41:34.185Z</time></trkpt><trkpt lat="43.7610064" lon="11.4239381"><ele>165.00000000000003</ele><time>2026-04-12T14:41:36.185Z</time></trkpt><trkpt lat="43.7609525" lon="11.4238671"><ele>165.0</ele><time>2026-04-12T14:41:39.186Z</time></trkpt><trkpt lat="43.7609123" lon="11.4237618"><ele>165.66666666666666</ele><time>2026-04-12T14:41:42.185Z</time></trkpt><trkpt lat="43.7608764" lon="11.4236808"><ele>166.33333333333334</ele><time>2026-04-12T14:41:44.185Z</time></trkpt><trkpt lat="43.7608509" lon="11.4235874"><ele>167.0</ele><time>2026-04-12T14:41:46.186Z</time></trkpt><trkpt lat="43.7608197" lon="11.4234899"><ele>167.66666666666669</ele><time>2026-04-12T14:41:48.186Z</time></trkpt><trkpt lat="43.7607857" lon="11.4233983"><ele>168.33333333333334</ele><time>2026-04-12T14:41:50.185Z</time></trkpt><trkpt lat="43.7607562" lon="11.4232969"><ele>169.0</ele><time>2026-04-12T14:41:52.185Z</time></trkpt><trkpt lat="43.7607215" lon="11.4231885"><ele>169.0</ele><time>2026-04-12T14:41:54.185Z</time></trkpt><trkpt lat="43.760698" lon="11.4230727"><ele>169.0</ele><time>2026-04-12T14:41:56.185Z</time></trkpt><trkpt lat="43.7607017" lon="11.4229557"><ele>169.0</ele><time>2026-04-12T14:41:58.186Z</time></trkpt><trkpt lat="43.7607116" lon="11.4228644"><ele>169.0</ele><time>2026-04-12T14:42:00.184Z</time></trkpt><trkpt lat="43.7607243" lon="11.4227608"><ele>169.0</ele><time>2026-04-12T14:42:02.185Z</time></trkpt><trkpt lat="43.7607242" lon="11.4226588"><ele>169.0</ele><time>2026-04-12T14:42:04.186Z</time></trkpt><trkpt lat="43.7607104" lon="11.4225702"><ele>170.0</ele><time>2026-04-12T14:42:06.186Z</time></trkpt><trkpt lat="43.7606794" lon="11.4224856"><ele>171.0</ele><time>2026-04-12T14:42:08.186Z</time></trkpt><trkpt lat="43.7606267" lon="11.4224282"><ele>172.0</ele><time>2026-04-12T14:42:10.186Z</time></trkpt><trkpt lat="43.760526" lon="11.4223988"><ele>173.0</ele><time>2026-04-12T14:42:12.186Z</time></trkpt><trkpt lat="43.7604548" lon="11.4223776"><ele>174.0</ele><time>2026-04-12T14:42:13.185Z</time></trkpt><trkpt lat="43.7603893" lon="11.4223418"><ele>175.0</ele><time>2026-04-12T14:42:14.185Z</time></trkpt><trkpt lat="43.7603214" lon="11.4223098"><ele>175.0</ele><time>2026-04-12T14:42:15.186Z</time></trkpt><trkpt lat="43.7602599" lon="11.422279"><ele>175.0</ele><time>2026-04-12T14:42:16.186Z</time></trkpt><trkpt lat="43.7601976" lon="11.4222478"><ele>175.0</ele><time>2026-04-12T14:42:17.186Z</time></trkpt><trkpt lat="43.7601373" lon="11.4222128"><ele>175.0</ele><time>2026-04-12T14:42:18.186Z</time></trkpt><trkpt lat="43.7600717" lon="11.4221797"><ele>175.0</ele><time>2026-04-12T14:42:19.185Z</time></trkpt><trkpt lat="43.7600032" lon="11.4221457"><ele>175.0</ele><time>2026-04-12T14:42:20.185Z</time></trkpt><trkpt lat="43.7599342" lon="11.422111"><ele>175.0</ele><time>2026-04-12T14:42:21.185Z</time></trkpt><trkpt lat="43.7598657" lon="11.4220743"><ele>175.16666666666669</ele><time>2026-04-12T14:42:22.185Z</time></trkpt><trkpt lat="43.7598076" lon="11.4220383"><ele>175.33333333333334</ele><time>2026-04-12T14:42:23.186Z</time></trkpt><trkpt lat="43.7597156" lon="11.4219635"><ele>175.5</ele><time>2026-04-12T14:42:25.186Z</time></trkpt><trkpt lat="43.7596393" lon="11.4218452"><ele>175.66666666666666</ele><time>2026-04-12T14:42:27.186Z</time></trkpt><trkpt lat="43.7596041" lon="11.4217646"><ele>175.83333333333331</ele><time>2026-04-12T14:42:28.185Z</time></trkpt><trkpt lat="43.7595678" lon="11.4216693"><ele>176.0</ele><time>2026-04-12T14:42:29.185Z</time></trkpt><trkpt lat="43.7595333" lon="11.4215684"><ele>176.0</ele><time>2026-04-12T14:42:30.185Z</time></trkpt><trkpt lat="43.7595041" lon="11.4214528"><ele>176.0</ele><time>2026-04-12T14:42:31.185Z</time></trkpt><trkpt lat="43.7594686" lon="11.4213314"><ele>176.0</ele><time>2026-04-12T14:42:32.185Z</time></trkpt><trkpt lat="43.7594327" lon="11.4212135"><ele>176.0</ele><time>2026-04-12T14:42:33.185Z</time></trkpt><trkpt lat="43.7594025" lon="11.421097"><ele>176.0</ele><time>2026-04-12T14:42:34.185Z</time></trkpt><trkpt lat="43.7593789" lon="11.4209836"><ele>177.5</ele><time>2026-04-12T14:42:35.185Z</time></trkpt><trkpt lat="43.7593558" lon="11.4208671"><ele>179.0</ele><time>2026-04-12T14:42:36.185Z</time></trkpt><trkpt lat="43.759341" lon="11.4207544"><ele>180.5</ele><time>2026-04-12T14:42:37.186Z</time></trkpt><trkpt lat="43.7593349" lon="11.4206415"><ele>182.0</ele><time>2026-04-12T14:42:38.186Z</time></trkpt><trkpt lat="43.7593429" lon="11.4205247"><ele>183.5</ele><time>2026-04-12T14:42:39.186Z</time></trkpt><trkpt lat="43.7593583" lon="11.4204038"><ele>185.0</ele><time>2026-04-12T14:42:40.186Z</time></trkpt><trkpt lat="43.7593785" lon="11.4202914"><ele>187.5</ele><time>2026-04-12T14:42:41.186Z</time></trkpt><trkpt lat="43.7593981" lon="11.4201738"><ele>190.0</ele><time>2026-04-12T14:42:42.186Z</time></trkpt><trkpt lat="43.7594276" lon="11.4200494"><ele>192.5</ele><time>2026-04-12T14:42:43.186Z</time></trkpt><trkpt lat="43.7594598" lon="11.4199345"><ele>195.0</ele><time>2026-04-12T14:42:44.185Z</time></trkpt><trkpt lat="43.7594932" lon="11.4198298"><ele>197.50000000000003</ele><time>2026-04-12T14:42:45.185Z</time></trkpt><trkpt lat="43.7595461" lon="11.4197296"><ele>200.0</ele><time>2026-04-12T14:42:47.186Z</time></trkpt><trkpt lat="43.7596396" lon="11.4196906"><ele>200.0</ele><time>2026-04-12T14:42:49.185Z</time></trkpt><trkpt lat="43.7597128" lon="11.4196799"><ele>200.0</ele><time>2026-04-12T14:42:50.186Z</time></trkpt><trkpt lat="43.7598052" lon="11.4196727"><ele>200.0</ele><time>2026-04-12T14:42:51.185Z</time></trkpt><trkpt lat="43.7599106" lon="11.4196641"><ele>200.0</ele><time>2026-04-12T14:42:52.185Z</time></trkpt><trkpt lat="43.7600045" lon="11.4196489"><ele>200.0</ele><time>2026-04-12T14:42:53.185Z</time></trkpt><trkpt lat="43.7600916" lon="11.4196343"><ele>202.4</ele><time>2026-04-12T14:42:54.186Z</time></trkpt><trkpt lat="43.7601758" lon="11.4195988"><ele>204.8</ele><time>2026-04-12T14:42:56.185Z</time></trkpt><trkpt lat="43.7600995" lon="11.4195612"><ele>207.2</ele><time>2026-04-12T14:42:59.186Z</time></trkpt><trkpt lat="43.7600046" lon="11.419469"><ele>209.6</ele><time>2026-04-12T14:43:01.185Z</time></trkpt><trkpt lat="43.7599463" lon="11.4193868"><ele>212.0</ele><time>2026-04-12T14:43:02.186Z</time></trkpt><trkpt lat="43.7598719" lon="11.4192818"><ele>212.0</ele><time>2026-04-12T14:43:03.186Z</time></trkpt><trkpt lat="43.7597913" lon="11.4191651"><ele>212.0</ele><time>2026-04-12T14:43:04.186Z</time></trkpt><trkpt lat="43.7596995" lon="11.4190323"><ele>212.0</ele><time>2026-04-12T14:43:05.186Z</time></trkpt><trkpt lat="43.759617" lon="11.4189062"><ele>212.0</ele><time>2026-04-12T14:43:06.186Z</time></trkpt><trkpt lat="43.7595466" lon="11.4187916"><ele>212.8</ele><time>2026-04-12T14:43:07.186Z</time></trkpt><trkpt lat="43.7594769" lon="11.4186937"><ele>213.6</ele><time>2026-04-12T14:43:08.186Z</time></trkpt><trkpt lat="43.7594025" lon="11.4185864"><ele>214.40000000000003</ele><time>2026-04-12T14:43:09.186Z</time></trkpt><trkpt lat="43.7593358" lon="11.4184793"><ele>215.20000000000002</ele><time>2026-04-12T14:43:10.185Z</time></trkpt><trkpt lat="43.7592672" lon="11.418382"><ele>216.0</ele><time>2026-04-12T14:43:11.186Z</time></trkpt><trkpt lat="43.7592182" lon="11.4183061"><ele>216.0</ele><time>2026-04-12T14:43:12.186Z</time></trkpt><trkpt lat="43.7591448" lon="11.418257"><ele>216.00000000000003</ele><time>2026-04-12T14:43:13.186Z</time></trkpt><trkpt lat="43.7590926" lon="11.418196"><ele>216.00000000000003</ele><time>2026-04-12T14:43:14.186Z</time></trkpt><trkpt lat="43.7590338" lon="11.4181442"><ele>216.0</ele><time>2026-04-12T14:43:15.186Z</time></trkpt><trkpt lat="43.7589482" lon="11.4182663"><ele>216.0</ele><time>2026-04-12T14:43:16.185Z</time></trkpt><trkpt lat="43.7588622" lon="11.4183609"><ele>216.0</ele><time>2026-04-12T14:43:17.186Z</time></trkpt><trkpt lat="43.7588008" lon="11.4184409"><ele>216.00000000000003</ele><time>2026-04-12T14:43:18.185Z</time></trkpt><trkpt lat="43.7587747" lon="11.4185901"><ele>216.00000000000003</ele><time>2026-04-12T14:43:19.185Z</time></trkpt><trkpt lat="43.7587321" lon="11.4187008"><ele>216.0</ele><time>2026-04-12T14:43:20.184Z</time></trkpt><trkpt lat="43.7586868" lon="11.4188273"><ele>216.0</ele><time>2026-04-12T14:43:21.185Z</time></trkpt><trkpt lat="43.7586453" lon="11.4189225"><ele>215.0</ele><time>2026-04-12T14:43:22.185Z</time></trkpt><trkpt lat="43.7585532" lon="11.4189866"><ele>214.00000000000003</ele><time>2026-04-12T14:43:23.186Z</time></trkpt><trkpt lat="43.7584598" lon="11.4190482"><ele>213.0</ele><time>2026-04-12T14:43:24.186Z</time></trkpt><trkpt lat="43.7583649" lon="11.4191263"><ele>212.0</ele><time>2026-04-12T14:43:25.185Z</time></trkpt><trkpt lat="43.758257" lon="11.4191996"><ele>211.0</ele><time>2026-04-12T14:43:26.186Z</time></trkpt><trkpt lat="43.7581514" lon="11.4192668"><ele>211.0</ele><time>2026-04-12T14:43:27.186Z</time></trkpt><trkpt lat="43.7580445" lon="11.419331"><ele>211.0</ele><time>2026-04-12T14:43:28.185Z</time></trkpt><trkpt lat="43.7579435" lon="11.4193978"><ele>211.0</ele><time>2026-04-12T14:43:29.185Z</time></trkpt><trkpt lat="43.7578425" lon="11.4194676"><ele>211.0</ele><time>2026-04-12T14:43:30.186Z</time></trkpt><trkpt lat="43.7577414" lon="11.4195389"><ele>210.5</ele><time>2026-04-12T14:43:31.185Z</time></trkpt><trkpt lat="43.7576398" lon="11.4195933"><ele>210.0</ele><time>2026-04-12T14:43:32.185Z</time></trkpt><trkpt lat="43.7575241" lon="11.4196405"><ele>209.5</ele><time>2026-04-12T14:43:33.185Z</time></trkpt><trkpt lat="43.7574123" lon="11.4196914"><ele>209.0</ele><time>2026-04-12T14:43:34.185Z</time></trkpt><trkpt lat="43.7572944" lon="11.4197344"><ele>209.0</ele><time>2026-04-12T14:43:35.186Z</time></trkpt><trkpt lat="43.7571939" lon="11.4197444"><ele>209.0</ele><time>2026-04-12T14:43:36.186Z</time></trkpt><trkpt lat="43.757094" lon="11.4197803"><ele>209.0</ele><time>2026-04-12T14:43:37.186Z</time></trkpt><trkpt lat="43.7569886" lon="11.4198308"><ele>209.0</ele><time>2026-04-12T14:43:38.186Z</time></trkpt><trkpt lat="43.7568756" lon="11.4198713"><ele>209.0</ele><time>2026-04-12T14:43:39.186Z</time></trkpt><trkpt lat="43.7567646" lon="11.4199079"><ele>216.25</ele><time>2026-04-12T14:43:40.185Z</time></trkpt><trkpt lat="43.7566578" lon="11.4199464"><ele>223.5</ele><time>2026-04-12T14:43:41.185Z</time></trkpt><trkpt lat="43.7565729" lon="11.420026"><ele>230.75</ele><time>2026-04-12T14:43:42.186Z</time></trkpt><trkpt lat="43.7564739" lon="11.4201626"><ele>238.0</ele><time>2026-04-12T14:43:43.186Z</time></trkpt><trkpt lat="43.7563911" lon="11.4202482"><ele>238.0</ele><time>2026-04-12T14:43:44.185Z</time></trkpt><trkpt lat="43.7563263" lon="11.4203496"><ele>238.0</ele><time>2026-04-12T14:43:45.185Z</time></trkpt><trkpt lat="43.7562557" lon="11.4204461"><ele>238.0</ele><time>2026-04-12T14:43:46.186Z</time></trkpt><trkpt lat="43.7561909" lon="11.4205339"><ele>238.0</ele><time>2026-04-12T14:43:47.184Z</time></trkpt><trkpt lat="43.7561108" lon="11.4206249"><ele>238.0</ele><time>2026-04-12T14:43:48.186Z</time></trkpt><trkpt lat="43.7560212" lon="11.4206714"><ele>236.4</ele><time>2026-04-12T14:43:49.186Z</time></trkpt><trkpt lat="43.7559271" lon="11.4207382"><ele>234.8</ele><time>2026-04-12T14:43:50.185Z</time></trkpt><trkpt lat="43.7558424" lon="11.4207989"><ele>233.2</ele><time>2026-04-12T14:43:51.185Z</time></trkpt><trkpt lat="43.7557311" lon="11.4208257"><ele>231.6</ele><time>2026-04-12T14:43:52.185Z</time></trkpt><trkpt lat="43.755627" lon="11.4208439"><ele>230.0</ele><time>2026-04-12T14:43:53.185Z</time></trkpt><trkpt lat="43.7555113" lon="11.4208025"><ele>230.0</ele><time>2026-04-12T14:43:54.186Z</time></trkpt><trkpt lat="43.7553917" lon="11.4208106"><ele>230.0</ele><time>2026-04-12T14:43:55.185Z</time></trkpt><trkpt lat="43.7552668" lon="11.4208069"><ele>230.0</ele><time>2026-04-12T14:43:56.185Z</time></trkpt><trkpt lat="43.7551454" lon="11.4208103"><ele>230.0</ele><time>2026-04-12T14:43:57.186Z</time></trkpt><trkpt lat="43.7550173" lon="11.4208152"><ele>230.0</ele><time>2026-04-12T14:43:58.185Z</time></trkpt><trkpt lat="43.7548803" lon="11.4208323"><ele>230.0</ele><time>2026-04-12T14:43:59.185Z</time></trkpt><trkpt lat="43.7547505" lon="11.4208503"><ele>230.0</ele><time>2026-04-12T14:44:00.185Z</time></trkpt><trkpt lat="43.7545966" lon="11.4208843"><ele>230.0</ele><time>2026-04-12T14:44:01.186Z</time></trkpt><trkpt lat="43.7544541" lon="11.4209225"><ele>231.0</ele><time>2026-04-12T14:44:02.186Z</time></trkpt><trkpt lat="43.7543331" lon="11.4209392"><ele>232.0</ele><time>2026-04-12T14:44:03.186Z</time></trkpt><trkpt lat="43.754213" lon="11.420982"><ele>233.0</ele><time>2026-04-12T14:44:04.185Z</time></trkpt><trkpt lat="43.7541124" lon="11.4209917"><ele>234.0</ele><time>2026-04-12T14:44:05.185Z</time></trkpt><trkpt lat="43.753998" lon="11.4210064"><ele>234.0</ele><time>2026-04-12T14:44:06.186Z</time></trkpt><trkpt lat="43.7538954" lon="11.4209979"><ele>233.99999999999997</ele><time>2026-04-12T14:44:07.185Z</time></trkpt><trkpt lat="43.7537876" lon="11.420983"><ele>233.99999999999997</ele><time>2026-04-12T14:44:08.185Z</time></trkpt><trkpt lat="43.7536833" lon="11.4209541"><ele>234.0</ele><time>2026-04-12T14:44:09.186Z</time></trkpt><trkpt lat="43.7535748" lon="11.420917"><ele>234.0</ele><time>2026-04-12T14:44:10.185Z</time></trkpt><trkpt lat="43.7534709" lon="11.4208787"><ele>234.79999999999998</ele><time>2026-04-12T14:44:11.185Z</time></trkpt><trkpt lat="43.7533743" lon="11.4208439"><ele>235.59999999999997</ele><time>2026-04-12T14:44:12.185Z</time></trkpt><trkpt lat="43.7532807" lon="11.4208159"><ele>236.4</ele><time>2026-04-12T14:44:13.186Z</time></trkpt><trkpt lat="43.753179" lon="11.4207991"><ele>237.2</ele><time>2026-04-12T14:44:14.186Z</time></trkpt><trkpt lat="43.7530752" lon="11.4207717"><ele>238.0</ele><time>2026-04-12T14:44:15.185Z</time></trkpt><trkpt lat="43.752981" lon="11.4207498"><ele>237.99999999999997</ele><time>2026-04-12T14:44:16.185Z</time></trkpt><trkpt lat="43.7529079" lon="11.4207318"><ele>238.0</ele><time>2026-04-12T14:44:17.186Z</time></trkpt><trkpt lat="43.7528327" lon="11.4207264"><ele>238.0</ele><time>2026-04-12T14:44:18.185Z</time></trkpt><trkpt lat="43.7528206" lon="11.4206155"><ele>238.0</ele><time>2026-04-12T14:44:21.185Z</time></trkpt><trkpt lat="43.752895" lon="11.4205256"><ele>237.99999999999997</ele><time>2026-04-12T14:44:23.185Z</time></trkpt><trkpt lat="43.7530069" lon="11.420469"><ele>238.0</ele><time>2026-04-12T14:44:25.185Z</time></trkpt><trkpt lat="43.7530755" lon="11.4204283"><ele>242.60000000000002</ele><time>2026-04-12T14:44:26.184Z</time></trkpt><trkpt lat="43.7531539" lon="11.4203181"><ele>247.20000000000002</ele><time>2026-04-12T14:44:27.184Z</time></trkpt><trkpt lat="43.7532227" lon="11.4202167"><ele>251.8</ele><time>2026-04-12T14:44:28.185Z</time></trkpt><trkpt lat="43.7532855" lon="11.4201208"><ele>256.40000000000003</ele><time>2026-04-12T14:44:29.185Z</time></trkpt><trkpt lat="43.7533409" lon="11.4200342"><ele>261.0</ele><time>2026-04-12T14:44:30.185Z</time></trkpt><trkpt lat="43.7534257" lon="11.4199222"><ele>261.0</ele><time>2026-04-12T14:44:31.185Z</time></trkpt><trkpt lat="43.7535022" lon="11.4198687"><ele>261.0</ele><time>2026-04-12T14:44:32.184Z</time></trkpt><trkpt lat="43.7535712" lon="11.4197875"><ele>261.0</ele><time>2026-04-12T14:44:33.184Z</time></trkpt><trkpt lat="43.7536426" lon="11.4197052"><ele>261.0</ele><time>2026-04-12T14:44:34.184Z</time></trkpt><trkpt lat="43.7537123" lon="11.4195651"><ele>261.0</ele><time>2026-04-12T14:44:35.184Z</time></trkpt><trkpt lat="43.7537937" lon="11.4194441"><ele>267.8</ele><time>2026-04-12T14:44:36.184Z</time></trkpt><trkpt lat="43.7538721" lon="11.4193398"><ele>274.6</ele><time>2026-04-12T14:44:37.185Z</time></trkpt><trkpt lat="43.7539541" lon="11.4192322"><ele>281.4</ele><time>2026-04-12T14:44:38.184Z</time></trkpt><trkpt lat="43.7540272" lon="11.4191363"><ele>288.2</ele><time>2026-04-12T14:44:39.184Z</time></trkpt><trkpt lat="43.7540898" lon="11.4190521"><ele>295.0</ele><time>2026-04-12T14:44:40.185Z</time></trkpt><trkpt lat="43.7541949" lon="11.4189692"><ele>297.66666666666663</ele><time>2026-04-12T14:44:42.185Z</time></trkpt><trkpt lat="43.7542482" lon="11.4188067"><ele>300.3333333333333</ele><time>2026-04-12T14:44:44.185Z</time></trkpt><trkpt lat="43.7542462" lon="11.4187058"><ele>303.0</ele><time>2026-04-12T14:44:45.185Z</time></trkpt><trkpt lat="43.7542406" lon="11.4186085"><ele>305.6666666666667</ele><time>2026-04-12T14:44:46.184Z</time></trkpt><trkpt lat="43.754246" lon="11.4185066"><ele>308.33333333333337</ele><time>2026-04-12T14:44:47.184Z</time></trkpt><trkpt lat="43.7542672" lon="11.4184093"><ele>311.0</ele><time>2026-04-12T14:44:48.184Z</time></trkpt><trkpt lat="43.754292" lon="11.4183275"><ele>313.0</ele><time>2026-04-12T14:44:49.185Z</time></trkpt><trkpt lat="43.7543987" lon="11.4182296"><ele>315.0</ele><time>2026-04-12T14:44:51.185Z</time></trkpt><trkpt lat="43.7544572" lon="11.4181535"><ele>317.0</ele><time>2026-04-12T14:44:52.185Z</time></trkpt><trkpt lat="43.7545479" lon="11.4180819"><ele>319.0</ele><time>2026-04-12T14:44:54.185Z</time></trkpt><trkpt lat="43.7546626" lon="11.4180283"><ele>321.0</ele><time>2026-04-12T14:44:56.184Z</time></trkpt><trkpt lat="43.7547126" lon="11.4179731"><ele>323.3333333333333</ele><time>2026-04-12T14:44:57.184Z</time></trkpt><trkpt lat="43.7547519" lon="11.4178516"><ele>325.6666666666667</ele><time>2026-04-12T14:44:58.184Z</time></trkpt><trkpt lat="43.7547756" lon="11.4177226"><ele>328.0</ele><time>2026-04-12T14:44:59.184Z</time></trkpt><trkpt lat="43.7547757" lon="11.4176031"><ele>330.33333333333337</ele><time>2026-04-12T14:45:00.184Z</time></trkpt><trkpt lat="43.7547714" lon="11.4175152"><ele>332.6666666666667</ele><time>2026-04-12T14:45:01.185Z</time></trkpt><trkpt lat="43.754766" lon="11.4173938"><ele>335.0</ele><time>2026-04-12T14:45:03.184Z</time></trkpt><trkpt lat="43.7547417" lon="11.4172683"><ele>335.0</ele><time>2026-04-12T14:45:05.184Z</time></trkpt><trkpt lat="43.7547249" lon="11.4171745"><ele>335.0</ele><time>2026-04-12T14:45:07.184Z</time></trkpt><trkpt lat="43.7547246" lon="11.417062"><ele>335.0</ele><time>2026-04-12T14:45:09.185Z</time></trkpt><trkpt lat="43.7547314" lon="11.4169409"><ele>335.0</ele><time>2026-04-12T14:45:11.185Z</time></trkpt><trkpt lat="43.7547112" lon="11.4168232"><ele>335.0</ele><time>2026-04-12T14:45:13.185Z</time></trkpt><trkpt lat="43.7546498" lon="11.4166981"><ele>335.0</ele><time>2026-04-12T14:45:15.184Z</time></trkpt><trkpt lat="43.7546233" lon="11.4165437"><ele>336.2</ele><time>2026-04-12T14:45:17.185Z</time></trkpt><trkpt lat="43.7546479" lon="11.4163959"><ele>337.4</ele><time>2026-04-12T14:45:19.185Z</time></trkpt><trkpt lat="43.7546941" lon="11.4163326"><ele>338.6</ele><time>2026-04-12T14:45:20.185Z</time></trkpt><trkpt lat="43.754762" lon="11.4162489"><ele>339.8</ele><time>2026-04-12T14:45:21.185Z</time></trkpt><trkpt lat="43.7548356" lon="11.4161402"><ele>341.0</ele><time>2026-04-12T14:45:22.185Z</time></trkpt><trkpt lat="43.7549168" lon="11.4160286"><ele>341.5</ele><time>2026-04-12T14:45:23.184Z</time></trkpt><trkpt lat="43.7550006" lon="11.415908"><ele>342.0</ele><time>2026-04-12T14:45:24.185Z</time></trkpt><trkpt lat="43.7550864" lon="11.4157878"><ele>342.5</ele><time>2026-04-12T14:45:25.184Z</time></trkpt><trkpt lat="43.7551812" lon="11.4156514"><ele>343.0</ele><time>2026-04-12T14:45:26.185Z</time></trkpt><trkpt lat="43.7552822" lon="11.4155008"><ele>347.0</ele><time>2026-04-12T14:45:27.185Z</time></trkpt><trkpt lat="43.7553855" lon="11.4153524"><ele>351.0</ele><time>2026-04-12T14:45:28.185Z</time></trkpt><trkpt lat="43.7554833" lon="11.4152027"><ele>355.0</ele><time>2026-04-12T14:45:29.185Z</time></trkpt><trkpt lat="43.7555854" lon="11.4150584"><ele>359.0</ele><time>2026-04-12T14:45:30.185Z</time></trkpt><trkpt lat="43.7556813" lon="11.4149373"><ele>359.0</ele><time>2026-04-12T14:45:31.185Z</time></trkpt><trkpt lat="43.7557712" lon="11.4148393"><ele>359.0</ele><time>2026-04-12T14:45:32.184Z</time></trkpt><trkpt lat="43.7558654" lon="11.4147473"><ele>359.0</ele><time>2026-04-12T14:45:33.184Z</time></trkpt><trkpt lat="43.7559446" lon="11.4146648"><ele>359.0</ele><time>2026-04-12T14:45:34.184Z</time></trkpt><trkpt lat="43.7560068" lon="11.4145542"><ele>359.0</ele><time>2026-04-12T14:45:35.184Z</time></trkpt><trkpt lat="43.7560746" lon="11.4144593"><ele>360.79999999999995</ele><time>2026-04-12T14:45:36.184Z</time></trkpt><trkpt lat="43.756137" lon="11.4143965"><ele>362.59999999999997</ele><time>2026-04-12T14:45:37.184Z</time></trkpt><trkpt lat="43.7561776" lon="11.4142794"><ele>364.4</ele><time>2026-04-12T14:45:38.184Z</time></trkpt><trkpt lat="43.7562222" lon="11.4141542"><ele>366.2</ele><time>2026-04-12T14:45:39.185Z</time></trkpt><trkpt lat="43.7562588" lon="11.4140224"><ele>368.0</ele><time>2026-04-12T14:45:40.184Z</time></trkpt><trkpt lat="43.7563255" lon="11.413941"><ele>368.0</ele><time>2026-04-12T14:45:41.185Z</time></trkpt><trkpt lat="43.7563806" lon="11.4138558"><ele>368.0</ele><time>2026-04-12T14:45:42.185Z</time></trkpt><trkpt lat="43.7564029" lon="11.4137717"><ele>368.0</ele><time>2026-04-12T14:45:43.185Z</time></trkpt><trkpt lat="43.7564118" lon="11.4136441"><ele>368.0</ele><time>2026-04-12T14:45:45.184Z</time></trkpt><trkpt lat="43.7563875" lon="11.4135455"><ele>368.0</ele><time>2026-04-12T14:45:46.185Z</time></trkpt><trkpt lat="43.7563431" lon="11.4134132"><ele>368.0</ele><time>2026-04-12T14:45:47.184Z</time></trkpt><trkpt lat="43.7563106" lon="11.4132476"><ele>370.0</ele><time>2026-04-12T14:45:48.184Z</time></trkpt><trkpt lat="43.7562897" lon="11.4131049"><ele>372.0</ele><time>2026-04-12T14:45:49.184Z</time></trkpt><trkpt lat="43.7562751" lon="11.4129731"><ele>374.0</ele><time>2026-04-12T14:45:50.185Z</time></trkpt><trkpt lat="43.7562868" lon="11.4128303"><ele>376.0</ele><time>2026-04-12T14:45:51.183Z</time></trkpt><trkpt lat="43.7563002" lon="11.4126834"><ele>378.0</ele><time>2026-04-12T14:45:52.184Z</time></trkpt><trkpt lat="43.7563227" lon="11.4125115"><ele>379.5</ele><time>2026-04-12T14:45:53.184Z</time></trkpt><trkpt lat="43.7563482" lon="11.4123755"><ele>381.0</ele><time>2026-04-12T14:45:54.184Z</time></trkpt><trkpt lat="43.7563564" lon="11.4122582"><ele>382.5</ele><time>2026-04-12T14:45:55.184Z</time></trkpt><trkpt lat="43.7563382" lon="11.4121324"><ele>384.0</ele><time>2026-04-12T14:45:56.185Z</time></trkpt><trkpt lat="43.7563321" lon="11.4120226"><ele>385.5</ele><time>2026-04-12T14:45:57.185Z</time></trkpt><trkpt lat="43.7563462" lon="11.411932"><ele>387.0</ele><time>2026-04-12T14:45:58.185Z</time></trkpt><trkpt lat="43.7563836" lon="11.4118332"><ele>388.8333333333333</ele><time>2026-04-12T14:45:59.185Z</time></trkpt><trkpt lat="43.7564152" lon="11.4117429"><ele>390.66666666666663</ele><time>2026-04-12T14:46:00.184Z</time></trkpt><trkpt lat="43.7564635" lon="11.4116394"><ele>392.5</ele><time>2026-04-12T14:46:01.183Z</time></trkpt><trkpt lat="43.7565129" lon="11.4115373"><ele>394.3333333333333</ele><time>2026-04-12T14:46:02.184Z</time></trkpt><trkpt lat="43.7565591" lon="11.4114326"><ele>396.16666666666663</ele><time>2026-04-12T14:46:03.185Z</time></trkpt><trkpt lat="43.7565766" lon="11.4113122"><ele>398.0</ele><time>2026-04-12T14:46:04.184Z</time></trkpt><trkpt lat="43.7565451" lon="11.4111884"><ele>399.5</ele><time>2026-04-12T14:46:05.184Z</time></trkpt><trkpt lat="43.75656" lon="11.4110235"><ele>401.0</ele><time>2026-04-12T14:46:07.185Z</time></trkpt><trkpt lat="43.7566275" lon="11.4108907"><ele>402.5</ele><time>2026-04-12T14:46:09.185Z</time></trkpt><trkpt lat="43.7567332" lon="11.4107632"><ele>404.0</ele><time>2026-04-12T14:46:11.185Z</time></trkpt><trkpt lat="43.7567888" lon="11.4106402"><ele>403.99999999999994</ele><time>2026-04-12T14:46:12.184Z</time></trkpt><trkpt lat="43.7568593" lon="11.4105795"><ele>404.0</ele><time>2026-04-12T14:46:13.185Z</time></trkpt><trkpt lat="43.7569351" lon="11.4105516"><ele>404.0</ele><time>2026-04-12T14:46:14.185Z</time></trkpt><trkpt lat="43.7570132" lon="11.4105241"><ele>404.0</ele><time>2026-04-12T14:46:15.185Z</time></trkpt><trkpt lat="43.7570808" lon="11.4105213"><ele>403.99999999999994</ele><time>2026-04-12T14:46:16.185Z</time></trkpt><trkpt lat="43.7571369" lon="11.4104247"><ele>404.0</ele><time>2026-04-12T14:46:18.184Z</time></trkpt><trkpt lat="43.7571454" lon="11.4103292"><ele>405.79999999999995</ele><time>2026-04-12T14:46:19.184Z</time></trkpt><trkpt lat="43.7571139" lon="11.4102049"><ele>407.59999999999997</ele><time>2026-04-12T14:46:20.184Z</time></trkpt><trkpt lat="43.7570437" lon="11.4100573"><ele>409.4</ele><time>2026-04-12T14:46:21.184Z</time></trkpt><trkpt lat="43.7570068" lon="11.4099418"><ele>411.2</ele><time>2026-04-12T14:46:22.184Z</time></trkpt><trkpt lat="43.7569539" lon="11.4098388"><ele>413.0</ele><time>2026-04-12T14:46:23.185Z</time></trkpt><trkpt lat="43.756859" lon="11.4097596"><ele>413.0</ele><time>2026-04-12T14:46:24.184Z</time></trkpt><trkpt lat="43.7567834" lon="11.409661"><ele>413.0</ele><time>2026-04-12T14:46:25.184Z</time></trkpt><trkpt lat="43.7566996" lon="11.4095638"><ele>413.0</ele><time>2026-04-12T14:46:26.184Z</time></trkpt><trkpt lat="43.7566487" lon="11.4094529"><ele>413.0</ele><time>2026-04-12T14:46:27.185Z</time></trkpt><trkpt lat="43.7565947" lon="11.4093472"><ele>413.0</ele><time>2026-04-12T14:46:28.185Z</time></trkpt><trkpt lat="43.7565457" lon="11.4092189"><ele>414.3333333333333</ele><time>2026-04-12T14:46:29.185Z</time></trkpt><trkpt lat="43.7565152" lon="11.4090661"><ele>415.66666666666663</ele><time>2026-04-12T14:46:30.185Z</time></trkpt><trkpt lat="43.7564666" lon="11.4089555"><ele>417.0</ele><time>2026-04-12T14:46:31.185Z</time></trkpt><trkpt lat="43.7564226" lon="11.4088636"><ele>418.33333333333337</ele><time>2026-04-12T14:46:32.184Z</time></trkpt><trkpt lat="43.7563878" lon="11.4087795"><ele>419.6666666666667</ele><time>2026-04-12T14:46:33.184Z</time></trkpt><trkpt lat="43.7563751" lon="11.4086735"><ele>421.0</ele><time>2026-04-12T14:46:34.184Z</time></trkpt><trkpt lat="43.7563201" lon="11.4086035"><ele>421.0</ele><time>2026-04-12T14:46:35.185Z</time></trkpt><trkpt lat="43.7562706" lon="11.4084976"><ele>421.0</ele><time>2026-04-12T14:46:36.184Z</time></trkpt><trkpt lat="43.7562058" lon="11.4083816"><ele>421.0</ele><time>2026-04-12T14:46:37.185Z</time></trkpt><trkpt lat="43.7561401" lon="11.4082997"><ele>421.0</ele><time>2026-04-12T14:46:38.185Z</time></trkpt><trkpt lat="43.7560728" lon="11.4082198"><ele>421.0</ele><time>2026-04-12T14:46:39.185Z</time></trkpt><trkpt lat="43.7560071" lon="11.4081482"><ele>418.8</ele><time>2026-04-12T14:46:40.185Z</time></trkpt><trkpt lat="43.7559425" lon="11.4081347"><ele>416.6</ele><time>2026-04-12T14:46:42.185Z</time></trkpt><trkpt lat="43.7559959" lon="11.4080169"><ele>414.4</ele><time>2026-04-12T14:46:44.184Z</time></trkpt><trkpt lat="43.7560613" lon="11.4079435"><ele>412.2</ele><time>2026-04-12T14:46:45.185Z</time></trkpt><trkpt lat="43.7561717" lon="11.4079016"><ele>410.0</ele><time>2026-04-12T14:46:46.184Z</time></trkpt><trkpt lat="43.756302" lon="11.4079136"><ele>409.8</ele><time>2026-04-12T14:46:47.185Z</time></trkpt><trkpt lat="43.7564251" lon="11.4078749"><ele>409.6</ele><time>2026-04-12T14:46:48.185Z</time></trkpt><trkpt lat="43.7565379" lon="11.4078369"><ele>409.4</ele><time>2026-04-12T14:46:49.185Z</time></trkpt><trkpt lat="43.7566042" lon="11.4077936"><ele>409.2</ele><time>2026-04-12T14:46:50.185Z</time></trkpt><trkpt lat="43.7567056" lon="11.4077203"><ele>409.0</ele><time>2026-04-12T14:46:51.185Z</time></trkpt><trkpt lat="43.7568089" lon="11.407618"><ele>411.79999999999995</ele><time>2026-04-12T14:46:52.184Z</time></trkpt><trkpt lat="43.7569065" lon="11.4075267"><ele>414.59999999999997</ele><time>2026-04-12T14:46:53.185Z</time></trkpt><trkpt lat="43.7569965" lon="11.4074593"><ele>417.4</ele><time>2026-04-12T14:46:54.185Z</time></trkpt><trkpt lat="43.7570671" lon="11.4073608"><ele>420.2</ele><time>2026-04-12T14:46:55.185Z</time></trkpt><trkpt lat="43.7571375" lon="11.4072879"><ele>423.0</ele><time>2026-04-12T14:46:56.185Z</time></trkpt><trkpt lat="43.7572004" lon="11.4072234"><ele>423.0</ele><time>2026-04-12T14:46:57.185Z</time></trkpt><trkpt lat="43.7572548" lon="11.4071608"><ele>423.0</ele><time>2026-04-12T14:46:58.183Z</time></trkpt><trkpt lat="43.7573139" lon="11.4070906"><ele>423.0</ele><time>2026-04-12T14:46:59.185Z</time></trkpt><trkpt lat="43.757365" lon="11.407003"><ele>423.0</ele><time>2026-04-12T14:47:00.184Z</time></trkpt><trkpt lat="43.7574272" lon="11.4068853"><ele>423.0</ele><time>2026-04-12T14:47:01.184Z</time></trkpt><trkpt lat="43.7574801" lon="11.4068012"><ele>423.0</ele><time>2026-04-12T14:47:02.184Z</time></trkpt><trkpt lat="43.7575642" lon="11.4067259"><ele>422.3333333333333</ele><time>2026-04-12T14:47:03.185Z</time></trkpt><trkpt lat="43.7576465" lon="11.4066425"><ele>421.66666666666663</ele><time>2026-04-12T14:47:04.184Z</time></trkpt><trkpt lat="43.7577067" lon="11.4065987"><ele>421.0</ele><time>2026-04-12T14:47:05.184Z</time></trkpt><trkpt lat="43.7577859" lon="11.4066"><ele>420.3333333333333</ele><time>2026-04-12T14:47:06.184Z</time></trkpt><trkpt lat="43.7578762" lon="11.4065761"><ele>419.66666666666663</ele><time>2026-04-12T14:47:08.185Z</time></trkpt><trkpt lat="43.7579082" lon="11.4064794"><ele>419.0</ele><time>2026-04-12T14:47:10.184Z</time></trkpt><trkpt lat="43.7579346" lon="11.4063473"><ele>419.6</ele><time>2026-04-12T14:47:12.184Z</time></trkpt><trkpt lat="43.7579471" lon="11.4062131"><ele>420.2</ele><time>2026-04-12T14:47:14.184Z</time></trkpt><trkpt lat="43.7579541" lon="11.4060566"><ele>420.8</ele><time>2026-04-12T14:47:16.185Z</time></trkpt><trkpt lat="43.7579636" lon="11.4059098"><ele>421.40000000000003</ele><time>2026-04-12T14:47:18.185Z</time></trkpt><trkpt lat="43.7579685" lon="11.4058117"><ele>422.0</ele><time>2026-04-12T14:47:20.185Z</time></trkpt><trkpt lat="43.7579548" lon="11.4057042"><ele>421.99999999999994</ele><time>2026-04-12T14:47:23.185Z</time></trkpt><trkpt lat="43.7579571" lon="11.4055825"><ele>422.0</ele><time>2026-04-12T14:47:26.185Z</time></trkpt><trkpt lat="43.7579584" lon="11.4054822"><ele>422.0</ele><time>2026-04-12T14:47:28.185Z</time></trkpt><trkpt lat="43.7579558" lon="11.4053855"><ele>422.0</ele><time>2026-04-12T14:47:30.185Z</time></trkpt><trkpt lat="43.7579668" lon="11.4052839"><ele>421.99999999999994</ele><time>2026-04-12T14:47:32.185Z</time></trkpt><trkpt lat="43.7579798" lon="11.4051366"><ele>422.0</ele><time>2026-04-12T14:47:34.185Z</time></trkpt><trkpt lat="43.7579814" lon="11.4050429"><ele>421.66666666666663</ele><time>2026-04-12T14:47:35.185Z</time></trkpt><trkpt lat="43.757989" lon="11.4049399"><ele>421.3333333333333</ele><time>2026-04-12T14:47:36.184Z</time></trkpt><trkpt lat="43.7579968" lon="11.4048268"><ele>421.0</ele><time>2026-04-12T14:47:37.184Z</time></trkpt><trkpt lat="43.7580073" lon="11.4047021"><ele>420.66666666666663</ele><time>2026-04-12T14:47:38.183Z</time></trkpt><trkpt lat="43.7580081" lon="11.40458"><ele>420.3333333333333</ele><time>2026-04-12T14:47:39.185Z</time></trkpt><trkpt lat="43.758014" lon="11.4044531"><ele>420.0</ele><time>2026-04-12T14:47:40.185Z</time></trkpt><trkpt lat="43.7580175" lon="11.404324"><ele>420.8</ele><time>2026-04-12T14:47:41.185Z</time></trkpt><trkpt lat="43.75802" lon="11.4041922"><ele>421.6</ele><time>2026-04-12T14:47:42.185Z</time></trkpt><trkpt lat="43.7580293" lon="11.4040634"><ele>422.4</ele><time>2026-04-12T14:47:43.185Z</time></trkpt><trkpt lat="43.7580367" lon="11.4039377"><ele>423.2</ele><time>2026-04-12T14:47:44.184Z</time></trkpt><trkpt lat="43.7580483" lon="11.4038074"><ele>424.0</ele><time>2026-04-12T14:47:45.185Z</time></trkpt><trkpt lat="43.7580504" lon="11.4037017"><ele>424.2</ele><time>2026-04-12T14:47:46.184Z</time></trkpt><trkpt lat="43.7580741" lon="11.4035686"><ele>424.4</ele><time>2026-04-12T14:47:47.185Z</time></trkpt><trkpt lat="43.758097" lon="11.4034465"><ele>424.6</ele><time>2026-04-12T14:47:48.185Z</time></trkpt><trkpt lat="43.7581325" lon="11.4033129"><ele>424.8</ele><time>2026-04-12T14:47:49.185Z</time></trkpt><trkpt lat="43.7581643" lon="11.4032092"><ele>425.0</ele><time>2026-04-12T14:47:50.185Z</time></trkpt><trkpt lat="43.7582071" lon="11.4030916"><ele>425.2</ele><time>2026-04-12T14:47:51.185Z</time></trkpt><trkpt lat="43.7582504" lon="11.402967"><ele>425.4</ele><time>2026-04-12T14:47:52.184Z</time></trkpt><trkpt lat="43.7583262" lon="11.4028709"><ele>425.6</ele><time>2026-04-12T14:47:53.184Z</time></trkpt><trkpt lat="43.7583958" lon="11.4027617"><ele>425.8</ele><time>2026-04-12T14:47:54.184Z</time></trkpt><trkpt lat="43.7584758" lon="11.4026504"><ele>426.0</ele><time>2026-04-12T14:47:55.184Z</time></trkpt><trkpt lat="43.7585772" lon="11.4025874"><ele>426.0</ele><time>2026-04-12T14:47:56.185Z</time></trkpt><trkpt lat="43.7586621" lon="11.4025292"><ele>426.0</ele><time>2026-04-12T14:47:57.185Z</time></trkpt><trkpt lat="43.7587619" lon="11.402485"><ele>426.0</ele><time>2026-04-12T14:47:58.185Z</time></trkpt><trkpt lat="43.7588572" lon="11.4024338"><ele>426.0</ele><time>2026-04-12T14:47:59.185Z</time></trkpt><trkpt lat="43.7589605" lon="11.4023859"><ele>426.0</ele><time>2026-04-12T14:48:00.183Z</time></trkpt><trkpt lat="43.7590622" lon="11.4023485"><ele>426.0</ele><time>2026-04-12T14:48:01.184Z</time></trkpt><trkpt lat="43.7591534" lon="11.402317"><ele>426.0</ele><time>2026-04-12T14:48:02.185Z</time></trkpt><trkpt lat="43.7592444" lon="11.4022638"><ele>426.0</ele><time>2026-04-12T14:48:03.184Z</time></trkpt><trkpt lat="43.7593361" lon="11.4022216"><ele>426.0</ele><time>2026-04-12T14:48:04.185Z</time></trkpt><trkpt lat="43.7593905" lon="11.4021002"><ele>426.0</ele><time>2026-04-12T14:48:05.185Z</time></trkpt><trkpt lat="43.759465" lon="11.4020058"><ele>427.3333333333333</ele><time>2026-04-12T14:48:06.185Z</time></trkpt><trkpt lat="43.7595411" lon="11.4019433"><ele>428.66666666666663</ele><time>2026-04-12T14:48:07.184Z</time></trkpt><trkpt lat="43.759624" lon="11.4018976"><ele>430.0</ele><time>2026-04-12T14:48:08.184Z</time></trkpt><trkpt lat="43.7596976" lon="11.4018437"><ele>431.3333333333333</ele><time>2026-04-12T14:48:09.184Z</time></trkpt><trkpt lat="43.75976" lon="11.4017552"><ele>432.66666666666663</ele><time>2026-04-12T14:48:10.184Z</time></trkpt><trkpt lat="43.7598353" lon="11.4016827"><ele>434.0</ele><time>2026-04-12T14:48:11.184Z</time></trkpt><trkpt lat="43.7599139" lon="11.4016156"><ele>433.99999999999994</ele><time>2026-04-12T14:48:12.184Z</time></trkpt><trkpt lat="43.759983" lon="11.4015416"><ele>434.0</ele><time>2026-04-12T14:48:13.184Z</time></trkpt><trkpt lat="43.7600504" lon="11.4014789"><ele>434.0</ele><time>2026-04-12T14:48:14.184Z</time></trkpt><trkpt lat="43.7600861" lon="11.4013776"><ele>434.0</ele><time>2026-04-12T14:48:15.185Z</time></trkpt><trkpt lat="43.7601512" lon="11.4013016"><ele>433.99999999999994</ele><time>2026-04-12T14:48:16.184Z</time></trkpt><trkpt lat="43.7602197" lon="11.4012029"><ele>434.0</ele><time>2026-04-12T14:48:17.184Z</time></trkpt><trkpt lat="43.7602494" lon="11.4010865"><ele>435.3333333333333</ele><time>2026-04-12T14:48:18.184Z</time></trkpt><trkpt lat="43.7602744" lon="11.4009752"><ele>436.66666666666663</ele><time>2026-04-12T14:48:19.184Z</time></trkpt><trkpt lat="43.7603013" lon="11.4008879"><ele>438.0</ele><time>2026-04-12T14:48:20.185Z</time></trkpt><trkpt lat="43.7604045" lon="11.4008054"><ele>439.33333333333337</ele><time>2026-04-12T14:48:22.185Z</time></trkpt><trkpt lat="43.7604789" lon="11.4007807"><ele>440.6666666666667</ele><time>2026-04-12T14:48:23.184Z</time></trkpt><trkpt lat="43.7605635" lon="11.4007286"><ele>442.0</ele><time>2026-04-12T14:48:24.185Z</time></trkpt><trkpt lat="43.7606375" lon="11.4006657"><ele>442.00000000000006</ele><time>2026-04-12T14:48:25.185Z</time></trkpt><trkpt lat="43.760684" lon="11.4005832"><ele>442.0</ele><time>2026-04-12T14:48:26.185Z</time></trkpt><trkpt lat="43.7607124" lon="11.4004907"><ele>442.0</ele><time>2026-04-12T14:48:27.184Z</time></trkpt><trkpt lat="43.7607304" lon="11.4004001"><ele>442.0</ele><time>2026-04-12T14:48:28.185Z</time></trkpt><trkpt lat="43.7607327" lon="11.4003086"><ele>442.0</ele><time>2026-04-12T14:48:29.184Z</time></trkpt><trkpt lat="43.760746" lon="11.4001805"><ele>442.00000000000006</ele><time>2026-04-12T14:48:31.185Z</time></trkpt><trkpt lat="43.7608144" lon="11.4001945"><ele>442.0</ele><time>2026-04-12T14:49:01.185Z</time></trkpt><trkpt lat="43.7609206" lon="11.4002577"><ele>442.28571428571433</ele><time>2026-04-12T14:49:03.184Z</time></trkpt><trkpt lat="43.7609947" lon="11.400303"><ele>442.57142857142856</ele><time>2026-04-12T14:49:05.185Z</time></trkpt><trkpt lat="43.7610352" lon="11.4003774"><ele>442.8571428571429</ele><time>2026-04-12T14:49:07.185Z</time></trkpt><trkpt lat="43.7610711" lon="11.4004662"><ele>443.14285714285717</ele><time>2026-04-12T14:49:09.184Z</time></trkpt><trkpt lat="43.7611209" lon="11.4005387"><ele>443.42857142857144</ele><time>2026-04-12T14:49:11.184Z</time></trkpt><trkpt lat="43.7611864" lon="11.4005784"><ele>443.7142857142857</ele><time>2026-04-12T14:49:13.184Z</time></trkpt><trkpt lat="43.7612549" lon="11.4005647"><ele>444.0</ele><time>2026-04-12T14:49:15.125Z</time></trkpt><trkpt lat="43.7613329" lon="11.4004829"><ele>444.0</ele><time>2026-04-12T14:49:18.185Z</time></trkpt><trkpt lat="43.7613849" lon="11.400424"><ele>444.0</ele><time>2026-04-12T14:49:22.184Z</time></trkpt><trkpt lat="43.7613395" lon="11.4004855"><ele>444.0</ele><time>2026-04-12T14:49:36.185Z</time></trkpt><trkpt lat="43.7612516" lon="11.4005629"><ele>444.0</ele><time>2026-04-12T14:49:39.184Z</time></trkpt><trkpt lat="43.7611678" lon="11.4005702"><ele>444.0</ele><time>2026-04-12T14:49:42.185Z</time></trkpt><trkpt lat="43.7610854" lon="11.4005325"><ele>444.0</ele><time>2026-04-12T14:49:46.184Z</time></trkpt><trkpt lat="43.7610221" lon="11.4004203"><ele>445.0</ele><time>2026-04-12T14:49:48.184Z</time></trkpt><trkpt lat="43.7609491" lon="11.4003051"><ele>446.0</ele><time>2026-04-12T14:49:50.184Z</time></trkpt><trkpt lat="43.7608814" lon="11.4002759"><ele>447.0</ele><time>2026-04-12T14:49:52.185Z</time></trkpt><trkpt lat="43.7608009" lon="11.4002076"><ele>448.0</ele><time>2026-04-12T14:49:56.184Z</time></trkpt><trkpt lat="43.7607448" lon="11.4001491"><ele>449.0</ele><time>2026-04-12T14:49:59.185Z</time></trkpt><trkpt lat="43.7607638" lon="11.4000389"><ele>450.0</ele><time>2026-04-12T14:50:22.185Z</time></trkpt><trkpt lat="43.7608073" lon="11.3998974"><ele>450.0</ele><time>2026-04-12T14:50:24.185Z</time></trkpt><trkpt lat="43.7608469" lon="11.399815"><ele>450.0</ele><time>2026-04-12T14:50:25.185Z</time></trkpt><trkpt lat="43.7608861" lon="11.399726"><ele>450.0</ele><time>2026-04-12T14:50:26.185Z</time></trkpt><trkpt lat="43.7609253" lon="11.3996215"><ele>450.0</ele><time>2026-04-12T14:50:27.185Z</time></trkpt><trkpt lat="43.7609461" lon="11.3995202"><ele>450.0</ele><time>2026-04-12T14:50:28.184Z</time></trkpt><trkpt lat="43.7609532" lon="11.3994096"><ele>450.0</ele><time>2026-04-12T14:50:29.184Z</time></trkpt><trkpt lat="43.7609816" lon="11.3993185"><ele>451.00000000000006</ele><time>2026-04-12T14:50:30.185Z</time></trkpt><trkpt lat="43.7610079" lon="11.3992248"><ele>452.0</ele><time>2026-04-12T14:50:31.185Z</time></trkpt><trkpt lat="43.7610378" lon="11.3991132"><ele>453.00000000000006</ele><time>2026-04-12T14:50:32.184Z</time></trkpt><trkpt lat="43.7610721" lon="11.3990364"><ele>454.00000000000006</ele><time>2026-04-12T14:50:33.185Z</time></trkpt><trkpt lat="43.7611026" lon="11.3989503"><ele>455.0</ele><time>2026-04-12T14:50:34.185Z</time></trkpt><trkpt lat="43.7611372" lon="11.3988678"><ele>456.00000000000006</ele><time>2026-04-12T14:50:35.185Z</time></trkpt><trkpt lat="43.7611557" lon="11.398764"><ele>457.00000000000006</ele><time>2026-04-12T14:50:36.184Z</time></trkpt><trkpt lat="43.7611699" lon="11.3986587"><ele>459.28571428571433</ele><time>2026-04-12T14:50:37.185Z</time></trkpt><trkpt lat="43.7611804" lon="11.3985519"><ele>461.57142857142856</ele><time>2026-04-12T14:50:38.185Z</time></trkpt><trkpt lat="43.7612036" lon="11.398454"><ele>463.8571428571429</ele><time>2026-04-12T14:50:39.184Z</time></trkpt><trkpt lat="43.761224" lon="11.398349"><ele>466.14285714285717</ele><time>2026-04-12T14:50:40.185Z</time></trkpt><trkpt lat="43.7612596" lon="11.3982741"><ele>468.42857142857144</ele><time>2026-04-12T14:50:41.184Z</time></trkpt><trkpt lat="43.7612688" lon="11.3981688"><ele>470.7142857142857</ele><time>2026-04-12T14:50:42.184Z</time></trkpt><trkpt lat="43.761292" lon="11.3980763"><ele>473.0</ele><time>2026-04-12T14:50:43.184Z</time></trkpt><trkpt lat="43.7613503" lon="11.3979047"><ele>474.99999999999994</ele><time>2026-04-12T14:50:45.184Z</time></trkpt><trkpt lat="43.7613872" lon="11.3977894"><ele>477.0</ele><time>2026-04-12T14:50:46.185Z</time></trkpt><trkpt lat="43.7614151" lon="11.3976755"><ele>479.0</ele><time>2026-04-12T14:50:47.185Z</time></trkpt><trkpt lat="43.761456" lon="11.3975848"><ele>481.0</ele><time>2026-04-12T14:50:48.184Z</time></trkpt><trkpt lat="43.7614979" lon="11.3975032"><ele>482.99999999999994</ele><time>2026-04-12T14:50:49.184Z</time></trkpt><trkpt lat="43.7615265" lon="11.3974199"><ele>485.0</ele><time>2026-04-12T14:50:50.184Z</time></trkpt><trkpt lat="43.7615657" lon="11.397302"><ele>485.0</ele><time>2026-04-12T14:50:52.185Z</time></trkpt><trkpt lat="43.7616387" lon="11.3972575"><ele>485.0</ele><time>2026-04-12T14:50:55.184Z</time></trkpt><trkpt lat="43.7617274" lon="11.3972457"><ele>485.0</ele><time>2026-04-12T14:50:58.185Z</time></trkpt><trkpt lat="43.7618151" lon="11.3972593"><ele>485.0</ele><time>2026-04-12T14:51:00.184Z</time></trkpt><trkpt lat="43.7619207" lon="11.3972579"><ele>485.0</ele><time>2026-04-12T14:51:02.185Z</time></trkpt><trkpt lat="43.7620113" lon="11.3972674"><ele>484.4</ele><time>2026-04-12T14:51:04.185Z</time></trkpt><trkpt lat="43.7620951" lon="11.3973418"><ele>483.8</ele><time>2026-04-12T14:51:06.185Z</time></trkpt><trkpt lat="43.7622009" lon="11.3973298"><ele>483.20000000000005</ele><time>2026-04-12T14:51:08.184Z</time></trkpt><trkpt lat="43.7623179" lon="11.3973102"><ele>482.6</ele><time>2026-04-12T14:51:10.184Z</time></trkpt><trkpt lat="43.762381" lon="11.3973387"><ele>482.0</ele><time>2026-04-12T14:51:11.185Z</time></trkpt><trkpt lat="43.762445" lon="11.3973744"><ele>481.99999999999994</ele><time>2026-04-12T14:51:12.185Z</time></trkpt><trkpt lat="43.7625141" lon="11.3974081"><ele>482.0</ele><time>2026-04-12T14:51:13.185Z</time></trkpt><trkpt lat="43.7625889" lon="11.3974398"><ele>482.0</ele><time>2026-04-12T14:51:14.184Z</time></trkpt><trkpt lat="43.762654" lon="11.3974562"><ele>482.0</ele><time>2026-04-12T14:51:15.185Z</time></trkpt><trkpt lat="43.7627555" lon="11.3974654"><ele>481.99999999999994</ele><time>2026-04-12T14:51:17.184Z</time></trkpt><trkpt lat="43.7628551" lon="11.3974096"><ele>482.0</ele><time>2026-04-12T14:51:19.184Z</time></trkpt><trkpt lat="43.7629473" lon="11.3973621"><ele>481.49999999999994</ele><time>2026-04-12T14:51:21.184Z</time></trkpt><trkpt lat="43.7630466" lon="11.3973293"><ele>481.0</ele><time>2026-04-12T14:51:23.184Z</time></trkpt><trkpt lat="43.7631114" lon="11.3973039"><ele>480.5</ele><time>2026-04-12T14:51:24.184Z</time></trkpt><trkpt lat="43.7631745" lon="11.3972719"><ele>480.0</ele><time>2026-04-12T14:51:25.185Z</time></trkpt><trkpt lat="43.7632204" lon="11.3972121"><ele>479.49999999999994</ele><time>2026-04-12T14:51:26.184Z</time></trkpt><trkpt lat="43.7633085" lon="11.3972013"><ele>479.0</ele><time>2026-04-12T14:51:28.184Z</time></trkpt><trkpt lat="43.7634276" lon="11.3972139"><ele>479.0</ele><time>2026-04-12T14:51:30.184Z</time></trkpt><trkpt lat="43.7635062" lon="11.3972215"><ele>479.0</ele><time>2026-04-12T14:51:31.184Z</time></trkpt><trkpt lat="43.7635692" lon="11.3972145"><ele>479.0</ele><time>2026-04-12T14:51:32.184Z</time></trkpt><trkpt lat="43.7636891" lon="11.3972215"><ele>479.0</ele><time>2026-04-12T14:51:34.184Z</time></trkpt><trkpt lat="43.763801" lon="11.3972626"><ele>479.0</ele><time>2026-04-12T14:51:36.185Z</time></trkpt><trkpt lat="43.7639088" lon="11.3973074"><ele>479.2</ele><time>2026-04-12T14:51:38.185Z</time></trkpt><trkpt lat="43.7639953" lon="11.3973554"><ele>479.4</ele><time>2026-04-12T14:51:40.183Z</time></trkpt><trkpt lat="43.7641068" lon="11.3973723"><ele>479.6</ele><time>2026-04-12T14:51:42.185Z</time></trkpt><trkpt lat="43.7642238" lon="11.3973887"><ele>479.8</ele><time>2026-04-12T14:51:44.184Z</time></trkpt><trkpt lat="43.7643301" lon="11.3974174"><ele>480.0</ele><time>2026-04-12T14:51:46.184Z</time></trkpt><trkpt lat="43.7644246" lon="11.397451"><ele>481.2</ele><time>2026-04-12T14:51:48.185Z</time></trkpt><trkpt lat="43.7645374" lon="11.3974318"><ele>482.4</ele><time>2026-04-12T14:51:50.184Z</time></trkpt><trkpt lat="43.7646434" lon="11.3973967"><ele>483.6</ele><time>2026-04-12T14:51:52.185Z</time></trkpt><trkpt lat="43.7647516" lon="11.3973774"><ele>484.8</ele><time>2026-04-12T14:51:54.185Z</time></trkpt><trkpt lat="43.7648432" lon="11.3973912"><ele>486.0</ele><time>2026-04-12T14:51:56.184Z</time></trkpt><trkpt lat="43.7649337" lon="11.3973545"><ele>486.0</ele><time>2026-04-12T14:51:58.185Z</time></trkpt><trkpt lat="43.7650295" lon="11.3973206"><ele>486.0</ele><time>2026-04-12T14:52:00.185Z</time></trkpt><trkpt lat="43.7651331" lon="11.397287"><ele>486.0</ele><time>2026-04-12T14:52:02.185Z</time></trkpt><trkpt lat="43.7652149" lon="11.3972042"><ele>486.0</ele><time>2026-04-12T14:52:04.184Z</time></trkpt><trkpt lat="43.7653081" lon="11.397138"><ele>486.0</ele><time>2026-04-12T14:52:06.184Z</time></trkpt><trkpt lat="43.7653945" lon="11.3971652"><ele>486.3333333333333</ele><time>2026-04-12T14:52:08.184Z</time></trkpt><trkpt lat="43.7654801" lon="11.3972089"><ele>486.66666666666663</ele><time>2026-04-12T14:52:10.184Z</time></trkpt><trkpt lat="43.7655503" lon="11.3972607"><ele>487.0</ele><time>2026-04-12T14:52:12.184Z</time></trkpt><trkpt lat="43.765643" lon="11.3972987"><ele>487.3333333333333</ele><time>2026-04-12T14:52:14.184Z</time></trkpt><trkpt lat="43.7657045" lon="11.3973368"><ele>487.66666666666663</ele><time>2026-04-12T14:52:16.185Z</time></trkpt><trkpt lat="43.7657679" lon="11.3973709"><ele>488.0</ele><time>2026-04-12T14:52:19.184Z</time></trkpt><trkpt lat="43.765845" lon="11.3973782"><ele>487.99999999999994</ele><time>2026-04-12T14:52:25.185Z</time></trkpt><trkpt lat="43.7659394" lon="11.3973317"><ele>488.0</ele><time>2026-04-12T14:52:27.184Z</time></trkpt><trkpt lat="43.766038" lon="11.3972237"><ele>488.0</ele><time>2026-04-12T14:52:29.184Z</time></trkpt><trkpt lat="43.7660955" lon="11.3971708"><ele>488.0</ele><time>2026-04-12T14:52:30.184Z</time></trkpt><trkpt lat="43.7661612" lon="11.397144"><ele>487.99999999999994</ele><time>2026-04-12T14:52:31.184Z</time></trkpt><trkpt lat="43.7662305" lon="11.3971322"><ele>488.0</ele><time>2026-04-12T14:52:32.184Z</time></trkpt><trkpt lat="43.7663077" lon="11.3971166"><ele>486.16666666666663</ele><time>2026-04-12T14:52:33.185Z</time></trkpt><trkpt lat="43.7663834" lon="11.3971002"><ele>484.3333333333333</ele><time>2026-04-12T14:52:34.185Z</time></trkpt><trkpt lat="43.76646" lon="11.3970717"><ele>482.5</ele><time>2026-04-12T14:52:35.185Z</time></trkpt><trkpt lat="43.7665292" lon="11.3970604"><ele>480.66666666666663</ele><time>2026-04-12T14:52:36.184Z</time></trkpt><trkpt lat="43.7666004" lon="11.3970463"><ele>478.8333333333333</ele><time>2026-04-12T14:52:37.184Z</time></trkpt><trkpt lat="43.7666644" lon="11.3970587"><ele>477.0</ele><time>2026-04-12T14:52:38.184Z</time></trkpt><trkpt lat="43.7667577" lon="11.3970514"><ele>477.0</ele><time>2026-04-12T14:52:40.185Z</time></trkpt><trkpt lat="43.766804" lon="11.3969473"><ele>477.00000000000006</ele><time>2026-04-12T14:52:42.185Z</time></trkpt><trkpt lat="43.7668854" lon="11.3968714"><ele>477.00000000000006</ele><time>2026-04-12T14:52:44.185Z</time></trkpt><trkpt lat="43.7669836" lon="11.3968145"><ele>477.0</ele><time>2026-04-12T14:52:46.184Z</time></trkpt><trkpt lat="43.7670719" lon="11.3966998"><ele>477.0</ele><time>2026-04-12T14:52:48.184Z</time></trkpt><trkpt lat="43.767106" lon="11.3966192"><ele>474.8333333333333</ele><time>2026-04-12T14:52:49.184Z</time></trkpt><trkpt lat="43.7671499" lon="11.3965317"><ele>472.66666666666663</ele><time>2026-04-12T14:52:50.185Z</time></trkpt><trkpt lat="43.7672078" lon="11.3964659"><ele>470.5</ele><time>2026-04-12T14:52:51.184Z</time></trkpt><trkpt lat="43.7672691" lon="11.3963944"><ele>468.3333333333333</ele><time>2026-04-12T14:52:52.185Z</time></trkpt><trkpt lat="43.7673296" lon="11.396329"><ele>466.16666666666663</ele><time>2026-04-12T14:52:53.185Z</time></trkpt><trkpt lat="43.7673837" lon="11.396261"><ele>464.0</ele><time>2026-04-12T14:52:54.184Z</time></trkpt><trkpt lat="43.7674358" lon="11.3961094"><ele>463.99999999999994</ele><time>2026-04-12T14:52:56.183Z</time></trkpt><trkpt lat="43.7674182" lon="11.3959599"><ele>464.0</ele><time>2026-04-12T14:52:58.184Z</time></trkpt><trkpt lat="43.7674486" lon="11.3958733"><ele>464.0</ele><time>2026-04-12T14:53:00.183Z</time></trkpt><trkpt lat="43.7675421" lon="11.3958172"><ele>464.0</ele><time>2026-04-12T14:53:03.184Z</time></trkpt><trkpt lat="43.7675818" lon="11.3957331"><ele>463.99999999999994</ele><time>2026-04-12T14:53:06.183Z</time></trkpt><trkpt lat="43.7675909" lon="11.3956465"><ele>464.0</ele><time>2026-04-12T14:53:20.183Z</time></trkpt><trkpt lat="43.7676141" lon="11.39556"><ele>463.99999999999994</ele><time>2026-04-12T14:53:22.183Z</time></trkpt><trkpt lat="43.7676066" lon="11.3954505"><ele>464.0</ele><time>2026-04-12T14:54:05.183Z</time></trkpt><trkpt lat="43.7675313" lon="11.395394"><ele>464.0</ele><time>2026-04-12T14:54:08.183Z</time></trkpt><trkpt lat="43.7674641" lon="11.3953563"><ele>464.0</ele><time>2026-04-12T14:54:10.183Z</time></trkpt><trkpt lat="43.7673741" lon="11.395394"><ele>463.99999999999994</ele><time>2026-04-12T14:54:12.183Z</time></trkpt><trkpt lat="43.7673041" lon="11.3954806"><ele>464.0</ele><time>2026-04-12T14:54:14.183Z</time></trkpt><trkpt lat="43.7672214" lon="11.395571"><ele>464.0</ele><time>2026-04-12T14:54:16.184Z</time></trkpt><trkpt lat="43.7671365" lon="11.3956563"><ele>464.0</ele><time>2026-04-12T14:54:18.184Z</time></trkpt><trkpt lat="43.767053" lon="11.3957596"><ele>464.0</ele><time>2026-04-12T14:54:20.183Z</time></trkpt><trkpt lat="43.766961" lon="11.3958089"><ele>464.0</ele><time>2026-04-12T14:54:22.183Z</time></trkpt><trkpt lat="43.7668749" lon="11.3957615"><ele>464.0</ele><time>2026-04-12T14:54:24.183Z</time></trkpt><trkpt lat="43.7668017" lon="11.3956968"><ele>464.4</ele><time>2026-04-12T14:54:26.184Z</time></trkpt><trkpt lat="43.7667112" lon="11.3956329"><ele>464.79999999999995</ele><time>2026-04-12T14:54:28.184Z</time></trkpt><trkpt lat="43.7666254" lon="11.3955862"><ele>465.20000000000005</ele><time>2026-04-12T14:54:30.184Z</time></trkpt><trkpt lat="43.7665323" lon="11.395545"><ele>465.6</ele><time>2026-04-12T14:54:32.184Z</time></trkpt><trkpt lat="43.7664714" lon="11.3954932"><ele>466.0</ele><time>2026-04-12T14:54:34.184Z</time></trkpt><trkpt lat="43.7663754" lon="11.3954247"><ele>463.50000000000006</ele><time>2026-04-12T14:54:36.183Z</time></trkpt><trkpt lat="43.7663261" lon="11.3953512"><ele>461.0</ele><time>2026-04-12T14:54:37.183Z</time></trkpt><trkpt lat="43.7662216" lon="11.3952827"><ele>458.5</ele><time>2026-04-12T14:54:39.184Z</time></trkpt><trkpt lat="43.7661802" lon="11.3952148"><ele>456.0</ele><time>2026-04-12T14:54:40.184Z</time></trkpt><trkpt lat="43.7661365" lon="11.3951504"><ele>453.50000000000006</ele><time>2026-04-12T14:54:41.184Z</time></trkpt><trkpt lat="43.7660444" lon="11.3950574"><ele>451.0</ele><time>2026-04-12T14:54:43.184Z</time></trkpt><trkpt lat="43.76596" lon="11.3949795"><ele>450.83333333333337</ele><time>2026-04-12T14:54:45.183Z</time></trkpt><trkpt lat="43.7658979" lon="11.3949484"><ele>450.6666666666667</ele><time>2026-04-12T14:54:46.184Z</time></trkpt><trkpt lat="43.7658138" lon="11.3949045"><ele>450.5</ele><time>2026-04-12T14:54:48.184Z</time></trkpt><trkpt lat="43.7657082" lon="11.3948968"><ele>450.33333333333337</ele><time>2026-04-12T14:54:50.184Z</time></trkpt><trkpt lat="43.7656387" lon="11.3948795"><ele>450.1666666666667</ele><time>2026-04-12T14:54:52.183Z</time></trkpt><trkpt lat="43.7655542" lon="11.3948429"><ele>450.0</ele><time>2026-04-12T14:54:54.184Z</time></trkpt><trkpt lat="43.7654644" lon="11.3947907"><ele>450.0</ele><time>2026-04-12T14:54:56.184Z</time></trkpt><trkpt lat="43.7653617" lon="11.3947436"><ele>450.0</ele><time>2026-04-12T14:54:58.183Z</time></trkpt><trkpt lat="43.7652622" lon="11.3946765"><ele>450.0</ele><time>2026-04-12T14:55:00.183Z</time></trkpt><trkpt lat="43.7652071" lon="11.3946244"><ele>450.0</ele><time>2026-04-12T14:55:01.184Z</time></trkpt><trkpt lat="43.7651511" lon="11.394575"><ele>450.0</ele><time>2026-04-12T14:55:02.184Z</time></trkpt><trkpt lat="43.7650689" lon="11.3944771"><ele>446.6666666666667</ele><time>2026-04-12T14:55:04.183Z</time></trkpt><trkpt lat="43.7650108" lon="11.3943712"><ele>443.33333333333337</ele><time>2026-04-12T14:55:06.184Z</time></trkpt><trkpt lat="43.7649455" lon="11.3943033"><ele>440.0</ele><time>2026-04-12T14:55:08.184Z</time></trkpt><trkpt lat="43.7648815" lon="11.3942534"><ele>436.6666666666667</ele><time>2026-04-12T14:55:10.184Z</time></trkpt><trkpt lat="43.7648023" lon="11.394236"><ele>433.33333333333337</ele><time>2026-04-12T14:55:12.183Z</time></trkpt><trkpt lat="43.7647384" lon="11.3942079"><ele>430.0</ele><time>2026-04-12T14:55:14.183Z</time></trkpt><trkpt lat="43.7646641" lon="11.3941971"><ele>430.0</ele><time>2026-04-12T14:55:16.184Z</time></trkpt><trkpt lat="43.7645785" lon="11.394169"><ele>430.0</ele><time>2026-04-12T14:55:18.184Z</time></trkpt><trkpt lat="43.7644665" lon="11.3941181"><ele>430.0</ele><time>2026-04-12T14:55:20.183Z</time></trkpt><trkpt lat="43.7643958" lon="11.3940884"><ele>430.0</ele><time>2026-04-12T14:55:22.183Z</time></trkpt><trkpt lat="43.7643252" lon="11.3940339"><ele>430.0</ele><time>2026-04-12T14:55:24.184Z</time></trkpt><trkpt lat="43.7642338" lon="11.3939931"><ele>428.83333333333337</ele><time>2026-04-12T14:55:26.184Z</time></trkpt><trkpt lat="43.7641434" lon="11.3939674"><ele>427.6666666666667</ele><time>2026-04-12T14:55:28.183Z</time></trkpt><trkpt lat="43.7640515" lon="11.3939319"><ele>426.5</ele><time>2026-04-12T14:55:31.183Z</time></trkpt><trkpt lat="43.7639797" lon="11.3939169"><ele>425.33333333333337</ele><time>2026-04-12T14:55:33.184Z</time></trkpt><trkpt lat="43.763918" lon="11.3938539"><ele>424.1666666666667</ele><time>2026-04-12T14:55:35.183Z</time></trkpt><trkpt lat="43.7638437" lon="11.3938237"><ele>423.0</ele><time>2026-04-12T14:55:37.183Z</time></trkpt><trkpt lat="43.7637802" lon="11.3938352"><ele>423.0</ele><time>2026-04-12T14:55:38.183Z</time></trkpt><trkpt lat="43.7636525" lon="11.3938394"><ele>423.0</ele><time>2026-04-12T14:55:40.184Z</time></trkpt><trkpt lat="43.763581" lon="11.3938372"><ele>423.0</ele><time>2026-04-12T14:55:41.183Z</time></trkpt><trkpt lat="43.7635024" lon="11.393862"><ele>423.0</ele><time>2026-04-12T14:55:42.183Z</time></trkpt><trkpt lat="43.7634269" lon="11.3938763"><ele>423.0</ele><time>2026-04-12T14:55:43.183Z</time></trkpt><trkpt lat="43.7633792" lon="11.3940016"><ele>422.4</ele><time>2026-04-12T14:55:44.184Z</time></trkpt><trkpt lat="43.763316" lon="11.3941029"><ele>421.79999999999995</ele><time>2026-04-12T14:55:45.183Z</time></trkpt><trkpt lat="43.7632404" lon="11.3941932"><ele>421.2</ele><time>2026-04-12T14:55:46.184Z</time></trkpt><trkpt lat="43.7631536" lon="11.3942791"><ele>420.6</ele><time>2026-04-12T14:55:47.183Z</time></trkpt><trkpt lat="43.7630606" lon="11.3943725"><ele>420.0</ele><time>2026-04-12T14:55:48.184Z</time></trkpt><trkpt lat="43.7629582" lon="11.3944456"><ele>420.0</ele><time>2026-04-12T14:55:49.184Z</time></trkpt><trkpt lat="43.7628533" lon="11.3944927"><ele>420.0</ele><time>2026-04-12T14:55:50.183Z</time></trkpt><trkpt lat="43.7627401" lon="11.3945164"><ele>420.0</ele><time>2026-04-12T14:55:51.184Z</time></trkpt><trkpt lat="43.7626284" lon="11.394525"><ele>420.0</ele><time>2026-04-12T14:55:52.184Z</time></trkpt><trkpt lat="43.7625157" lon="11.3945391"><ele>419.0</ele><time>2026-04-12T14:55:53.184Z</time></trkpt><trkpt lat="43.7624059" lon="11.3945678"><ele>418.0</ele><time>2026-04-12T14:55:54.183Z</time></trkpt><trkpt lat="43.7622891" lon="11.3945941"><ele>417.0</ele><time>2026-04-12T14:55:55.184Z</time></trkpt><trkpt lat="43.762165" lon="11.394646"><ele>416.0</ele><time>2026-04-12T14:55:56.184Z</time></trkpt><trkpt lat="43.7620449" lon="11.394711"><ele>421.25</ele><time>2026-04-12T14:55:57.183Z</time></trkpt><trkpt lat="43.7619265" lon="11.3947424"><ele>426.5</ele><time>2026-04-12T14:55:58.184Z</time></trkpt><trkpt lat="43.7618089" lon="11.3947805"><ele>431.75</ele><time>2026-04-12T14:55:59.184Z</time></trkpt><trkpt lat="43.7616822" lon="11.394831"><ele>437.0</ele><time>2026-04-12T14:56:00.184Z</time></trkpt><trkpt lat="43.7615578" lon="11.3948749"><ele>437.0</ele><time>2026-04-12T14:56:01.184Z</time></trkpt><trkpt lat="43.7614369" lon="11.3949173"><ele>437.0</ele><time>2026-04-12T14:56:02.183Z</time></trkpt><trkpt lat="43.7613222" lon="11.394939"><ele>437.0</ele><time>2026-04-12T14:56:03.183Z</time></trkpt><trkpt lat="43.7612155" lon="11.3949733"><ele>437.0</ele><time>2026-04-12T14:56:04.183Z</time></trkpt><trkpt lat="43.7611054" lon="11.395005"><ele>436.25</ele><time>2026-04-12T14:56:05.183Z</time></trkpt><trkpt lat="43.7609889" lon="11.3950325"><ele>435.5</ele><time>2026-04-12T14:56:06.183Z</time></trkpt><trkpt lat="43.7608671" lon="11.3950459"><ele>434.75</ele><time>2026-04-12T14:56:07.183Z</time></trkpt><trkpt lat="43.7607436" lon="11.3950664"><ele>434.0</ele><time>2026-04-12T14:56:08.183Z</time></trkpt><trkpt lat="43.7606165" lon="11.3950758"><ele>434.0</ele><time>2026-04-12T14:56:09.183Z</time></trkpt><trkpt lat="43.7604868" lon="11.3950872"><ele>434.0</ele><time>2026-04-12T14:56:10.183Z</time></trkpt><trkpt lat="43.7603579" lon="11.3950817"><ele>434.0</ele><time>2026-04-12T14:56:11.184Z</time></trkpt><trkpt lat="43.7602346" lon="11.3950718"><ele>434.0</ele><time>2026-04-12T14:56:12.184Z</time></trkpt><trkpt lat="43.7601176" lon="11.3950298"><ele>433.2</ele><time>2026-04-12T14:56:13.183Z</time></trkpt><trkpt lat="43.7600046" lon="11.3950165"><ele>432.4</ele><time>2026-04-12T14:56:14.184Z</time></trkpt><trkpt lat="43.7598986" lon="11.3950164"><ele>431.6</ele><time>2026-04-12T14:56:15.184Z</time></trkpt><trkpt lat="43.7598016" lon="11.3950137"><ele>430.8</ele><time>2026-04-12T14:56:16.184Z</time></trkpt><trkpt lat="43.7597143" lon="11.3950111"><ele>430.0</ele><time>2026-04-12T14:56:17.184Z</time></trkpt><trkpt lat="43.7596435" lon="11.3950074"><ele>430.0</ele><time>2026-04-12T14:56:18.183Z</time></trkpt><trkpt lat="43.7595494" lon="11.3949999"><ele>430.0</ele><time>2026-04-12T14:56:20.184Z</time></trkpt><trkpt lat="43.7594679" lon="11.3949206"><ele>430.0</ele><time>2026-04-12T14:56:22.184Z</time></trkpt><trkpt lat="43.7593669" lon="11.3948576"><ele>430.0</ele><time>2026-04-12T14:56:24.184Z</time></trkpt><trkpt lat="43.7592746" lon="11.3948119"><ele>430.0</ele><time>2026-04-12T14:56:26.184Z</time></trkpt><trkpt lat="43.7591805" lon="11.3947652"><ele>428.2</ele><time>2026-04-12T14:56:28.183Z</time></trkpt><trkpt lat="43.7590595" lon="11.3947055"><ele>426.4</ele><time>2026-04-12T14:56:30.184Z</time></trkpt><trkpt lat="43.7589845" lon="11.3946638"><ele>424.6</ele><time>2026-04-12T14:56:31.184Z</time></trkpt><trkpt lat="43.758897" lon="11.3946207"><ele>422.8</ele><time>2026-04-12T14:56:32.184Z</time></trkpt><trkpt lat="43.7588094" lon="11.3945737"><ele>421.0</ele><time>2026-04-12T14:56:33.183Z</time></trkpt><trkpt lat="43.7587273" lon="11.3945265"><ele>421.00000000000006</ele><time>2026-04-12T14:56:34.183Z</time></trkpt><trkpt lat="43.758651" lon="11.3944619"><ele>421.0</ele><time>2026-04-12T14:56:35.183Z</time></trkpt><trkpt lat="43.758591" lon="11.3944053"><ele>421.0</ele><time>2026-04-12T14:56:36.184Z</time></trkpt><trkpt lat="43.7585446" lon="11.3942914"><ele>421.0</ele><time>2026-04-12T14:56:38.184Z</time></trkpt><trkpt lat="43.7585114" lon="11.3941733"><ele>421.00000000000006</ele><time>2026-04-12T14:56:40.184Z</time></trkpt><trkpt lat="43.7584536" lon="11.394114"><ele>421.0</ele><time>2026-04-12T14:56:41.184Z</time></trkpt><trkpt lat="43.7583837" lon="11.3940439"><ele>421.0</ele><time>2026-04-12T14:56:42.183Z</time></trkpt><trkpt lat="43.75833" lon="11.3939721"><ele>421.0</ele><time>2026-04-12T14:56:43.183Z</time></trkpt><trkpt lat="43.7582452" lon="11.3938153"><ele>421.0</ele><time>2026-04-12T14:56:44.184Z</time></trkpt><trkpt lat="43.7581475" lon="11.3936952"><ele>421.0</ele><time>2026-04-12T14:56:45.184Z</time></trkpt><trkpt lat="43.7580816" lon="11.3935815"><ele>420.0</ele><time>2026-04-12T14:56:46.184Z</time></trkpt><trkpt lat="43.7580136" lon="11.3934697"><ele>419.0</ele><time>2026-04-12T14:56:47.184Z</time></trkpt><trkpt lat="43.75797" lon="11.393363"><ele>418.0</ele><time>2026-04-12T14:56:48.183Z</time></trkpt><trkpt lat="43.7579224" lon="11.3932602"><ele>417.0</ele><time>2026-04-12T14:56:49.184Z</time></trkpt><trkpt lat="43.757877" lon="11.3931576"><ele>416.0</ele><time>2026-04-12T14:56:50.183Z</time></trkpt><trkpt lat="43.7578355" lon="11.3930536"><ele>414.8</ele><time>2026-04-12T14:56:51.182Z</time></trkpt><trkpt lat="43.7578341" lon="11.3929123"><ele>413.6</ele><time>2026-04-12T14:56:52.183Z</time></trkpt><trkpt lat="43.7578257" lon="11.3927854"><ele>412.4</ele><time>2026-04-12T14:56:53.184Z</time></trkpt><trkpt lat="43.7578223" lon="11.3926594"><ele>411.2</ele><time>2026-04-12T14:56:54.184Z</time></trkpt><trkpt lat="43.7578606" lon="11.3925476"><ele>410.0</ele><time>2026-04-12T14:56:55.184Z</time></trkpt><trkpt lat="43.7579076" lon="11.3924448"><ele>410.0</ele><time>2026-04-12T14:56:56.184Z</time></trkpt><trkpt lat="43.7579696" lon="11.3923505"><ele>410.0</ele><time>2026-04-12T14:56:57.184Z</time></trkpt><trkpt lat="43.7580362" lon="11.3922575"><ele>410.0</ele><time>2026-04-12T14:56:58.183Z</time></trkpt><trkpt lat="43.7580247" lon="11.3921312"><ele>410.0</ele><time>2026-04-12T14:56:59.183Z</time></trkpt><trkpt lat="43.7580421" lon="11.3920097"><ele>410.0</ele><time>2026-04-12T14:57:00.184Z</time></trkpt><trkpt lat="43.7580616" lon="11.3918741"><ele>410.2</ele><time>2026-04-12T14:57:01.183Z</time></trkpt><trkpt lat="43.7580766" lon="11.3917308"><ele>410.4</ele><time>2026-04-12T14:57:02.184Z</time></trkpt><trkpt lat="43.7580898" lon="11.3915801"><ele>410.6</ele><time>2026-04-12T14:57:03.184Z</time></trkpt><trkpt lat="43.7580884" lon="11.3914239"><ele>410.8</ele><time>2026-04-12T14:57:04.184Z</time></trkpt><trkpt lat="43.7580561" lon="11.3912896"><ele>411.0</ele><time>2026-04-12T14:57:05.184Z</time></trkpt><trkpt lat="43.7580135" lon="11.391173"><ele>411.0</ele><time>2026-04-12T14:57:06.184Z</time></trkpt><trkpt lat="43.7579674" lon="11.3910509"><ele>411.0</ele><time>2026-04-12T14:57:07.183Z</time></trkpt><trkpt lat="43.7579145" lon="11.3909298"><ele>411.0</ele><time>2026-04-12T14:57:08.184Z</time></trkpt><trkpt lat="43.7578636" lon="11.3908053"><ele>411.0</ele><time>2026-04-12T14:57:09.183Z</time></trkpt><trkpt lat="43.7578046" lon="11.3906815"><ele>411.0</ele><time>2026-04-12T14:57:10.184Z</time></trkpt><trkpt lat="43.7577408" lon="11.3905486"><ele>410.75</ele><time>2026-04-12T14:57:11.183Z</time></trkpt><trkpt lat="43.7577082" lon="11.3903897"><ele>410.5</ele><time>2026-04-12T14:57:12.184Z</time></trkpt><trkpt lat="43.7576752" lon="11.3902301"><ele>410.25</ele><time>2026-04-12T14:57:13.184Z</time></trkpt><trkpt lat="43.7576376" lon="11.3900772"><ele>410.0</ele><time>2026-04-12T14:57:14.184Z</time></trkpt><trkpt lat="43.7576002" lon="11.3899233"><ele>410.0</ele><time>2026-04-12T14:57:15.184Z</time></trkpt><trkpt lat="43.7575654" lon="11.3897692"><ele>410.0</ele><time>2026-04-12T14:57:16.183Z</time></trkpt><trkpt lat="43.757533" lon="11.3896094"><ele>410.0</ele><time>2026-04-12T14:57:17.184Z</time></trkpt><trkpt lat="43.7574961" lon="11.3894437"><ele>410.0</ele><time>2026-04-12T14:57:18.184Z</time></trkpt><trkpt lat="43.7574593" lon="11.3892741"><ele>409.75</ele><time>2026-04-12T14:57:19.183Z</time></trkpt><trkpt lat="43.757426" lon="11.3891035"><ele>409.5</ele><time>2026-04-12T14:57:20.183Z</time></trkpt><trkpt lat="43.7573918" lon="11.388937"><ele>409.25</ele><time>2026-04-12T14:57:21.183Z</time></trkpt><trkpt lat="43.7573568" lon="11.3887698"><ele>409.0</ele><time>2026-04-12T14:57:22.183Z</time></trkpt><trkpt lat="43.7573184" lon="11.388609"><ele>409.0</ele><time>2026-04-12T14:57:23.184Z</time></trkpt><trkpt lat="43.7572853" lon="11.3884527"><ele>409.0</ele><time>2026-04-12T14:57:24.184Z</time></trkpt><trkpt lat="43.757251" lon="11.3882994"><ele>409.0</ele><time>2026-04-12T14:57:25.184Z</time></trkpt><trkpt lat="43.7572195" lon="11.3881518"><ele>409.0</ele><time>2026-04-12T14:57:26.184Z</time></trkpt><trkpt lat="43.7571872" lon="11.388013"><ele>408.0</ele><time>2026-04-12T14:57:27.183Z</time></trkpt><trkpt lat="43.7571551" lon="11.3878775"><ele>407.0</ele><time>2026-04-12T14:57:28.183Z</time></trkpt><trkpt lat="43.7571298" lon="11.3877425"><ele>406.0</ele><time>2026-04-12T14:57:29.183Z</time></trkpt><trkpt lat="43.7571007" lon="11.3876166"><ele>405.0</ele><time>2026-04-12T14:57:30.184Z</time></trkpt><trkpt lat="43.7570768" lon="11.3874993"><ele>404.0</ele><time>2026-04-12T14:57:31.184Z</time></trkpt><trkpt lat="43.7570642" lon="11.387404"><ele>403.99999999999994</ele><time>2026-04-12T14:57:32.184Z</time></trkpt><trkpt lat="43.7570313" lon="11.3872668"><ele>404.0</ele><time>2026-04-12T14:57:34.184Z</time></trkpt><trkpt lat="43.7570131" lon="11.3871828"><ele>404.0</ele><time>2026-04-12T14:57:37.183Z</time></trkpt><trkpt lat="43.7569545" lon="11.3871024"><ele>404.0</ele><time>2026-04-12T14:58:02.184Z</time></trkpt><trkpt lat="43.7569116" lon="11.3869931"><ele>403.99999999999994</ele><time>2026-04-12T14:58:03.184Z</time></trkpt><trkpt lat="43.7568861" lon="11.3869061"><ele>404.0</ele><time>2026-04-12T14:58:04.184Z</time></trkpt><trkpt lat="43.7568419" lon="11.386807"><ele>406.0</ele><time>2026-04-12T14:58:05.183Z</time></trkpt><trkpt lat="43.756772" lon="11.3867061"><ele>408.0</ele><time>2026-04-12T14:58:06.183Z</time></trkpt><trkpt lat="43.756701" lon="11.3865998"><ele>410.0</ele><time>2026-04-12T14:58:07.183Z</time></trkpt><trkpt lat="43.7566095" lon="11.3865012"><ele>412.0</ele><time>2026-04-12T14:58:08.184Z</time></trkpt><trkpt lat="43.7565334" lon="11.3864164"><ele>414.0</ele><time>2026-04-12T14:58:09.183Z</time></trkpt><trkpt lat="43.7564804" lon="11.3863388"><ele>415.5</ele><time>2026-04-12T14:58:10.184Z</time></trkpt><trkpt lat="43.7564275" lon="11.3862889"><ele>417.0</ele><time>2026-04-12T14:58:11.183Z</time></trkpt><trkpt lat="43.7563766" lon="11.3861846"><ele>418.5</ele><time>2026-04-12T14:58:12.184Z</time></trkpt><trkpt lat="43.7563129" lon="11.3861421"><ele>420.0</ele><time>2026-04-12T14:58:13.184Z</time></trkpt><trkpt lat="43.756291" lon="11.3860386"><ele>421.5</ele><time>2026-04-12T14:58:14.184Z</time></trkpt><trkpt lat="43.7561884" lon="11.3859414"><ele>423.0</ele><time>2026-04-12T14:58:16.183Z</time></trkpt><trkpt lat="43.7560699" lon="11.3859009"><ele>423.2</ele><time>2026-04-12T14:58:18.183Z</time></trkpt><trkpt lat="43.7559938" lon="11.3858742"><ele>423.4</ele><time>2026-04-12T14:58:19.184Z</time></trkpt><trkpt lat="43.7558658" lon="11.3858064"><ele>423.59999999999997</ele><time>2026-04-12T14:58:21.183Z</time></trkpt><trkpt lat="43.7557769" lon="11.3857746"><ele>423.79999999999995</ele><time>2026-04-12T14:58:22.183Z</time></trkpt><trkpt lat="43.7556896" lon="11.3857567"><ele>424.0</ele><time>2026-04-12T14:58:23.184Z</time></trkpt><trkpt lat="43.7556127" lon="11.3857398"><ele>424.00000000000006</ele><time>2026-04-12T14:58:24.184Z</time></trkpt><trkpt lat="43.7555393" lon="11.3857256"><ele>424.0</ele><time>2026-04-12T14:58:25.184Z</time></trkpt><trkpt lat="43.7554751" lon="11.3857242"><ele>424.0</ele><time>2026-04-12T14:58:26.183Z</time></trkpt><trkpt lat="43.7554048" lon="11.3857183"><ele>424.0</ele><time>2026-04-12T14:58:27.183Z</time></trkpt><trkpt lat="43.7553235" lon="11.3857165"><ele>424.00000000000006</ele><time>2026-04-12T14:58:28.184Z</time></trkpt><trkpt lat="43.7552468" lon="11.3857116"><ele>424.0</ele><time>2026-04-12T14:58:29.184Z</time></trkpt><trkpt lat="43.7551257" lon="11.3856525"><ele>427.00000000000006</ele><time>2026-04-12T14:58:31.183Z</time></trkpt><trkpt lat="43.7550416" lon="11.3855338"><ele>430.0</ele><time>2026-04-12T14:58:33.183Z</time></trkpt><trkpt lat="43.7549748" lon="11.3854759"><ele>433.0</ele><time>2026-04-12T14:58:34.183Z</time></trkpt><trkpt lat="43.7549107" lon="11.3854066"><ele>436.0</ele><time>2026-04-12T14:58:35.184Z</time></trkpt><trkpt lat="43.7548612" lon="11.3853361"><ele>439.00000000000006</ele><time>2026-04-12T14:58:36.183Z</time></trkpt><trkpt lat="43.7548019" lon="11.3852938"><ele>442.0</ele><time>2026-04-12T14:58:37.184Z</time></trkpt><trkpt lat="43.7547206" lon="11.3853351"><ele>442.20000000000005</ele><time>2026-04-12T14:58:39.183Z</time></trkpt><trkpt lat="43.7546377" lon="11.3853816"><ele>442.40000000000003</ele><time>2026-04-12T14:58:41.184Z</time></trkpt><trkpt lat="43.754533" lon="11.385371"><ele>442.59999999999997</ele><time>2026-04-12T14:58:43.183Z</time></trkpt><trkpt lat="43.7544489" lon="11.3853599"><ele>442.79999999999995</ele><time>2026-04-12T14:58:45.184Z</time></trkpt><trkpt lat="43.7543593" lon="11.3853416"><ele>443.0</ele><time>2026-04-12T14:58:47.184Z</time></trkpt><trkpt lat="43.7542692" lon="11.3852797"><ele>445.75</ele><time>2026-04-12T14:58:49.183Z</time></trkpt><trkpt lat="43.7542109" lon="11.3851457"><ele>448.5</ele><time>2026-04-12T14:58:51.184Z</time></trkpt><trkpt lat="43.754179" lon="11.3849987"><ele>451.25</ele><time>2026-04-12T14:58:53.184Z</time></trkpt><trkpt lat="43.7541902" lon="11.3848489"><ele>454.0</ele><time>2026-04-12T14:58:55.183Z</time></trkpt><trkpt lat="43.7542261" lon="11.3846934"><ele>454.1666666666667</ele><time>2026-04-12T14:58:57.183Z</time></trkpt><trkpt lat="43.7542527" lon="11.3845716"><ele>454.33333333333337</ele><time>2026-04-12T14:58:59.183Z</time></trkpt><trkpt lat="43.754287" lon="11.3844302"><ele>454.5</ele><time>2026-04-12T14:59:01.184Z</time></trkpt><trkpt lat="43.7543299" lon="11.3843528"><ele>454.66666666666663</ele><time>2026-04-12T14:59:02.183Z</time></trkpt><trkpt lat="43.7543816" lon="11.3842658"><ele>454.8333333333333</ele><time>2026-04-12T14:59:03.183Z</time></trkpt><trkpt lat="43.754444" lon="11.3841641"><ele>455.0</ele><time>2026-04-12T14:59:04.184Z</time></trkpt><trkpt lat="43.7544911" lon="11.384027"><ele>455.0</ele><time>2026-04-12T14:59:05.184Z</time></trkpt><trkpt lat="43.7545026" lon="11.3838973"><ele>455.0</ele><time>2026-04-12T14:59:06.183Z</time></trkpt><trkpt lat="43.7544876" lon="11.3838053"><ele>455.0</ele><time>2026-04-12T14:59:07.184Z</time></trkpt><trkpt lat="43.7544708" lon="11.3836368"><ele>455.0</ele><time>2026-04-12T14:59:09.184Z</time></trkpt><trkpt lat="43.7544541" lon="11.3835433"><ele>455.0</ele><time>2026-04-12T14:59:10.184Z</time></trkpt><trkpt lat="43.7544412" lon="11.3833682"><ele>457.8333333333333</ele><time>2026-04-12T14:59:12.184Z</time></trkpt><trkpt lat="43.7544372" lon="11.3832312"><ele>460.66666666666663</ele><time>2026-04-12T14:59:14.183Z</time></trkpt><trkpt lat="43.754429" lon="11.3831128"><ele>463.5</ele><time>2026-04-12T14:59:16.183Z</time></trkpt><trkpt lat="43.7544138" lon="11.382991"><ele>466.33333333333337</ele><time>2026-04-12T14:59:18.184Z</time></trkpt><trkpt lat="43.7543806" lon="11.3829033"><ele>469.1666666666667</ele><time>2026-04-12T14:59:19.184Z</time></trkpt><trkpt lat="43.7543435" lon="11.3828226"><ele>472.0</ele><time>2026-04-12T14:59:20.183Z</time></trkpt><trkpt lat="43.7543101" lon="11.3827058"><ele>474.8</ele><time>2026-04-12T14:59:22.183Z</time></trkpt><trkpt lat="43.7543083" lon="11.3826126"><ele>477.6</ele><time>2026-04-12T14:59:24.184Z</time></trkpt><trkpt lat="43.7543092" lon="11.3824561"><ele>480.40000000000003</ele><time>2026-04-12T14:59:26.183Z</time></trkpt><trkpt lat="43.7542927" lon="11.3822949"><ele>483.20000000000005</ele><time>2026-04-12T14:59:28.184Z</time></trkpt><trkpt lat="43.7542933" lon="11.382141"><ele>486.0</ele><time>2026-04-12T14:59:30.183Z</time></trkpt><trkpt lat="43.7542744" lon="11.3820334"><ele>489.4</ele><time>2026-04-12T14:59:32.184Z</time></trkpt><trkpt lat="43.7542698" lon="11.3819029"><ele>492.8</ele><time>2026-04-12T14:59:34.184Z</time></trkpt><trkpt lat="43.75425" lon="11.3817586"><ele>496.19999999999993</ele><time>2026-04-12T14:59:36.183Z</time></trkpt><trkpt lat="43.7542193" lon="11.381637"><ele>499.59999999999997</ele><time>2026-04-12T14:59:38.184Z</time></trkpt><trkpt lat="43.7541738" lon="11.3815065"><ele>503.0</ele><time>2026-04-12T14:59:41.127Z</time></trkpt><trkpt lat="43.754139" lon="11.3814151"><ele>505.59999999999997</ele><time>2026-04-12T14:59:43.183Z</time></trkpt><trkpt lat="43.7541207" lon="11.3813083"><ele>508.19999999999993</ele><time>2026-04-12T14:59:46.183Z</time></trkpt><trkpt lat="43.75408" lon="11.3811933"><ele>510.8</ele><time>2026-04-12T14:59:48.184Z</time></trkpt><trkpt lat="43.754023" lon="11.3810744"><ele>513.4</ele><time>2026-04-12T14:59:50.183Z</time></trkpt><trkpt lat="43.7539715" lon="11.3809312"><ele>516.0</ele><time>2026-04-12T14:59:52.184Z</time></trkpt><trkpt lat="43.7539098" lon="11.3808078"><ele>516.0</ele><time>2026-04-12T14:59:54.183Z</time></trkpt><trkpt lat="43.7538713" lon="11.3806581"><ele>516.0</ele><time>2026-04-12T14:59:56.183Z</time></trkpt><trkpt lat="43.7538237" lon="11.3805142"><ele>516.0</ele><time>2026-04-12T14:59:58.184Z</time></trkpt><trkpt lat="43.7537738" lon="11.3803814"><ele>516.0</ele><time>2026-04-12T15:00:00.184Z</time></trkpt><trkpt lat="43.7537569" lon="11.3802634"><ele>516.0</ele><time>2026-04-12T15:00:02.183Z</time></trkpt><trkpt lat="43.7537103" lon="11.3801618"><ele>517.6666666666666</ele><time>2026-04-12T15:00:04.184Z</time></trkpt><trkpt lat="43.7536554" lon="11.3800746"><ele>519.3333333333334</ele><time>2026-04-12T15:00:06.184Z</time></trkpt><trkpt lat="43.7536024" lon="11.3799797"><ele>521.0</ele><time>2026-04-12T15:00:08.184Z</time></trkpt><trkpt lat="43.7535533" lon="11.3799245"><ele>522.6666666666667</ele><time>2026-04-12T15:00:09.184Z</time></trkpt><trkpt lat="43.7534947" lon="11.3798693"><ele>524.3333333333334</ele><time>2026-04-12T15:00:10.184Z</time></trkpt><trkpt lat="43.7534086" lon="11.3797635"><ele>526.0</ele><time>2026-04-12T15:00:12.184Z</time></trkpt><trkpt lat="43.7534144" lon="11.3796657"><ele>525.8</ele><time>2026-04-12T15:00:15.183Z</time></trkpt><trkpt lat="43.7534915" lon="11.3796242"><ele>525.6</ele><time>2026-04-12T15:00:38.183Z</time></trkpt><trkpt lat="43.7535608" lon="11.3796191"><ele>525.4</ele><time>2026-04-12T15:00:40.183Z</time></trkpt><trkpt lat="43.753652" lon="11.3796103"><ele>525.2</ele><time>2026-04-12T15:00:42.184Z</time></trkpt><trkpt lat="43.7537892" lon="11.3796359"><ele>525.0</ele><time>2026-04-12T15:00:44.183Z</time></trkpt><trkpt lat="43.7539098" lon="11.379635"><ele>525.0</ele><time>2026-04-12T15:00:46.183Z</time></trkpt><trkpt lat="43.753967" lon="11.3795226"><ele>525.0</ele><time>2026-04-12T15:00:48.184Z</time></trkpt><trkpt lat="43.7539632" lon="11.3793781"><ele>525.0</ele><time>2026-04-12T15:00:50.184Z</time></trkpt><trkpt lat="43.7538635" lon="11.3792359"><ele>525.0</ele><time>2026-04-12T15:00:52.184Z</time></trkpt><trkpt lat="43.7537918" lon="11.3791313"><ele>525.0</ele><time>2026-04-12T15:00:53.184Z</time></trkpt><trkpt lat="43.753684" lon="11.3789948"><ele>525.0</ele><time>2026-04-12T15:00:54.183Z</time></trkpt><trkpt lat="43.7535688" lon="11.3788271"><ele>525.0</ele><time>2026-04-12T15:00:55.183Z</time></trkpt><trkpt lat="43.7534576" lon="11.3786507"><ele>531.0</ele><time>2026-04-12T15:00:56.184Z</time></trkpt><trkpt lat="43.7533317" lon="11.378475"><ele>537.0</ele><time>2026-04-12T15:00:57.183Z</time></trkpt><trkpt lat="43.7532137" lon="11.3783223"><ele>543.0</ele><time>2026-04-12T15:00:58.184Z</time></trkpt><trkpt lat="43.7531045" lon="11.3781688"><ele>543.0</ele><time>2026-04-12T15:00:59.184Z</time></trkpt><trkpt lat="43.7530101" lon="11.3780347"><ele>543.0</ele><time>2026-04-12T15:01:00.183Z</time></trkpt><trkpt lat="43.7529044" lon="11.3778926"><ele>543.0</ele><time>2026-04-12T15:01:01.183Z</time></trkpt><trkpt lat="43.752793" lon="11.3777443"><ele>543.0</ele><time>2026-04-12T15:01:02.184Z</time></trkpt><trkpt lat="43.7526927" lon="11.3776089"><ele>544.0</ele><time>2026-04-12T15:01:03.183Z</time></trkpt><trkpt lat="43.752597" lon="11.3774799"><ele>545.0</ele><time>2026-04-12T15:01:04.184Z</time></trkpt><trkpt lat="43.7524973" lon="11.3773441"><ele>546.0</ele><time>2026-04-12T15:01:05.183Z</time></trkpt><trkpt lat="43.7523971" lon="11.3772036"><ele>547.0</ele><time>2026-04-12T15:01:06.182Z</time></trkpt><trkpt lat="43.7523002" lon="11.3770609"><ele>543.0</ele><time>2026-04-12T15:01:07.184Z</time></trkpt><trkpt lat="43.7522024" lon="11.3769146"><ele>539.0</ele><time>2026-04-12T15:01:08.184Z</time></trkpt><trkpt lat="43.7520963" lon="11.3768017"><ele>535.0</ele><time>2026-04-12T15:01:09.183Z</time></trkpt><trkpt lat="43.7520043" lon="11.3766815"><ele>531.0</ele><time>2026-04-12T15:01:10.183Z</time></trkpt><trkpt lat="43.7518939" lon="11.3765663"><ele>533.0</ele><time>2026-04-12T15:01:11.184Z</time></trkpt><trkpt lat="43.7518242" lon="11.3764465"><ele>535.0</ele><time>2026-04-12T15:01:12.184Z</time></trkpt><trkpt lat="43.7517761" lon="11.3763587"><ele>537.0</ele><time>2026-04-12T15:01:13.183Z</time></trkpt><trkpt lat="43.751732" lon="11.3762707"><ele>539.0</ele><time>2026-04-12T15:01:14.182Z</time></trkpt><trkpt lat="43.7517236" lon="11.3761328"><ele>541.0</ele><time>2026-04-12T15:01:16.182Z</time></trkpt><trkpt lat="43.7517399" lon="11.3759735"><ele>541.0</ele><time>2026-04-12T15:01:18.182Z</time></trkpt><trkpt lat="43.7517725" lon="11.3758365"><ele>541.0</ele><time>2026-04-12T15:01:20.182Z</time></trkpt><trkpt lat="43.7517913" lon="11.3757235"><ele>541.0</ele><time>2026-04-12T15:01:22.183Z</time></trkpt><trkpt lat="43.7518006" lon="11.375607"><ele>541.0</ele><time>2026-04-12T15:01:24.183Z</time></trkpt><trkpt lat="43.7518088" lon="11.3754881"><ele>541.0</ele><time>2026-04-12T15:01:26.183Z</time></trkpt><trkpt lat="43.7518116" lon="11.3753913"><ele>541.0</ele><time>2026-04-12T15:01:28.183Z</time></trkpt><trkpt lat="43.7518167" lon="11.375265"><ele>539.3333333333334</ele><time>2026-04-12T15:01:31.182Z</time></trkpt><trkpt lat="43.7517996" lon="11.3751449"><ele>537.6666666666667</ele><time>2026-04-12T15:01:34.182Z</time></trkpt><trkpt lat="43.7517803" lon="11.3750555"><ele>536.0</ele><time>2026-04-12T15:01:36.183Z</time></trkpt><trkpt lat="43.7517569" lon="11.3749528"><ele>534.3333333333334</ele><time>2026-04-12T15:01:38.183Z</time></trkpt><trkpt lat="43.7517283" lon="11.3748726"><ele>532.6666666666666</ele><time>2026-04-12T15:01:40.182Z</time></trkpt><trkpt lat="43.7516749" lon="11.3747696"><ele>531.0</ele><time>2026-04-12T15:01:42.182Z</time></trkpt><trkpt lat="43.7516184" lon="11.3746652"><ele>528.6666666666666</ele><time>2026-04-12T15:01:44.182Z</time></trkpt><trkpt lat="43.7515525" lon="11.3745554"><ele>526.3333333333334</ele><time>2026-04-12T15:01:46.182Z</time></trkpt><trkpt lat="43.751516" lon="11.3744829"><ele>524.0</ele><time>2026-04-12T15:01:47.182Z</time></trkpt><trkpt lat="43.7514767" lon="11.3743985"><ele>521.6666666666667</ele><time>2026-04-12T15:01:48.182Z</time></trkpt><trkpt lat="43.7514212" lon="11.374297"><ele>519.3333333333334</ele><time>2026-04-12T15:01:49.182Z</time></trkpt><trkpt lat="43.7513603" lon="11.3741951"><ele>517.0</ele><time>2026-04-12T15:01:50.183Z</time></trkpt><trkpt lat="43.7512924" lon="11.3740976"><ele>517.0</ele><time>2026-04-12T15:01:51.182Z</time></trkpt><trkpt lat="43.7512164" lon="11.3740123"><ele>517.0</ele><time>2026-04-12T15:01:52.182Z</time></trkpt><trkpt lat="43.751135" lon="11.3739316"><ele>517.0</ele><time>2026-04-12T15:01:53.183Z</time></trkpt><trkpt lat="43.7510464" lon="11.3738618"><ele>517.0</ele><time>2026-04-12T15:01:54.182Z</time></trkpt><trkpt lat="43.7509605" lon="11.3738313"><ele>517.0</ele><time>2026-04-12T15:01:55.182Z</time></trkpt><trkpt lat="43.7508775" lon="11.3738122"><ele>514.8333333333334</ele><time>2026-04-12T15:01:56.182Z</time></trkpt><trkpt lat="43.7507979" lon="11.3738014"><ele>512.6666666666667</ele><time>2026-04-12T15:01:57.183Z</time></trkpt><trkpt lat="43.7507198" lon="11.3737928"><ele>510.5</ele><time>2026-04-12T15:01:58.182Z</time></trkpt><trkpt lat="43.7506484" lon="11.3737719"><ele>508.33333333333337</ele><time>2026-04-12T15:01:59.182Z</time></trkpt><trkpt lat="43.7505837" lon="11.3737456"><ele>506.1666666666667</ele><time>2026-04-12T15:02:00.183Z</time></trkpt><trkpt lat="43.7505047" lon="11.3737558"><ele>504.0</ele><time>2026-04-12T15:02:01.182Z</time></trkpt><trkpt lat="43.7504189" lon="11.3737825"><ele>504.0</ele><time>2026-04-12T15:02:02.183Z</time></trkpt><trkpt lat="43.750317" lon="11.373817"><ele>504.0</ele><time>2026-04-12T15:02:03.182Z</time></trkpt><trkpt lat="43.7502148" lon="11.3738654"><ele>504.0</ele><time>2026-04-12T15:02:04.183Z</time></trkpt><trkpt lat="43.750131" lon="11.3739203"><ele>504.0</ele><time>2026-04-12T15:02:05.183Z</time></trkpt><trkpt lat="43.750064" lon="11.3739788"><ele>504.0</ele><time>2026-04-12T15:02:06.182Z</time></trkpt><trkpt lat="43.7499991" lon="11.3740431"><ele>504.0</ele><time>2026-04-12T15:02:07.182Z</time></trkpt><trkpt lat="43.7499451" lon="11.3741159"><ele>504.0</ele><time>2026-04-12T15:02:08.182Z</time></trkpt><trkpt lat="43.7499096" lon="11.374213"><ele>504.0</ele><time>2026-04-12T15:02:09.182Z</time></trkpt><trkpt lat="43.7498915" lon="11.3743351"><ele>504.0</ele><time>2026-04-12T15:02:10.182Z</time></trkpt><trkpt lat="43.7498834" lon="11.3744781"><ele>504.0</ele><time>2026-04-12T15:02:11.183Z</time></trkpt><trkpt lat="43.7498779" lon="11.3746271"><ele>505.3333333333333</ele><time>2026-04-12T15:02:12.183Z</time></trkpt><trkpt lat="43.7498768" lon="11.3747644"><ele>506.66666666666663</ele><time>2026-04-12T15:02:13.183Z</time></trkpt><trkpt lat="43.7498741" lon="11.3748729"><ele>508.0</ele><time>2026-04-12T15:02:14.183Z</time></trkpt><trkpt lat="43.7498494" lon="11.3749716"><ele>509.3333333333333</ele><time>2026-04-12T15:02:15.183Z</time></trkpt><trkpt lat="43.7497891" lon="11.3750603"><ele>510.66666666666663</ele><time>2026-04-12T15:02:16.182Z</time></trkpt><trkpt lat="43.7497048" lon="11.3751528"><ele>512.0</ele><time>2026-04-12T15:02:17.182Z</time></trkpt><trkpt lat="43.7496059" lon="11.3752549"><ele>512.0</ele><time>2026-04-12T15:02:18.182Z</time></trkpt><trkpt lat="43.7495129" lon="11.3753511"><ele>512.0</ele><time>2026-04-12T15:02:19.182Z</time></trkpt><trkpt lat="43.7494405" lon="11.3754317"><ele>512.0</ele><time>2026-04-12T15:02:20.182Z</time></trkpt><trkpt lat="43.7493938" lon="11.3754908"><ele>512.0</ele><time>2026-04-12T15:02:21.183Z</time></trkpt><trkpt lat="43.7493432" lon="11.3756008"><ele>512.0</ele><time>2026-04-12T15:02:23.182Z</time></trkpt><trkpt lat="43.7492834" lon="11.375735"><ele>508.66666666666663</ele><time>2026-04-12T15:02:25.182Z</time></trkpt><trkpt lat="43.7492594" lon="11.3758271"><ele>505.3333333333333</ele><time>2026-04-12T15:02:26.183Z</time></trkpt><trkpt lat="43.7492314" lon="11.3759338"><ele>502.0</ele><time>2026-04-12T15:02:27.183Z</time></trkpt><trkpt lat="43.7492038" lon="11.3760366"><ele>498.66666666666663</ele><time>2026-04-12T15:02:28.183Z</time></trkpt><trkpt lat="43.7491753" lon="11.3761426"><ele>495.3333333333333</ele><time>2026-04-12T15:02:29.183Z</time></trkpt><trkpt lat="43.7491577" lon="11.376243"><ele>492.0</ele><time>2026-04-12T15:02:30.183Z</time></trkpt><trkpt lat="43.7491558" lon="11.3763476"><ele>492.3333333333333</ele><time>2026-04-12T15:02:31.183Z</time></trkpt><trkpt lat="43.749158" lon="11.3764703"><ele>492.66666666666663</ele><time>2026-04-12T15:02:32.182Z</time></trkpt><trkpt lat="43.7491576" lon="11.376577"><ele>493.0</ele><time>2026-04-12T15:02:33.182Z</time></trkpt><trkpt lat="43.749161" lon="11.3766764"><ele>493.3333333333333</ele><time>2026-04-12T15:02:34.183Z</time></trkpt><trkpt lat="43.7491685" lon="11.3767948"><ele>493.66666666666663</ele><time>2026-04-12T15:02:36.182Z</time></trkpt><trkpt lat="43.7491783" lon="11.3768896"><ele>494.0</ele><time>2026-04-12T15:02:38.182Z</time></trkpt><trkpt lat="43.7491949" lon="11.3769745"><ele>493.99999999999994</ele><time>2026-04-12T15:02:40.182Z</time></trkpt><trkpt lat="43.7492323" lon="11.3771022"><ele>494.0</ele><time>2026-04-12T15:02:42.182Z</time></trkpt><trkpt lat="43.7492736" lon="11.377265"><ele>494.0</ele><time>2026-04-12T15:02:44.183Z</time></trkpt><trkpt lat="43.7492622" lon="11.3773549"><ele>494.0</ele><time>2026-04-12T15:02:45.183Z</time></trkpt><trkpt lat="43.7492706" lon="11.3774415"><ele>493.99999999999994</ele><time>2026-04-12T15:02:46.182Z</time></trkpt><trkpt lat="43.7492323" lon="11.3775541"><ele>494.0</ele><time>2026-04-12T15:02:47.182Z</time></trkpt><trkpt lat="43.749214" lon="11.3776489"><ele>492.99999999999994</ele><time>2026-04-12T15:02:48.183Z</time></trkpt><trkpt lat="43.7491978" lon="11.3777402"><ele>492.0</ele><time>2026-04-12T15:02:49.181Z</time></trkpt><trkpt lat="43.7491578" lon="11.3778505"><ele>491.0</ele><time>2026-04-12T15:02:50.183Z</time></trkpt><trkpt lat="43.7491202" lon="11.3779485"><ele>490.0</ele><time>2026-04-12T15:02:51.182Z</time></trkpt><trkpt lat="43.7490897" lon="11.3780404"><ele>488.99999999999994</ele><time>2026-04-12T15:02:52.183Z</time></trkpt><trkpt lat="43.7490577" lon="11.3781425"><ele>488.0</ele><time>2026-04-12T15:02:53.182Z</time></trkpt><trkpt lat="43.7490541" lon="11.3782554"><ele>487.99999999999994</ele><time>2026-04-12T15:02:54.183Z</time></trkpt><trkpt lat="43.7490381" lon="11.378367"><ele>488.0</ele><time>2026-04-12T15:02:55.183Z</time></trkpt><trkpt lat="43.7490245" lon="11.378482"><ele>488.0</ele><time>2026-04-12T15:02:56.182Z</time></trkpt><trkpt lat="43.7490094" lon="11.378591"><ele>488.0</ele><time>2026-04-12T15:02:57.182Z</time></trkpt><trkpt lat="43.7490001" lon="11.3787036"><ele>487.99999999999994</ele><time>2026-04-12T15:02:58.182Z</time></trkpt><trkpt lat="43.7490059" lon="11.3788047"><ele>488.0</ele><time>2026-04-12T15:02:59.183Z</time></trkpt><trkpt lat="43.7490038" lon="11.3789136"><ele>487.0</ele><time>2026-04-12T15:03:00.183Z</time></trkpt><trkpt lat="43.7490188" lon="11.3790448"><ele>485.99999999999994</ele><time>2026-04-12T15:03:01.182Z</time></trkpt><trkpt lat="43.7490296" lon="11.3791674"><ele>484.99999999999994</ele><time>2026-04-12T15:03:02.183Z</time></trkpt><trkpt lat="43.749048" lon="11.3793047"><ele>484.0</ele><time>2026-04-12T15:03:03.182Z</time></trkpt><trkpt lat="43.7490869" lon="11.3794231"><ele>483.0</ele><time>2026-04-12T15:03:04.183Z</time></trkpt><trkpt lat="43.7491361" lon="11.379521"><ele>483.0</ele><time>2026-04-12T15:03:05.183Z</time></trkpt><trkpt lat="43.7491766" lon="11.3796324"><ele>482.99999999999994</ele><time>2026-04-12T15:03:06.183Z</time></trkpt><trkpt lat="43.7492159" lon="11.3797537"><ele>482.99999999999994</ele><time>2026-04-12T15:03:07.183Z</time></trkpt><trkpt lat="43.7492401" lon="11.379835"><ele>483.0</ele><time>2026-04-12T15:03:08.183Z</time></trkpt><trkpt lat="43.7492619" lon="11.3799345"><ele>483.0</ele><time>2026-04-12T15:03:09.182Z</time></trkpt><trkpt lat="43.7492365" lon="11.3801402"><ele>481.0</ele><time>2026-04-12T15:03:11.182Z</time></trkpt><trkpt lat="43.749224" lon="11.3802324"><ele>479.0</ele><time>2026-04-12T15:03:12.182Z</time></trkpt><trkpt lat="43.7492088" lon="11.3803267"><ele>477.0</ele><time>2026-04-12T15:03:13.183Z</time></trkpt><trkpt lat="43.7491911" lon="11.3804395"><ele>475.0</ele><time>2026-04-12T15:03:14.182Z</time></trkpt><trkpt lat="43.7491614" lon="11.3805627"><ele>473.0</ele><time>2026-04-12T15:03:15.182Z</time></trkpt><trkpt lat="43.7491374" lon="11.3806659"><ele>471.0</ele><time>2026-04-12T15:03:16.182Z</time></trkpt><trkpt lat="43.7491114" lon="11.3807783"><ele>470.1666666666667</ele><time>2026-04-12T15:03:17.182Z</time></trkpt><trkpt lat="43.7490914" lon="11.3808791"><ele>469.33333333333337</ele><time>2026-04-12T15:03:18.183Z</time></trkpt><trkpt lat="43.7490633" lon="11.3809943"><ele>468.5</ele><time>2026-04-12T15:03:19.182Z</time></trkpt><trkpt lat="43.749063" lon="11.3810983"><ele>467.6666666666667</ele><time>2026-04-12T15:03:20.182Z</time></trkpt><trkpt lat="43.7490492" lon="11.381186"><ele>466.83333333333337</ele><time>2026-04-12T15:03:21.182Z</time></trkpt><trkpt lat="43.7490377" lon="11.3812771"><ele>466.0</ele><time>2026-04-12T15:03:22.182Z</time></trkpt><trkpt lat="43.7489967" lon="11.3813746"><ele>465.83333333333337</ele><time>2026-04-12T15:03:23.183Z</time></trkpt><trkpt lat="43.7489489" lon="11.3814657"><ele>465.6666666666667</ele><time>2026-04-12T15:03:24.183Z</time></trkpt><trkpt lat="43.7488946" lon="11.3815653"><ele>465.5</ele><time>2026-04-12T15:03:25.182Z</time></trkpt><trkpt lat="43.7488334" lon="11.3816505"><ele>465.33333333333337</ele><time>2026-04-12T15:03:26.182Z</time></trkpt><trkpt lat="43.7487735" lon="11.3817374"><ele>465.1666666666667</ele><time>2026-04-12T15:03:27.183Z</time></trkpt><trkpt lat="43.7487293" lon="11.3818033"><ele>465.0</ele><time>2026-04-12T15:03:28.183Z</time></trkpt><trkpt lat="43.7486826" lon="11.3818789"><ele>465.0</ele><time>2026-04-12T15:03:29.183Z</time></trkpt><trkpt lat="43.7486417" lon="11.3819752"><ele>465.0</ele><time>2026-04-12T15:03:30.183Z</time></trkpt><trkpt lat="43.7486063" lon="11.3820687"><ele>465.0</ele><time>2026-04-12T15:03:31.182Z</time></trkpt><trkpt lat="43.7486166" lon="11.3821901"><ele>465.0</ele><time>2026-04-12T15:03:32.183Z</time></trkpt><trkpt lat="43.7486137" lon="11.3822906"><ele>465.0</ele><time>2026-04-12T15:03:33.183Z</time></trkpt><trkpt lat="43.7486011" lon="11.3823891"><ele>465.0</ele><time>2026-04-12T15:03:34.183Z</time></trkpt><trkpt lat="43.7486045" lon="11.3825053"><ele>464.6666666666667</ele><time>2026-04-12T15:03:35.182Z</time></trkpt><trkpt lat="43.7485931" lon="11.3826229"><ele>464.33333333333337</ele><time>2026-04-12T15:03:36.182Z</time></trkpt><trkpt lat="43.7485715" lon="11.3827669"><ele>464.0</ele><time>2026-04-12T15:03:37.182Z</time></trkpt><trkpt lat="43.7485507" lon="11.3828897"><ele>463.6666666666667</ele><time>2026-04-12T15:03:38.182Z</time></trkpt><trkpt lat="43.7485234" lon="11.3829925"><ele>463.33333333333337</ele><time>2026-04-12T15:03:39.183Z</time></trkpt><trkpt lat="43.7484953" lon="11.3830864"><ele>463.0</ele><time>2026-04-12T15:03:40.183Z</time></trkpt><trkpt lat="43.7484552" lon="11.3831794"><ele>458.0</ele><time>2026-04-12T15:03:41.183Z</time></trkpt><trkpt lat="43.748411" lon="11.3832417"><ele>452.99999999999994</ele><time>2026-04-12T15:03:42.183Z</time></trkpt><trkpt lat="43.748358" lon="11.3832964"><ele>447.99999999999994</ele><time>2026-04-12T15:03:43.183Z</time></trkpt><trkpt lat="43.7482995" lon="11.3833473"><ele>443.0</ele><time>2026-04-12T15:03:44.182Z</time></trkpt><trkpt lat="43.7481809" lon="11.3834029"><ele>438.0</ele><time>2026-04-12T15:03:46.183Z</time></trkpt><trkpt lat="43.748046" lon="11.383383"><ele>438.0</ele><time>2026-04-12T15:03:48.182Z</time></trkpt><trkpt lat="43.7479851" lon="11.3833603"><ele>437.99999999999994</ele><time>2026-04-12T15:03:49.182Z</time></trkpt><trkpt lat="43.7479029" lon="11.3834102"><ele>437.99999999999994</ele><time>2026-04-12T15:03:51.183Z</time></trkpt><trkpt lat="43.747805" lon="11.3835127"><ele>438.0</ele><time>2026-04-12T15:03:53.182Z</time></trkpt><trkpt lat="43.7477379" lon="11.3836341"><ele>438.0</ele><time>2026-04-12T15:03:55.182Z</time></trkpt><trkpt lat="43.7476423" lon="11.3837631"><ele>436.2857142857143</ele><time>2026-04-12T15:03:57.182Z</time></trkpt><trkpt lat="43.747596" lon="11.3838381"><ele>434.57142857142856</ele><time>2026-04-12T15:03:58.182Z</time></trkpt><trkpt lat="43.7475507" lon="11.3839185"><ele>432.85714285714283</ele><time>2026-04-12T15:03:59.183Z</time></trkpt><trkpt lat="43.747507" lon="11.3839858"><ele>431.1428571428571</ele><time>2026-04-12T15:04:00.183Z</time></trkpt><trkpt lat="43.7474652" lon="11.3840744"><ele>429.42857142857144</ele><time>2026-04-12T15:04:01.182Z</time></trkpt><trkpt lat="43.7474402" lon="11.3841544"><ele>427.71428571428567</ele><time>2026-04-12T15:04:02.183Z</time></trkpt><trkpt lat="43.747417" lon="11.3842387"><ele>426.0</ele><time>2026-04-12T15:04:04.182Z</time></trkpt><trkpt lat="43.7473892" lon="11.3843496"><ele>426.0</ele><time>2026-04-12T15:04:25.183Z</time></trkpt><trkpt lat="43.7473568" lon="11.384443"><ele>426.0</ele><time>2026-04-12T15:04:26.183Z</time></trkpt><trkpt lat="43.7472988" lon="11.3845582"><ele>426.0</ele><time>2026-04-12T15:04:27.183Z</time></trkpt><trkpt lat="43.7472351" lon="11.3846106"><ele>426.0</ele><time>2026-04-12T15:04:28.183Z</time></trkpt><trkpt lat="43.7471651" lon="11.3845962"><ele>426.0</ele><time>2026-04-12T15:04:29.182Z</time></trkpt><trkpt lat="43.7470734" lon="11.3845552"><ele>426.0</ele><time>2026-04-12T15:04:31.182Z</time></trkpt><trkpt lat="43.7470167" lon="11.3845114"><ele>426.0</ele><time>2026-04-12T15:04:32.183Z</time></trkpt><trkpt lat="43.7469691" lon="11.3843747"><ele>426.0</ele><time>2026-04-12T15:04:33.182Z</time></trkpt><trkpt lat="43.7469326" lon="11.3842628"><ele>426.0</ele><time>2026-04-12T15:04:34.183Z</time></trkpt><trkpt lat="43.7468754" lon="11.3841698"><ele>426.0</ele><time>2026-04-12T15:04:35.182Z</time></trkpt><trkpt lat="43.7468628" lon="11.3840797"><ele>426.0</ele><time>2026-04-12T15:04:36.182Z</time></trkpt><trkpt lat="43.7468319" lon="11.3839956"><ele>426.0</ele><time>2026-04-12T15:04:37.183Z</time></trkpt><trkpt lat="43.7468066" lon="11.3839019"><ele>424.20000000000005</ele><time>2026-04-12T15:04:38.182Z</time></trkpt><trkpt lat="43.7467074" lon="11.3837742"><ele>422.40000000000003</ele><time>2026-04-12T15:04:40.183Z</time></trkpt><trkpt lat="43.7466559" lon="11.3836954"><ele>420.6</ele><time>2026-04-12T15:04:41.183Z</time></trkpt><trkpt lat="43.7466002" lon="11.3836029"><ele>418.8</ele><time>2026-04-12T15:04:42.183Z</time></trkpt><trkpt lat="43.7465467" lon="11.3834918"><ele>417.0</ele><time>2026-04-12T15:04:43.182Z</time></trkpt><trkpt lat="43.7464779" lon="11.3833804"><ele>417.0</ele><time>2026-04-12T15:04:44.182Z</time></trkpt><trkpt lat="43.7464172" lon="11.3832904"><ele>417.0</ele><time>2026-04-12T15:04:45.183Z</time></trkpt><trkpt lat="43.7463596" lon="11.383201"><ele>417.0</ele><time>2026-04-12T15:04:46.182Z</time></trkpt><trkpt lat="43.7463008" lon="11.3831023"><ele>417.0</ele><time>2026-04-12T15:04:47.183Z</time></trkpt><trkpt lat="43.7462525" lon="11.3830324"><ele>417.0</ele><time>2026-04-12T15:04:48.183Z</time></trkpt><trkpt lat="43.7461872" lon="11.3829476"><ele>417.0</ele><time>2026-04-12T15:04:49.182Z</time></trkpt><trkpt lat="43.7461254" lon="11.3828528"><ele>416.8</ele><time>2026-04-12T15:04:50.183Z</time></trkpt><trkpt lat="43.7460476" lon="11.382758"><ele>416.6</ele><time>2026-04-12T15:04:51.183Z</time></trkpt><trkpt lat="43.7459721" lon="11.3826698"><ele>416.40000000000003</ele><time>2026-04-12T15:04:52.183Z</time></trkpt><trkpt lat="43.7459029" lon="11.3825841"><ele>416.20000000000005</ele><time>2026-04-12T15:04:53.182Z</time></trkpt><trkpt lat="43.7458405" lon="11.3825031"><ele>416.0</ele><time>2026-04-12T15:04:54.183Z</time></trkpt><trkpt lat="43.7457794" lon="11.3824272"><ele>416.0</ele><time>2026-04-12T15:04:55.183Z</time></trkpt><trkpt lat="43.7457049" lon="11.3823725"><ele>416.0</ele><time>2026-04-12T15:04:56.183Z</time></trkpt><trkpt lat="43.7456416" lon="11.3823093"><ele>416.0</ele><time>2026-04-12T15:04:57.182Z</time></trkpt><trkpt lat="43.7455633" lon="11.3822098"><ele>416.0</ele><time>2026-04-12T15:04:59.183Z</time></trkpt><trkpt lat="43.7454548" lon="11.3821577"><ele>416.0</ele><time>2026-04-12T15:05:01.183Z</time></trkpt><trkpt lat="43.7453525" lon="11.3820866"><ele>413.99999999999994</ele><time>2026-04-12T15:05:03.182Z</time></trkpt><trkpt lat="43.7452504" lon="11.3820148"><ele>412.0</ele><time>2026-04-12T15:05:05.181Z</time></trkpt><trkpt lat="43.7451991" lon="11.3819631"><ele>410.0</ele><time>2026-04-12T15:05:06.183Z</time></trkpt><trkpt lat="43.7450904" lon="11.3818793"><ele>408.0</ele><time>2026-04-12T15:05:08.182Z</time></trkpt><trkpt lat="43.7450318" lon="11.3818406"><ele>405.99999999999994</ele><time>2026-04-12T15:05:09.183Z</time></trkpt><trkpt lat="43.7449689" lon="11.3817966"><ele>404.0</ele><time>2026-04-12T15:05:10.183Z</time></trkpt><trkpt lat="43.7448999" lon="11.3817532"><ele>403.99999999999994</ele><time>2026-04-12T15:05:11.183Z</time></trkpt><trkpt lat="43.7448365" lon="11.3817256"><ele>404.0</ele><time>2026-04-12T15:05:12.183Z</time></trkpt><trkpt lat="43.7447676" lon="11.381679"><ele>404.0</ele><time>2026-04-12T15:05:13.182Z</time></trkpt><trkpt lat="43.74469" lon="11.3816379"><ele>404.0</ele><time>2026-04-12T15:05:14.183Z</time></trkpt><trkpt lat="43.7446286" lon="11.3815832"><ele>403.99999999999994</ele><time>2026-04-12T15:05:16.182Z</time></trkpt><trkpt lat="43.7446024" lon="11.3814434"><ele>404.0</ele><time>2026-04-12T15:05:18.183Z</time></trkpt><trkpt lat="43.7446051" lon="11.3813326"><ele>402.57142857142856</ele><time>2026-04-12T15:05:19.183Z</time></trkpt><trkpt lat="43.7445995" lon="11.3812346"><ele>401.1428571428571</ele><time>2026-04-12T15:05:20.183Z</time></trkpt><trkpt lat="43.7445986" lon="11.3811472"><ele>399.7142857142857</ele><time>2026-04-12T15:05:21.183Z</time></trkpt><trkpt lat="43.7445912" lon="11.3810536"><ele>398.2857142857143</ele><time>2026-04-12T15:05:22.182Z</time></trkpt><trkpt lat="43.7445868" lon="11.3809496"><ele>396.8571428571429</ele><time>2026-04-12T15:05:23.183Z</time></trkpt><trkpt lat="43.7445836" lon="11.3808452"><ele>395.42857142857144</ele><time>2026-04-12T15:05:24.182Z</time></trkpt><trkpt lat="43.744576" lon="11.3807417"><ele>394.0</ele><time>2026-04-12T15:05:25.183Z</time></trkpt><trkpt lat="43.7445648" lon="11.3806365"><ele>394.00000000000006</ele><time>2026-04-12T15:05:26.182Z</time></trkpt><trkpt lat="43.7445623" lon="11.3805172"><ele>394.0</ele><time>2026-04-12T15:05:27.182Z</time></trkpt><trkpt lat="43.7445557" lon="11.3804057"><ele>394.0</ele><time>2026-04-12T15:05:28.182Z</time></trkpt><trkpt lat="43.7445554" lon="11.3802884"><ele>394.0</ele><time>2026-04-12T15:05:29.182Z</time></trkpt><trkpt lat="43.7445472" lon="11.3801759"><ele>394.00000000000006</ele><time>2026-04-12T15:05:30.182Z</time></trkpt><trkpt lat="43.7445372" lon="11.3800638"><ele>394.0</ele><time>2026-04-12T15:05:31.182Z</time></trkpt><trkpt lat="43.7445458" lon="11.3799418"><ele>394.14285714285717</ele><time>2026-04-12T15:05:33.182Z</time></trkpt><trkpt lat="43.7445414" lon="11.3798516"><ele>394.28571428571433</ele><time>2026-04-12T15:05:34.183Z</time></trkpt><trkpt lat="43.7445341" lon="11.3797567"><ele>394.42857142857144</ele><time>2026-04-12T15:05:35.183Z</time></trkpt><trkpt lat="43.7445292" lon="11.3796542"><ele>394.57142857142856</ele><time>2026-04-12T15:05:36.182Z</time></trkpt><trkpt lat="43.7445224" lon="11.37955"><ele>394.7142857142857</ele><time>2026-04-12T15:05:37.181Z</time></trkpt><trkpt lat="43.7445123" lon="11.3794612"><ele>394.85714285714283</ele><time>2026-04-12T15:05:38.183Z</time></trkpt><trkpt lat="43.7444969" lon="11.3793736"><ele>395.0</ele><time>2026-04-12T15:05:40.183Z</time></trkpt><trkpt lat="43.7445078" lon="11.3792495"><ele>395.3333333333333</ele><time>2026-04-12T15:05:44.183Z</time></trkpt><trkpt lat="43.7445319" lon="11.3790901"><ele>395.66666666666663</ele><time>2026-04-12T15:05:46.182Z</time></trkpt><trkpt lat="43.744545" lon="11.3789994"><ele>396.0</ele><time>2026-04-12T15:05:47.182Z</time></trkpt><trkpt lat="43.7445658" lon="11.3789138"><ele>396.33333333333337</ele><time>2026-04-12T15:05:48.183Z</time></trkpt><trkpt lat="43.7445947" lon="11.3788224"><ele>396.6666666666667</ele><time>2026-04-12T15:05:49.183Z</time></trkpt><trkpt lat="43.7446349" lon="11.3787022"><ele>397.0</ele><time>2026-04-12T15:05:51.183Z</time></trkpt><trkpt lat="43.7446115" lon="11.3785233"><ele>396.00000000000006</ele><time>2026-04-12T15:05:53.182Z</time></trkpt><trkpt lat="43.7445989" lon="11.3784357"><ele>395.0</ele><time>2026-04-12T15:05:54.183Z</time></trkpt><trkpt lat="43.7445966" lon="11.3782887"><ele>394.0</ele><time>2026-04-12T15:05:56.182Z</time></trkpt><trkpt lat="43.7446181" lon="11.3781896"><ele>393.0</ele><time>2026-04-12T15:05:57.182Z</time></trkpt><trkpt lat="43.7446524" lon="11.3781057"><ele>392.00000000000006</ele><time>2026-04-12T15:05:58.183Z</time></trkpt><trkpt lat="43.7446683" lon="11.3780073"><ele>391.0</ele><time>2026-04-12T15:05:59.183Z</time></trkpt><trkpt lat="43.7446802" lon="11.377881"><ele>388.83333333333337</ele><time>2026-04-12T15:06:00.183Z</time></trkpt><trkpt lat="43.7447114" lon="11.3777779"><ele>386.6666666666667</ele><time>2026-04-12T15:06:01.183Z</time></trkpt><trkpt lat="43.7447409" lon="11.3776773"><ele>384.5</ele><time>2026-04-12T15:06:02.183Z</time></trkpt><trkpt lat="43.7447474" lon="11.3775563"><ele>382.33333333333337</ele><time>2026-04-12T15:06:03.182Z</time></trkpt><trkpt lat="43.7447546" lon="11.3774396"><ele>380.1666666666667</ele><time>2026-04-12T15:06:04.183Z</time></trkpt><trkpt lat="43.7447532" lon="11.3773227"><ele>378.0</ele><time>2026-04-12T15:06:05.183Z</time></trkpt><trkpt lat="43.7447645" lon="11.3772043"><ele>376.0</ele><time>2026-04-12T15:06:06.182Z</time></trkpt><trkpt lat="43.7447695" lon="11.3770876"><ele>374.0</ele><time>2026-04-12T15:06:07.183Z</time></trkpt><trkpt lat="43.7447726" lon="11.3769791"><ele>372.0</ele><time>2026-04-12T15:06:08.183Z</time></trkpt><trkpt lat="43.7447724" lon="11.3768639"><ele>370.0</ele><time>2026-04-12T15:06:09.183Z</time></trkpt><trkpt lat="43.7447732" lon="11.3767668"><ele>368.0</ele><time>2026-04-12T15:06:10.183Z</time></trkpt><trkpt lat="43.7447951" lon="11.3766154"><ele>366.0</ele><time>2026-04-12T15:06:12.183Z</time></trkpt><trkpt lat="43.7448579" lon="11.3765353"><ele>366.0</ele><time>2026-04-12T15:06:14.182Z</time></trkpt><trkpt lat="43.7449656" lon="11.376585"><ele>366.0</ele><time>2026-04-12T15:06:16.183Z</time></trkpt><trkpt lat="43.745057" lon="11.3767"><ele>366.0</ele><time>2026-04-12T15:06:18.183Z</time></trkpt><trkpt lat="43.7451009" lon="11.3767843"><ele>366.0</ele><time>2026-04-12T15:06:19.183Z</time></trkpt><trkpt lat="43.7451466" lon="11.3768863"><ele>366.0</ele><time>2026-04-12T15:06:20.183Z</time></trkpt><trkpt lat="43.7451921" lon="11.376986"><ele>366.0</ele><time>2026-04-12T15:06:21.183Z</time></trkpt><trkpt lat="43.7452353" lon="11.3770845"><ele>366.0</ele><time>2026-04-12T15:06:22.182Z</time></trkpt><trkpt lat="43.745282" lon="11.3771828"><ele>366.0</ele><time>2026-04-12T15:06:23.183Z</time></trkpt><trkpt lat="43.7453324" lon="11.377299"><ele>366.0</ele><time>2026-04-12T15:06:24.183Z</time></trkpt><trkpt lat="43.7453733" lon="11.3774009"><ele>366.0</ele><time>2026-04-12T15:06:25.183Z</time></trkpt><trkpt lat="43.7454117" lon="11.3774871"><ele>366.0</ele><time>2026-04-12T15:06:26.182Z</time></trkpt><trkpt lat="43.7454768" lon="11.3775959"><ele>366.0</ele><time>2026-04-12T15:06:28.182Z</time></trkpt><trkpt lat="43.7455201" lon="11.3775284"><ele>366.0</ele><time>2026-04-12T15:06:32.182Z</time></trkpt><trkpt lat="43.7455058" lon="11.3774295"><ele>366.0</ele><time>2026-04-12T15:10:02.183Z</time></trkpt><trkpt lat="43.7454881" lon="11.3772641"><ele>366.0</ele><time>2026-04-12T15:10:04.182Z</time></trkpt><trkpt lat="43.7454724" lon="11.3771313"><ele>366.0</ele><time>2026-04-12T15:10:05.182Z</time></trkpt><trkpt lat="43.7454544" lon="11.3769713"><ele>364.5</ele><time>2026-04-12T15:10:06.182Z</time></trkpt><trkpt lat="43.7454306" lon="11.376802"><ele>363.0</ele><time>2026-04-12T15:10:07.183Z</time></trkpt><trkpt lat="43.7453978" lon="11.3766504"><ele>361.5</ele><time>2026-04-12T15:10:08.182Z</time></trkpt><trkpt lat="43.7453605" lon="11.3765051"><ele>360.0</ele><time>2026-04-12T15:10:09.182Z</time></trkpt><trkpt lat="43.7453191" lon="11.3763662"><ele>359.2</ele><time>2026-04-12T15:10:10.182Z</time></trkpt><trkpt lat="43.7452838" lon="11.376235"><ele>358.4</ele><time>2026-04-12T15:10:11.182Z</time></trkpt><trkpt lat="43.7452434" lon="11.3761105"><ele>357.6</ele><time>2026-04-12T15:10:12.183Z</time></trkpt><trkpt lat="43.7452139" lon="11.3759839"><ele>356.8</ele><time>2026-04-12T15:10:13.183Z</time></trkpt><trkpt lat="43.745188" lon="11.3758689"><ele>356.0</ele><time>2026-04-12T15:10:14.183Z</time></trkpt><trkpt lat="43.7451582" lon="11.3757597"><ele>355.6666666666667</ele><time>2026-04-12T15:10:15.183Z</time></trkpt><trkpt lat="43.7451231" lon="11.3756612"><ele>355.33333333333337</ele><time>2026-04-12T15:10:16.183Z</time></trkpt><trkpt lat="43.7450782" lon="11.3755731"><ele>355.0</ele><time>2026-04-12T15:10:17.182Z</time></trkpt><trkpt lat="43.7450242" lon="11.3754956"><ele>354.6666666666667</ele><time>2026-04-12T15:10:18.182Z</time></trkpt><trkpt lat="43.7449436" lon="11.3754488"><ele>354.3333333333333</ele><time>2026-04-12T15:10:19.183Z</time></trkpt><trkpt lat="43.7448521" lon="11.3754192"><ele>354.0</ele><time>2026-04-12T15:10:20.183Z</time></trkpt><trkpt lat="43.7447512" lon="11.3753916"><ele>352.2</ele><time>2026-04-12T15:10:21.182Z</time></trkpt><trkpt lat="43.7446418" lon="11.3753632"><ele>350.4</ele><time>2026-04-12T15:10:22.182Z</time></trkpt><trkpt lat="43.7445328" lon="11.3753414"><ele>348.6</ele><time>2026-04-12T15:10:23.183Z</time></trkpt><trkpt lat="43.7444248" lon="11.3753221"><ele>346.8</ele><time>2026-04-12T15:10:24.182Z</time></trkpt><trkpt lat="43.7443156" lon="11.3752924"><ele>345.0</ele><time>2026-04-12T15:10:25.182Z</time></trkpt><trkpt lat="43.7442208" lon="11.3752678"><ele>345.0</ele><time>2026-04-12T15:10:26.182Z</time></trkpt><trkpt lat="43.7441294" lon="11.3752773"><ele>345.0</ele><time>2026-04-12T15:10:27.182Z</time></trkpt><trkpt lat="43.7440387" lon="11.3753213"><ele>345.0</ele><time>2026-04-12T15:10:28.182Z</time></trkpt><trkpt lat="43.7439658" lon="11.3753634"><ele>345.0</ele><time>2026-04-12T15:10:29.182Z</time></trkpt><trkpt lat="43.7438657" lon="11.3753335"><ele>345.0</ele><time>2026-04-12T15:10:31.183Z</time></trkpt><trkpt lat="43.7438342" lon="11.375258"><ele>345.0</ele><time>2026-04-12T15:10:32.183Z</time></trkpt><trkpt lat="43.7438173" lon="11.3751532"><ele>345.0</ele><time>2026-04-12T15:10:33.182Z</time></trkpt><trkpt lat="43.7437697" lon="11.3750535"><ele>345.0</ele><time>2026-04-12T15:10:34.183Z</time></trkpt><trkpt lat="43.743697" lon="11.374988"><ele>345.0</ele><time>2026-04-12T15:10:35.183Z</time></trkpt><trkpt lat="43.7436131" lon="11.374919"><ele>345.0</ele><time>2026-04-12T15:10:36.183Z</time></trkpt><trkpt lat="43.743531" lon="11.3748478"><ele>345.0</ele><time>2026-04-12T15:10:37.182Z</time></trkpt><trkpt lat="43.7434474" lon="11.3747766"><ele>346.3333333333333</ele><time>2026-04-12T15:10:38.183Z</time></trkpt><trkpt lat="43.7433675" lon="11.3747101"><ele>347.6666666666667</ele><time>2026-04-12T15:10:39.183Z</time></trkpt><trkpt lat="43.7432951" lon="11.3746485"><ele>349.0</ele><time>2026-04-12T15:10:40.182Z</time></trkpt><trkpt lat="43.7432345" lon="11.3745878"><ele>350.33333333333337</ele><time>2026-04-12T15:10:41.182Z</time></trkpt><trkpt lat="43.7431848" lon="11.374508"><ele>351.6666666666667</ele><time>2026-04-12T15:10:42.183Z</time></trkpt><trkpt lat="43.743137" lon="11.3744101"><ele>353.0</ele><time>2026-04-12T15:10:43.183Z</time></trkpt><trkpt lat="43.7430903" lon="11.3742968"><ele>353.0</ele><time>2026-04-12T15:10:44.181Z</time></trkpt><trkpt lat="43.7430586" lon="11.3741743"><ele>353.0</ele><time>2026-04-12T15:10:45.182Z</time></trkpt><trkpt lat="43.7430381" lon="11.3740475"><ele>353.0</ele><time>2026-04-12T15:10:46.183Z</time></trkpt><trkpt lat="43.7430325" lon="11.3739201"><ele>353.0</ele><time>2026-04-12T15:10:47.183Z</time></trkpt><trkpt lat="43.7430414" lon="11.3738153"><ele>353.0</ele><time>2026-04-12T15:10:48.182Z</time></trkpt><trkpt lat="43.7430784" lon="11.373699"><ele>353.0</ele><time>2026-04-12T15:10:49.183Z</time></trkpt><trkpt lat="43.7431205" lon="11.3735713"><ele>350.5</ele><time>2026-04-12T15:10:50.182Z</time></trkpt><trkpt lat="43.7431414" lon="11.3734105"><ele>348.0</ele><time>2026-04-12T15:10:51.183Z</time></trkpt><trkpt lat="43.7431475" lon="11.3732112"><ele>345.5</ele><time>2026-04-12T15:10:52.183Z</time></trkpt><trkpt lat="43.7431516" lon="11.3730135"><ele>343.0</ele><time>2026-04-12T15:10:53.182Z</time></trkpt><trkpt lat="43.7431611" lon="11.372825"><ele>343.5</ele><time>2026-04-12T15:10:54.182Z</time></trkpt><trkpt lat="43.7431907" lon="11.3726468"><ele>344.0</ele><time>2026-04-12T15:10:55.183Z</time></trkpt><trkpt lat="43.7432264" lon="11.3724732"><ele>344.5</ele><time>2026-04-12T15:10:56.183Z</time></trkpt><trkpt lat="43.7432699" lon="11.3723149"><ele>345.0</ele><time>2026-04-12T15:10:57.183Z</time></trkpt><trkpt lat="43.7433019" lon="11.3721524"><ele>345.0</ele><time>2026-04-12T15:10:58.183Z</time></trkpt><trkpt lat="43.7433314" lon="11.3719579"><ele>345.0</ele><time>2026-04-12T15:10:59.183Z</time></trkpt><trkpt lat="43.7433603" lon="11.3717847"><ele>345.0</ele><time>2026-04-12T15:11:00.182Z</time></trkpt><trkpt lat="43.7433893" lon="11.3716192"><ele>345.0</ele><time>2026-04-12T15:11:01.181Z</time></trkpt><trkpt lat="43.7434184" lon="11.3714613"><ele>347.4</ele><time>2026-04-12T15:11:02.183Z</time></trkpt><trkpt lat="43.7434418" lon="11.3713074"><ele>349.8</ele><time>2026-04-12T15:11:03.182Z</time></trkpt><trkpt lat="43.7434731" lon="11.371169"><ele>352.20000000000005</ele><time>2026-04-12T15:11:04.182Z</time></trkpt><trkpt lat="43.7435242" lon="11.3710742"><ele>354.6</ele><time>2026-04-12T15:11:05.182Z</time></trkpt><trkpt lat="43.7435616" lon="11.370949"><ele>357.0</ele><time>2026-04-12T15:11:06.182Z</time></trkpt><trkpt lat="43.743602" lon="11.370825"><ele>351.40000000000003</ele><time>2026-04-12T15:11:07.183Z</time></trkpt><trkpt lat="43.7436177" lon="11.3706622"><ele>345.8</ele><time>2026-04-12T15:11:08.182Z</time></trkpt><trkpt lat="43.7436408" lon="11.3705745"><ele>340.2</ele><time>2026-04-12T15:11:09.182Z</time></trkpt><trkpt lat="43.7436519" lon="11.3704539"><ele>334.6</ele><time>2026-04-12T15:11:10.183Z</time></trkpt><trkpt lat="43.7436625" lon="11.3702958"><ele>329.0</ele><time>2026-04-12T15:11:12.182Z</time></trkpt><trkpt lat="43.7436085" lon="11.3702118"><ele>333.6666666666667</ele><time>2026-04-12T15:11:14.181Z</time></trkpt><trkpt lat="43.7435463" lon="11.3703377"><ele>338.33333333333337</ele><time>2026-04-12T15:11:16.181Z</time></trkpt><trkpt lat="43.7434983" lon="11.3704136"><ele>343.0</ele><time>2026-04-12T15:11:17.181Z</time></trkpt><trkpt lat="43.7434286" lon="11.3704939"><ele>347.6666666666667</ele><time>2026-04-12T15:11:18.181Z</time></trkpt><trkpt lat="43.7433587" lon="11.3705353"><ele>352.3333333333333</ele><time>2026-04-12T15:11:19.181Z</time></trkpt><trkpt lat="43.7432807" lon="11.3704544"><ele>357.0</ele><time>2026-04-12T15:11:22.182Z</time></trkpt><trkpt lat="43.743236" lon="11.3703372"><ele>357.20000000000005</ele><time>2026-04-12T15:11:24.181Z</time></trkpt><trkpt lat="43.7431378" lon="11.3702617"><ele>357.4</ele><time>2026-04-12T15:11:26.182Z</time></trkpt><trkpt lat="43.7430621" lon="11.3701659"><ele>357.6</ele><time>2026-04-12T15:11:28.182Z</time></trkpt><trkpt lat="43.7429975" lon="11.3700526"><ele>357.79999999999995</ele><time>2026-04-12T15:11:30.181Z</time></trkpt><trkpt lat="43.7429154" lon="11.3699417"><ele>358.0</ele><time>2026-04-12T15:11:32.182Z</time></trkpt><trkpt lat="43.7428349" lon="11.3698426"><ele>358.0</ele><time>2026-04-12T15:11:34.182Z</time></trkpt><trkpt lat="43.7427727" lon="11.3698141"><ele>358.0</ele><time>2026-04-12T15:11:35.182Z</time></trkpt><trkpt lat="43.7426903" lon="11.3697913"><ele>358.0</ele><time>2026-04-12T15:11:37.181Z</time></trkpt><trkpt lat="43.7425992" lon="11.3697635"><ele>358.0</ele><time>2026-04-12T15:11:39.181Z</time></trkpt><trkpt lat="43.7425437" lon="11.3697194"><ele>358.0</ele><time>2026-04-12T15:11:40.182Z</time></trkpt><trkpt lat="43.7424336" lon="11.369678"><ele>358.0</ele><time>2026-04-12T15:11:42.182Z</time></trkpt><trkpt lat="43.742351" lon="11.3696152"><ele>362.0</ele><time>2026-04-12T15:11:44.181Z</time></trkpt><trkpt lat="43.7422948" lon="11.3695192"><ele>366.0</ele><time>2026-04-12T15:11:46.181Z</time></trkpt><trkpt lat="43.7422438" lon="11.3693874"><ele>370.0</ele><time>2026-04-12T15:11:48.181Z</time></trkpt><trkpt lat="43.7421789" lon="11.3692502"><ele>374.0</ele><time>2026-04-12T15:11:50.181Z</time></trkpt><trkpt lat="43.7420629" lon="11.3691524"><ele>374.0</ele><time>2026-04-12T15:11:52.182Z</time></trkpt><trkpt lat="43.7419977" lon="11.3691039"><ele>374.0</ele><time>2026-04-12T15:11:53.181Z</time></trkpt><trkpt lat="43.7418761" lon="11.3690279"><ele>374.0</ele><time>2026-04-12T15:11:55.181Z</time></trkpt><trkpt lat="43.7418298" lon="11.3689688"><ele>374.0</ele><time>2026-04-12T15:11:56.182Z</time></trkpt><trkpt lat="43.7417819" lon="11.3688953"><ele>374.0</ele><time>2026-04-12T15:11:57.181Z</time></trkpt><trkpt lat="43.7417128" lon="11.368833"><ele>374.0</ele><time>2026-04-12T15:11:58.181Z</time></trkpt><trkpt lat="43.7416399" lon="11.3687861"><ele>376.79999999999995</ele><time>2026-04-12T15:11:59.181Z</time></trkpt><trkpt lat="43.7415286" lon="11.368779"><ele>379.59999999999997</ele><time>2026-04-12T15:12:01.181Z</time></trkpt><trkpt lat="43.7414432" lon="11.3687016"><ele>382.4</ele><time>2026-04-12T15:12:03.182Z</time></trkpt><trkpt lat="43.7413972" lon="11.3686393"><ele>385.2</ele><time>2026-04-12T15:12:04.182Z</time></trkpt><trkpt lat="43.7413245" lon="11.3685805"><ele>388.0</ele><time>2026-04-12T15:12:05.181Z</time></trkpt><trkpt lat="43.7412491" lon="11.3685099"><ele>388.0</ele><time>2026-04-12T15:12:06.181Z</time></trkpt><trkpt lat="43.7411857" lon="11.3684257"><ele>388.0</ele><time>2026-04-12T15:12:07.182Z</time></trkpt><trkpt lat="43.7411366" lon="11.3683579"><ele>388.0</ele><time>2026-04-12T15:12:08.182Z</time></trkpt><trkpt lat="43.7410312" lon="11.3682991"><ele>388.0</ele><time>2026-04-12T15:12:10.182Z</time></trkpt><trkpt lat="43.7409306" lon="11.3682878"><ele>388.0</ele><time>2026-04-12T15:12:12.181Z</time></trkpt><trkpt lat="43.7408469" lon="11.368321"><ele>391.50000000000006</ele><time>2026-04-12T15:12:14.182Z</time></trkpt><trkpt lat="43.7408036" lon="11.3682433"><ele>395.0</ele><time>2026-04-12T15:12:25.181Z</time></trkpt><trkpt lat="43.7408074" lon="11.3681535"><ele>398.5</ele><time>2026-04-12T15:12:27.181Z</time></trkpt><trkpt lat="43.7408364" lon="11.3680566"><ele>402.0</ele><time>2026-04-12T15:12:28.182Z</time></trkpt><trkpt lat="43.7408451" lon="11.3679461"><ele>405.50000000000006</ele><time>2026-04-12T15:12:29.182Z</time></trkpt><trkpt lat="43.7408652" lon="11.3678015"><ele>409.0</ele><time>2026-04-12T15:12:30.182Z</time></trkpt><trkpt lat="43.740889" lon="11.3676365"><ele>409.6</ele><time>2026-04-12T15:12:32.182Z</time></trkpt><trkpt lat="43.7409195" lon="11.3674413"><ele>410.2</ele><time>2026-04-12T15:12:34.182Z</time></trkpt><trkpt lat="43.7409358" lon="11.367337"><ele>410.8</ele><time>2026-04-12T15:12:35.182Z</time></trkpt><trkpt lat="43.7409947" lon="11.3672155"><ele>411.40000000000003</ele><time>2026-04-12T15:12:36.181Z</time></trkpt><trkpt lat="43.7410399" lon="11.367099"><ele>412.0</ele><time>2026-04-12T15:12:37.182Z</time></trkpt><trkpt lat="43.741088" lon="11.3669912"><ele>408.8</ele><time>2026-04-12T15:12:38.182Z</time></trkpt><trkpt lat="43.7411495" lon="11.36688"><ele>405.6</ele><time>2026-04-12T15:12:39.181Z</time></trkpt><trkpt lat="43.7412224" lon="11.3667759"><ele>402.40000000000003</ele><time>2026-04-12T15:12:40.182Z</time></trkpt><trkpt lat="43.7412466" lon="11.366669"><ele>399.20000000000005</ele><time>2026-04-12T15:12:41.182Z</time></trkpt><trkpt lat="43.7412927" lon="11.3665546"><ele>396.0</ele><time>2026-04-12T15:12:42.181Z</time></trkpt><trkpt lat="43.7413233" lon="11.3664132"><ele>398.0</ele><time>2026-04-12T15:12:43.182Z</time></trkpt><trkpt lat="43.7413626" lon="11.3662827"><ele>400.0</ele><time>2026-04-12T15:12:44.182Z</time></trkpt><trkpt lat="43.7414029" lon="11.366153"><ele>402.0</ele><time>2026-04-12T15:12:45.181Z</time></trkpt><trkpt lat="43.7414164" lon="11.3660469"><ele>404.0</ele><time>2026-04-12T15:12:46.182Z</time></trkpt><trkpt lat="43.7414741" lon="11.3659053"><ele>406.0</ele><time>2026-04-12T15:12:48.181Z</time></trkpt><trkpt lat="43.7415419" lon="11.3658616"><ele>406.00000000000006</ele><time>2026-04-12T15:12:49.182Z</time></trkpt><trkpt lat="43.7416104" lon="11.3658036"><ele>406.0</ele><time>2026-04-12T15:12:50.181Z</time></trkpt><trkpt lat="43.7416739" lon="11.3657317"><ele>406.0</ele><time>2026-04-12T15:12:51.182Z</time></trkpt><trkpt lat="43.7417271" lon="11.3656519"><ele>406.0</ele><time>2026-04-12T15:12:52.181Z</time></trkpt><trkpt lat="43.7417917" lon="11.3655675"><ele>406.00000000000006</ele><time>2026-04-12T15:12:53.182Z</time></trkpt><trkpt lat="43.7418434" lon="11.3654787"><ele>406.0</ele><time>2026-04-12T15:12:54.182Z</time></trkpt><trkpt lat="43.7418933" lon="11.3653883"><ele>406.0</ele><time>2026-04-12T15:12:55.181Z</time></trkpt><trkpt lat="43.7419157" lon="11.3652828"><ele>406.0</ele><time>2026-04-12T15:12:56.182Z</time></trkpt><trkpt lat="43.7419319" lon="11.3651632"><ele>406.0</ele><time>2026-04-12T15:12:57.182Z</time></trkpt><trkpt lat="43.7419494" lon="11.3650501"><ele>406.0</ele><time>2026-04-12T15:12:58.181Z</time></trkpt><trkpt lat="43.7419166" lon="11.3648864"><ele>406.0</ele><time>2026-04-12T15:13:00.181Z</time></trkpt><trkpt lat="43.7418753" lon="11.3647973"><ele>404.6666666666667</ele><time>2026-04-12T15:13:01.182Z</time></trkpt><trkpt lat="43.7418323" lon="11.3646958"><ele>403.33333333333337</ele><time>2026-04-12T15:13:02.181Z</time></trkpt><trkpt lat="43.7418129" lon="11.3646017"><ele>402.0</ele><time>2026-04-12T15:13:03.18Z</time></trkpt><trkpt lat="43.7418278" lon="11.3645153"><ele>400.66666666666663</ele><time>2026-04-12T15:13:04.182Z</time></trkpt><trkpt lat="43.7418495" lon="11.3644193"><ele>399.3333333333333</ele><time>2026-04-12T15:13:05.181Z</time></trkpt><trkpt lat="43.741882" lon="11.3643211"><ele>398.0</ele><time>2026-04-12T15:13:06.181Z</time></trkpt><trkpt lat="43.7419156" lon="11.3642172"><ele>397.4</ele><time>2026-04-12T15:13:07.181Z</time></trkpt><trkpt lat="43.7419463" lon="11.3641086"><ele>396.79999999999995</ele><time>2026-04-12T15:13:08.181Z</time></trkpt><trkpt lat="43.741907" lon="11.3639694"><ele>396.2</ele><time>2026-04-12T15:13:10.181Z</time></trkpt><trkpt lat="43.7418804" lon="11.3638139"><ele>395.6</ele><time>2026-04-12T15:13:12.182Z</time></trkpt><trkpt lat="43.7418982" lon="11.3637128"><ele>395.0</ele><time>2026-04-12T15:13:13.181Z</time></trkpt><trkpt lat="43.7419552" lon="11.3635777"><ele>391.3333333333333</ele><time>2026-04-12T15:13:15.181Z</time></trkpt><trkpt lat="43.7419816" lon="11.3634983"><ele>387.66666666666663</ele><time>2026-04-12T15:13:16.181Z</time></trkpt><trkpt lat="43.7419839" lon="11.3633956"><ele>384.0</ele><time>2026-04-12T15:13:17.182Z</time></trkpt><trkpt lat="43.7419854" lon="11.3632912"><ele>380.3333333333333</ele><time>2026-04-12T15:13:18.181Z</time></trkpt><trkpt lat="43.7419754" lon="11.3631305"><ele>376.66666666666663</ele><time>2026-04-12T15:13:20.182Z</time></trkpt><trkpt lat="43.741975" lon="11.3630387"><ele>373.0</ele><time>2026-04-12T15:13:21.181Z</time></trkpt><trkpt lat="43.7419702" lon="11.3629503"><ele>372.0</ele><time>2026-04-12T15:13:22.182Z</time></trkpt><trkpt lat="43.7420428" lon="11.3628254"><ele>371.0</ele><time>2026-04-12T15:13:24.181Z</time></trkpt><trkpt lat="43.7420973" lon="11.3627721"><ele>370.0</ele><time>2026-04-12T15:13:25.182Z</time></trkpt><trkpt lat="43.7421581" lon="11.362726"><ele>369.0</ele><time>2026-04-12T15:13:26.181Z</time></trkpt><trkpt lat="43.7422175" lon="11.3626043"><ele>368.0</ele><time>2026-04-12T15:13:28.181Z</time></trkpt><trkpt lat="43.7422458" lon="11.362471"><ele>368.0</ele><time>2026-04-12T15:13:30.182Z</time></trkpt><trkpt lat="43.7422422" lon="11.3623205"><ele>368.0</ele><time>2026-04-12T15:13:32.182Z</time></trkpt><trkpt lat="43.742203" lon="11.362181"><ele>368.0</ele><time>2026-04-12T15:13:34.181Z</time></trkpt><trkpt lat="43.7421831" lon="11.3620975"><ele>368.0</ele><time>2026-04-12T15:13:35.181Z</time></trkpt><trkpt lat="43.7421744" lon="11.3620004"><ele>368.0</ele><time>2026-04-12T15:13:36.181Z</time></trkpt><trkpt lat="43.7421607" lon="11.3619072"><ele>368.0</ele><time>2026-04-12T15:13:37.182Z</time></trkpt><trkpt lat="43.7421431" lon="11.3618049"><ele>366.59999999999997</ele><time>2026-04-12T15:13:38.182Z</time></trkpt><trkpt lat="43.7421039" lon="11.3617056"><ele>365.2</ele><time>2026-04-12T15:13:39.181Z</time></trkpt><trkpt lat="43.7421196" lon="11.3615671"><ele>363.8</ele><time>2026-04-12T15:13:41.182Z</time></trkpt><trkpt lat="43.7421849" lon="11.3614523"><ele>362.4</ele><time>2026-04-12T15:13:43.181Z</time></trkpt><trkpt lat="43.7422417" lon="11.3613494"><ele>361.0</ele><time>2026-04-12T15:13:45.181Z</time></trkpt><trkpt lat="43.7422994" lon="11.3612112"><ele>360.75</ele><time>2026-04-12T15:13:47.181Z</time></trkpt><trkpt lat="43.7423409" lon="11.361063"><ele>360.5</ele><time>2026-04-12T15:13:49.181Z</time></trkpt><trkpt lat="43.742391" lon="11.3608641"><ele>360.25</ele><time>2026-04-12T15:13:51.182Z</time></trkpt><trkpt lat="43.7424185" lon="11.3606971"><ele>360.0</ele><time>2026-04-12T15:13:52.181Z</time></trkpt><trkpt lat="43.7424604" lon="11.3606015"><ele>359.8333333333333</ele><time>2026-04-12T15:13:53.182Z</time></trkpt><trkpt lat="43.7424527" lon="11.3605104"><ele>359.6666666666667</ele><time>2026-04-12T15:13:54.181Z</time></trkpt><trkpt lat="43.7424747" lon="11.3604006"><ele>359.5</ele><time>2026-04-12T15:13:55.182Z</time></trkpt><trkpt lat="43.7424973" lon="11.360292"><ele>359.33333333333337</ele><time>2026-04-12T15:13:56.181Z</time></trkpt><trkpt lat="43.7425345" lon="11.3601981"><ele>359.1666666666667</ele><time>2026-04-12T15:13:57.182Z</time></trkpt><trkpt lat="43.742573" lon="11.3600387"><ele>359.0</ele><time>2026-04-12T15:13:59.182Z</time></trkpt><trkpt lat="43.7425781" lon="11.3598947"><ele>359.0</ele><time>2026-04-12T15:14:01.181Z</time></trkpt><trkpt lat="43.7425659" lon="11.3597981"><ele>359.0</ele><time>2026-04-12T15:14:02.182Z</time></trkpt><trkpt lat="43.7425426" lon="11.3596485"><ele>359.0</ele><time>2026-04-12T15:14:04.181Z</time></trkpt><trkpt lat="43.7425042" lon="11.3595493"><ele>359.0</ele><time>2026-04-12T15:14:05.181Z</time></trkpt><trkpt lat="43.74249" lon="11.359454"><ele>359.0</ele><time>2026-04-12T15:14:06.182Z</time></trkpt><trkpt lat="43.7424598" lon="11.3593484"><ele>359.0</ele><time>2026-04-12T15:14:07.181Z</time></trkpt><trkpt lat="43.7424395" lon="11.3591846"><ele>359.4</ele><time>2026-04-12T15:14:09.181Z</time></trkpt><trkpt lat="43.7424687" lon="11.3590909"><ele>359.79999999999995</ele><time>2026-04-12T15:14:10.181Z</time></trkpt><trkpt lat="43.7424818" lon="11.3589854"><ele>360.20000000000005</ele><time>2026-04-12T15:14:11.182Z</time></trkpt><trkpt lat="43.7425124" lon="11.3588601"><ele>360.6</ele><time>2026-04-12T15:14:12.182Z</time></trkpt><trkpt lat="43.7425414" lon="11.3586652"><ele>361.0</ele><time>2026-04-12T15:14:13.182Z</time></trkpt><trkpt lat="43.7425693" lon="11.3585136"><ele>361.6</ele><time>2026-04-12T15:14:14.181Z</time></trkpt><trkpt lat="43.742589" lon="11.358359"><ele>362.20000000000005</ele><time>2026-04-12T15:14:15.182Z</time></trkpt><trkpt lat="43.7426145" lon="11.3582134"><ele>362.79999999999995</ele><time>2026-04-12T15:14:16.181Z</time></trkpt><trkpt lat="43.7426493" lon="11.3580645"><ele>363.4</ele><time>2026-04-12T15:14:17.182Z</time></trkpt><trkpt lat="43.7426272" lon="11.3579524"><ele>364.0</ele><time>2026-04-12T15:14:18.182Z</time></trkpt><trkpt lat="43.7426427" lon="11.3578628"><ele>364.0</ele><time>2026-04-12T15:14:19.181Z</time></trkpt><trkpt lat="43.7426769" lon="11.3577737"><ele>364.0</ele><time>2026-04-12T15:14:20.182Z</time></trkpt><trkpt lat="43.7427052" lon="11.3576722"><ele>364.0</ele><time>2026-04-12T15:14:21.182Z</time></trkpt><trkpt lat="43.7427277" lon="11.357554"><ele>364.0</ele><time>2026-04-12T15:14:22.182Z</time></trkpt><trkpt lat="43.7427402" lon="11.3574404"><ele>364.0</ele><time>2026-04-12T15:14:23.182Z</time></trkpt><trkpt lat="43.7427556" lon="11.3573163"><ele>364.0</ele><time>2026-04-12T15:14:24.181Z</time></trkpt><trkpt lat="43.7427274" lon="11.3571062"><ele>362.8333333333333</ele><time>2026-04-12T15:14:26.181Z</time></trkpt><trkpt lat="43.7427084" lon="11.3570146"><ele>361.66666666666663</ele><time>2026-04-12T15:14:27.181Z</time></trkpt><trkpt lat="43.7426691" lon="11.3569305"><ele>360.5</ele><time>2026-04-12T15:14:28.182Z</time></trkpt><trkpt lat="43.7426097" lon="11.3569603"><ele>359.3333333333333</ele><time>2026-04-12T15:14:29.182Z</time></trkpt><trkpt lat="43.7425494" lon="11.3569182"><ele>358.1666666666667</ele><time>2026-04-12T15:14:30.181Z</time></trkpt><trkpt lat="43.742485" lon="11.3568724"><ele>357.0</ele><time>2026-04-12T15:14:31.182Z</time></trkpt><trkpt lat="43.7424111" lon="11.3567508"><ele>357.0</ele><time>2026-04-12T15:14:32.181Z</time></trkpt><trkpt lat="43.7423423" lon="11.3566821"><ele>357.0</ele><time>2026-04-12T15:14:33.182Z</time></trkpt><trkpt lat="43.7422844" lon="11.3565591"><ele>357.0</ele><time>2026-04-12T15:14:34.181Z</time></trkpt><trkpt lat="43.7422199" lon="11.3564703"><ele>357.0</ele><time>2026-04-12T15:14:35.181Z</time></trkpt><trkpt lat="43.7421822" lon="11.3563664"><ele>357.0</ele><time>2026-04-12T15:14:36.181Z</time></trkpt><trkpt lat="43.7421446" lon="11.3562496"><ele>357.3333333333333</ele><time>2026-04-12T15:14:37.181Z</time></trkpt><trkpt lat="43.7421141" lon="11.3561371"><ele>357.6666666666667</ele><time>2026-04-12T15:14:38.182Z</time></trkpt><trkpt lat="43.7420904" lon="11.3560327"><ele>358.0</ele><time>2026-04-12T15:14:39.181Z</time></trkpt><trkpt lat="43.7420377" lon="11.3559759"><ele>358.33333333333337</ele><time>2026-04-12T15:14:40.181Z</time></trkpt><trkpt lat="43.7419839" lon="11.3559096"><ele>358.6666666666667</ele><time>2026-04-12T15:14:41.182Z</time></trkpt><trkpt lat="43.7419076" lon="11.3558593"><ele>359.0</ele><time>2026-04-12T15:14:42.18Z</time></trkpt><trkpt lat="43.7418267" lon="11.355826"><ele>359.0</ele><time>2026-04-12T15:14:43.181Z</time></trkpt><trkpt lat="43.7417461" lon="11.3558037"><ele>359.0</ele><time>2026-04-12T15:14:44.182Z</time></trkpt><trkpt lat="43.7416624" lon="11.3557646"><ele>359.0</ele><time>2026-04-12T15:14:45.18Z</time></trkpt><trkpt lat="43.7415668" lon="11.3557365"><ele>359.0</ele><time>2026-04-12T15:14:46.182Z</time></trkpt><trkpt lat="43.7414852" lon="11.3557063"><ele>359.0</ele><time>2026-04-12T15:14:47.182Z</time></trkpt><trkpt lat="43.7414133" lon="11.3556594"><ele>359.0</ele><time>2026-04-12T15:14:48.18Z</time></trkpt><trkpt lat="43.7413505" lon="11.3555854"><ele>357.5</ele><time>2026-04-12T15:14:49.181Z</time></trkpt><trkpt lat="43.741284" lon="11.3555009"><ele>356.0</ele><time>2026-04-12T15:14:50.181Z</time></trkpt><trkpt lat="43.7412234" lon="11.3554163"><ele>354.5</ele><time>2026-04-12T15:14:51.181Z</time></trkpt><trkpt lat="43.7411744" lon="11.3553255"><ele>353.0</ele><time>2026-04-12T15:14:52.182Z</time></trkpt><trkpt lat="43.7411253" lon="11.3552358"><ele>351.5</ele><time>2026-04-12T15:14:53.181Z</time></trkpt><trkpt lat="43.7410765" lon="11.3551442"><ele>350.0</ele><time>2026-04-12T15:14:54.181Z</time></trkpt><trkpt lat="43.7410026" lon="11.3549905"><ele>350.0</ele><time>2026-04-12T15:14:56.182Z</time></trkpt><trkpt lat="43.7410039" lon="11.354858"><ele>350.0</ele><time>2026-04-12T15:14:57.182Z</time></trkpt><trkpt lat="43.7409835" lon="11.3547448"><ele>350.0</ele><time>2026-04-12T15:14:58.181Z</time></trkpt><trkpt lat="43.7409694" lon="11.3546349"><ele>350.0</ele><time>2026-04-12T15:14:59.182Z</time></trkpt><trkpt lat="43.7409551" lon="11.3545334"><ele>350.0</ele><time>2026-04-12T15:15:00.182Z</time></trkpt><trkpt lat="43.7409545" lon="11.354423"><ele>350.0</ele><time>2026-04-12T15:15:01.182Z</time></trkpt><trkpt lat="43.7409573" lon="11.3542993"><ele>348.2</ele><time>2026-04-12T15:15:02.182Z</time></trkpt><trkpt lat="43.7409549" lon="11.3541883"><ele>346.4</ele><time>2026-04-12T15:15:03.182Z</time></trkpt><trkpt lat="43.740953" lon="11.3540901"><ele>344.6</ele><time>2026-04-12T15:15:04.181Z</time></trkpt><trkpt lat="43.7410114" lon="11.3539541"><ele>342.8</ele><time>2026-04-12T15:15:06.182Z</time></trkpt><trkpt lat="43.7410351" lon="11.3538029"><ele>341.0</ele><time>2026-04-12T15:15:08.182Z</time></trkpt><trkpt lat="43.7410853" lon="11.3536372"><ele>337.20000000000005</ele><time>2026-04-12T15:15:10.181Z</time></trkpt><trkpt lat="43.741092" lon="11.3535153"><ele>333.40000000000003</ele><time>2026-04-12T15:15:12.182Z</time></trkpt><trkpt lat="43.741178" lon="11.353431"><ele>329.6</ele><time>2026-04-12T15:15:14.181Z</time></trkpt><trkpt lat="43.7412448" lon="11.3533433"><ele>325.8</ele><time>2026-04-12T15:15:16.182Z</time></trkpt><trkpt lat="43.7412253" lon="11.3532437"><ele>322.0</ele><time>2026-04-12T15:15:17.181Z</time></trkpt><trkpt lat="43.741235" lon="11.3530827"><ele>320.40000000000003</ele><time>2026-04-12T15:15:19.181Z</time></trkpt><trkpt lat="43.741255" lon="11.3529522"><ele>318.8</ele><time>2026-04-12T15:15:21.182Z</time></trkpt><trkpt lat="43.7413139" lon="11.3528737"><ele>317.2</ele><time>2026-04-12T15:15:23.182Z</time></trkpt><trkpt lat="43.7413073" lon="11.3527394"><ele>315.6</ele><time>2026-04-12T15:15:25.181Z</time></trkpt><trkpt lat="43.7413585" lon="11.352672"><ele>314.0</ele><time>2026-04-12T15:15:27.182Z</time></trkpt><trkpt lat="43.7414571" lon="11.3525786"><ele>314.0</ele><time>2026-04-12T15:15:29.181Z</time></trkpt><trkpt lat="43.7415219" lon="11.3525205"><ele>314.0</ele><time>2026-04-12T15:15:30.182Z</time></trkpt><trkpt lat="43.741573" lon="11.3524552"><ele>314.0</ele><time>2026-04-12T15:15:31.182Z</time></trkpt><trkpt lat="43.7415971" lon="11.3523421"><ele>314.0</ele><time>2026-04-12T15:15:32.182Z</time></trkpt><trkpt lat="43.7416273" lon="11.3522464"><ele>314.0</ele><time>2026-04-12T15:15:33.182Z</time></trkpt><trkpt lat="43.7416182" lon="11.3521408"><ele>314.0</ele><time>2026-04-12T15:15:34.182Z</time></trkpt><trkpt lat="43.7415501" lon="11.3519908"><ele>312.4</ele><time>2026-04-12T15:15:35.182Z</time></trkpt><trkpt lat="43.7415036" lon="11.3518632"><ele>310.79999999999995</ele><time>2026-04-12T15:15:36.182Z</time></trkpt><trkpt lat="43.7414772" lon="11.3517476"><ele>309.20000000000005</ele><time>2026-04-12T15:15:37.182Z</time></trkpt><trkpt lat="43.7414869" lon="11.3515819"><ele>307.6</ele><time>2026-04-12T15:15:38.182Z</time></trkpt><trkpt lat="43.7414827" lon="11.3514402"><ele>306.0</ele><time>2026-04-12T15:15:39.182Z</time></trkpt><trkpt lat="43.7414763" lon="11.3513044"><ele>303.40000000000003</ele><time>2026-04-12T15:15:40.182Z</time></trkpt><trkpt lat="43.7414696" lon="11.351177"><ele>300.8</ele><time>2026-04-12T15:15:41.182Z</time></trkpt><trkpt lat="43.7414729" lon="11.3510487"><ele>298.20000000000005</ele><time>2026-04-12T15:15:42.182Z</time></trkpt><trkpt lat="43.7414768" lon="11.3509237"><ele>295.6</ele><time>2026-04-12T15:15:43.182Z</time></trkpt><trkpt lat="43.7414686" lon="11.3508234"><ele>293.0</ele><time>2026-04-12T15:15:44.181Z</time></trkpt><trkpt lat="43.7414166" lon="11.3506944"><ele>293.0</ele><time>2026-04-12T15:15:46.182Z</time></trkpt><trkpt lat="43.7413229" lon="11.3506199"><ele>293.0</ele><time>2026-04-12T15:15:48.182Z</time></trkpt><trkpt lat="43.7412652" lon="11.3505805"><ele>293.0</ele><time>2026-04-12T15:15:49.182Z</time></trkpt><trkpt lat="43.7411944" lon="11.3506112"><ele>293.0</ele><time>2026-04-12T15:15:50.181Z</time></trkpt><trkpt lat="43.7411198" lon="11.3506523"><ele>293.0</ele><time>2026-04-12T15:15:51.182Z</time></trkpt><trkpt lat="43.7410469" lon="11.350691"><ele>293.0</ele><time>2026-04-12T15:15:52.181Z</time></trkpt><trkpt lat="43.740959" lon="11.3508263"><ele>292.4</ele><time>2026-04-12T15:15:53.182Z</time></trkpt><trkpt lat="43.7408721" lon="11.3509207"><ele>291.8</ele><time>2026-04-12T15:15:54.181Z</time></trkpt><trkpt lat="43.7407824" lon="11.3510314"><ele>291.2</ele><time>2026-04-12T15:15:55.182Z</time></trkpt><trkpt lat="43.7406985" lon="11.3511245"><ele>290.6</ele><time>2026-04-12T15:15:56.182Z</time></trkpt><trkpt lat="43.7406096" lon="11.3511789"><ele>290.0</ele><time>2026-04-12T15:15:57.182Z</time></trkpt><trkpt lat="43.7405263" lon="11.3512223"><ele>290.0</ele><time>2026-04-12T15:15:58.181Z</time></trkpt><trkpt lat="43.7404449" lon="11.3512536"><ele>290.0</ele><time>2026-04-12T15:15:59.181Z</time></trkpt><trkpt lat="43.7403532" lon="11.3512804"><ele>290.0</ele><time>2026-04-12T15:16:00.182Z</time></trkpt><trkpt lat="43.740264" lon="11.3512978"><ele>290.0</ele><time>2026-04-12T15:16:01.182Z</time></trkpt><trkpt lat="43.7401698" lon="11.3513174"><ele>290.0</ele><time>2026-04-12T15:16:02.182Z</time></trkpt><trkpt lat="43.7400806" lon="11.3513488"><ele>290.2</ele><time>2026-04-12T15:16:03.181Z</time></trkpt><trkpt lat="43.739984" lon="11.3514082"><ele>290.4</ele><time>2026-04-12T15:16:04.182Z</time></trkpt><trkpt lat="43.7398954" lon="11.3514667"><ele>290.6</ele><time>2026-04-12T15:16:05.181Z</time></trkpt><trkpt lat="43.7398114" lon="11.3515129"><ele>290.8</ele><time>2026-04-12T15:16:06.182Z</time></trkpt><trkpt lat="43.739739" lon="11.3515261"><ele>291.0</ele><time>2026-04-12T15:16:07.182Z</time></trkpt><trkpt lat="43.7396394" lon="11.3514127"><ele>287.6</ele><time>2026-04-12T15:16:09.181Z</time></trkpt><trkpt lat="43.7396027" lon="11.3512974"><ele>284.20000000000005</ele><time>2026-04-12T15:16:10.182Z</time></trkpt><trkpt lat="43.7395639" lon="11.3511367"><ele>280.79999999999995</ele><time>2026-04-12T15:16:11.182Z</time></trkpt><trkpt lat="43.7395271" lon="11.3509961"><ele>277.4</ele><time>2026-04-12T15:16:12.181Z</time></trkpt><trkpt lat="43.7394799" lon="11.3508747"><ele>274.0</ele><time>2026-04-12T15:16:13.182Z</time></trkpt><trkpt lat="43.7394316" lon="11.3507524"><ele>272.75</ele><time>2026-04-12T15:16:14.182Z</time></trkpt><trkpt lat="43.7393026" lon="11.3506411"><ele>271.5</ele><time>2026-04-12T15:16:15.182Z</time></trkpt><trkpt lat="43.7392057" lon="11.3505134"><ele>270.25</ele><time>2026-04-12T15:16:16.182Z</time></trkpt><trkpt lat="43.7391098" lon="11.3503915"><ele>269.0</ele><time>2026-04-12T15:16:17.182Z</time></trkpt><trkpt lat="43.7390256" lon="11.3502831"><ele>269.0</ele><time>2026-04-12T15:16:18.182Z</time></trkpt><trkpt lat="43.7389418" lon="11.3501863"><ele>269.0</ele><time>2026-04-12T15:16:19.182Z</time></trkpt><trkpt lat="43.7388589" lon="11.3501144"><ele>269.0</ele><time>2026-04-12T15:16:20.182Z</time></trkpt><trkpt lat="43.7387766" lon="11.3500606"><ele>269.0</ele><time>2026-04-12T15:16:21.182Z</time></trkpt><trkpt lat="43.7386993" lon="11.3500237"><ele>269.0</ele><time>2026-04-12T15:16:22.181Z</time></trkpt><trkpt lat="43.7386404" lon="11.3499897"><ele>269.0</ele><time>2026-04-12T15:16:23.182Z</time></trkpt><trkpt lat="43.7385632" lon="11.3499498"><ele>270.83333333333337</ele><time>2026-04-12T15:16:25.182Z</time></trkpt><trkpt lat="43.7384891" lon="11.3499511"><ele>272.6666666666667</ele><time>2026-04-12T15:16:27.181Z</time></trkpt><trkpt lat="43.7383594" lon="11.350013"><ele>274.5</ele><time>2026-04-12T15:16:29.182Z</time></trkpt><trkpt lat="43.7382966" lon="11.3500359"><ele>276.3333333333333</ele><time>2026-04-12T15:16:30.181Z</time></trkpt><trkpt lat="43.7382149" lon="11.3499983"><ele>278.16666666666663</ele><time>2026-04-12T15:16:33.181Z</time></trkpt><trkpt lat="43.7381902" lon="11.3499114"><ele>280.0</ele><time>2026-04-12T15:16:34.182Z</time></trkpt><trkpt lat="43.7381536" lon="11.3498242"><ele>280.0</ele><time>2026-04-12T15:16:35.182Z</time></trkpt><trkpt lat="43.7381066" lon="11.3497267"><ele>280.0</ele><time>2026-04-12T15:16:36.182Z</time></trkpt><trkpt lat="43.7380611" lon="11.3496363"><ele>280.0</ele><time>2026-04-12T15:16:37.181Z</time></trkpt><trkpt lat="43.7380215" lon="11.3495491"><ele>280.0</ele><time>2026-04-12T15:16:38.181Z</time></trkpt><trkpt lat="43.737973" lon="11.3494699"><ele>280.0</ele><time>2026-04-12T15:16:39.182Z</time></trkpt><trkpt lat="43.7379306" lon="11.3493827"><ele>280.0</ele><time>2026-04-12T15:16:40.182Z</time></trkpt><trkpt lat="43.7378855" lon="11.3492929"><ele>279.3333333333333</ele><time>2026-04-12T15:16:41.182Z</time></trkpt><trkpt lat="43.7378584" lon="11.3492097"><ele>278.66666666666663</ele><time>2026-04-12T15:16:42.181Z</time></trkpt><trkpt lat="43.7378057" lon="11.3491583"><ele>278.0</ele><time>2026-04-12T15:16:44.182Z</time></trkpt><trkpt lat="43.7377314" lon="11.3491375"><ele>277.3333333333333</ele><time>2026-04-12T15:16:47.182Z</time></trkpt><trkpt lat="43.7376741" lon="11.3490929"><ele>276.6666666666667</ele><time>2026-04-12T15:16:50.182Z</time></trkpt><trkpt lat="43.7377034" lon="11.3489618"><ele>276.0</ele><time>2026-04-12T15:16:52.181Z</time></trkpt><trkpt lat="43.7377427" lon="11.348861"><ele>274.40000000000003</ele><time>2026-04-12T15:16:53.182Z</time></trkpt><trkpt lat="43.7377828" lon="11.3487348"><ele>272.8</ele><time>2026-04-12T15:16:54.182Z</time></trkpt><trkpt lat="43.7378311" lon="11.3485981"><ele>271.20000000000005</ele><time>2026-04-12T15:16:55.181Z</time></trkpt><trkpt lat="43.7378814" lon="11.3484594"><ele>269.6</ele><time>2026-04-12T15:16:56.182Z</time></trkpt><trkpt lat="43.737925" lon="11.3483379"><ele>268.0</ele><time>2026-04-12T15:16:57.181Z</time></trkpt><trkpt lat="43.7379666" lon="11.3482441"><ele>268.0</ele><time>2026-04-12T15:16:58.182Z</time></trkpt><trkpt lat="43.7380154" lon="11.3481731"><ele>268.0</ele><time>2026-04-12T15:16:59.182Z</time></trkpt><trkpt lat="43.7380649" lon="11.3480971"><ele>268.0</ele><time>2026-04-12T15:17:00.181Z</time></trkpt><trkpt lat="43.7381006" lon="11.3480133"><ele>268.0</ele><time>2026-04-12T15:17:01.182Z</time></trkpt><trkpt lat="43.738117" lon="11.3478475"><ele>268.0</ele><time>2026-04-12T15:17:03.182Z</time></trkpt><trkpt lat="43.7381057" lon="11.3477537"><ele>268.0</ele><time>2026-04-12T15:17:04.182Z</time></trkpt><trkpt lat="43.7380926" lon="11.3476627"><ele>267.8333333333333</ele><time>2026-04-12T15:17:05.181Z</time></trkpt><trkpt lat="43.7380736" lon="11.3475711"><ele>267.66666666666663</ele><time>2026-04-12T15:17:06.181Z</time></trkpt><trkpt lat="43.7380564" lon="11.3474757"><ele>267.5</ele><time>2026-04-12T15:17:07.182Z</time></trkpt><trkpt lat="43.73804" lon="11.3473698"><ele>267.3333333333333</ele><time>2026-04-12T15:17:08.182Z</time></trkpt><trkpt lat="43.738023" lon="11.3472559"><ele>267.1666666666667</ele><time>2026-04-12T15:17:09.181Z</time></trkpt><trkpt lat="43.7380067" lon="11.3471316"><ele>267.0</ele><time>2026-04-12T15:17:10.181Z</time></trkpt><trkpt lat="43.7379896" lon="11.3470011"><ele>267.0</ele><time>2026-04-12T15:17:11.181Z</time></trkpt><trkpt lat="43.737968" lon="11.3468818"><ele>267.0</ele><time>2026-04-12T15:17:12.182Z</time></trkpt><trkpt lat="43.7379514" lon="11.3467707"><ele>267.0</ele><time>2026-04-12T15:17:13.181Z</time></trkpt><trkpt lat="43.7379308" lon="11.3466574"><ele>267.0</ele><time>2026-04-12T15:17:14.181Z</time></trkpt><trkpt lat="43.7379105" lon="11.3465377"><ele>267.0</ele><time>2026-04-12T15:17:15.181Z</time></trkpt><trkpt lat="43.7378928" lon="11.3464207"><ele>267.0</ele><time>2026-04-12T15:17:16.181Z</time></trkpt><trkpt lat="43.7378777" lon="11.3463186"><ele>265.8333333333333</ele><time>2026-04-12T15:17:17.182Z</time></trkpt><trkpt lat="43.7378683" lon="11.346224"><ele>264.6666666666667</ele><time>2026-04-12T15:17:18.181Z</time></trkpt><trkpt lat="43.7378564" lon="11.3461158"><ele>263.5</ele><time>2026-04-12T15:17:19.182Z</time></trkpt><trkpt lat="43.7378389" lon="11.3460042"><ele>262.33333333333337</ele><time>2026-04-12T15:17:20.182Z</time></trkpt><trkpt lat="43.7378226" lon="11.3459025"><ele>261.1666666666667</ele><time>2026-04-12T15:17:21.182Z</time></trkpt><trkpt lat="43.7378049" lon="11.3457868"><ele>260.0</ele><time>2026-04-12T15:17:22.182Z</time></trkpt><trkpt lat="43.7377932" lon="11.3456922"><ele>260.0</ele><time>2026-04-12T15:17:23.181Z</time></trkpt><trkpt lat="43.7377797" lon="11.345604"><ele>260.0</ele><time>2026-04-12T15:17:24.182Z</time></trkpt><trkpt lat="43.7377462" lon="11.3454504"><ele>260.0</ele><time>2026-04-12T15:17:26.182Z</time></trkpt><trkpt lat="43.7376695" lon="11.3453127"><ele>260.0</ele><time>2026-04-12T15:17:28.181Z</time></trkpt><trkpt lat="43.7376175" lon="11.3452137"><ele>260.0</ele><time>2026-04-12T15:17:29.181Z</time></trkpt><trkpt lat="43.737559" lon="11.3451102"><ele>258.6</ele><time>2026-04-12T15:17:30.182Z</time></trkpt><trkpt lat="43.7375" lon="11.3450068"><ele>257.2</ele><time>2026-04-12T15:17:31.182Z</time></trkpt><trkpt lat="43.7374464" lon="11.3449026"><ele>255.8</ele><time>2026-04-12T15:17:32.182Z</time></trkpt><trkpt lat="43.7373917" lon="11.3447959"><ele>254.4</ele><time>2026-04-12T15:17:33.182Z</time></trkpt><trkpt lat="43.737337" lon="11.3446896"><ele>253.0</ele><time>2026-04-12T15:17:34.182Z</time></trkpt><trkpt lat="43.737278" lon="11.3445837"><ele>251.4</ele><time>2026-04-12T15:17:35.181Z</time></trkpt><trkpt lat="43.737208" lon="11.3444844"><ele>249.8</ele><time>2026-04-12T15:17:36.181Z</time></trkpt><trkpt lat="43.737132" lon="11.3443772"><ele>248.2</ele><time>2026-04-12T15:17:37.182Z</time></trkpt><trkpt lat="43.7370475" lon="11.344282"><ele>246.6</ele><time>2026-04-12T15:17:38.182Z</time></trkpt><trkpt lat="43.7369666" lon="11.3441776"><ele>245.0</ele><time>2026-04-12T15:17:39.181Z</time></trkpt><trkpt lat="43.7368915" lon="11.3440604"><ele>243.0</ele><time>2026-04-12T15:17:40.182Z</time></trkpt><trkpt lat="43.736814" lon="11.3439546"><ele>241.0</ele><time>2026-04-12T15:17:41.182Z</time></trkpt><trkpt lat="43.7367457" lon="11.3438662"><ele>239.0</ele><time>2026-04-12T15:17:42.182Z</time></trkpt><trkpt lat="43.7366781" lon="11.3437728"><ele>237.0</ele><time>2026-04-12T15:17:43.182Z</time></trkpt><trkpt lat="43.7366284" lon="11.343694"><ele>235.0</ele><time>2026-04-12T15:17:44.181Z</time></trkpt><trkpt lat="43.736564" lon="11.3435692"><ele>234.99999999999997</ele><time>2026-04-12T15:17:46.182Z</time></trkpt><trkpt lat="43.7365021" lon="11.3436095"><ele>235.0</ele><time>2026-04-12T15:17:49.181Z</time></trkpt><trkpt lat="43.7364886" lon="11.3437956"><ele>235.0</ele><time>2026-04-12T15:17:51.181Z</time></trkpt><trkpt lat="43.7364907" lon="11.3438891"><ele>235.0</ele><time>2026-04-12T15:17:52.181Z</time></trkpt><trkpt lat="43.7365044" lon="11.3439797"><ele>234.99999999999997</ele><time>2026-04-12T15:17:53.181Z</time></trkpt><trkpt lat="43.7365009" lon="11.3441074"><ele>235.0</ele><time>2026-04-12T15:17:55.182Z</time></trkpt><trkpt lat="43.7364233" lon="11.3440701"><ele>235.0</ele><time>2026-04-12T15:17:59.182Z</time></trkpt><trkpt lat="43.736355" lon="11.3439178"><ele>235.0</ele><time>2026-04-12T15:18:01.182Z</time></trkpt><trkpt lat="43.7363047" lon="11.3438122"><ele>235.0</ele><time>2026-04-12T15:18:02.182Z</time></trkpt><trkpt lat="43.7362518" lon="11.343694"><ele>235.0</ele><time>2026-04-12T15:18:03.182Z</time></trkpt><trkpt lat="43.7362007" lon="11.3435694"><ele>235.0</ele><time>2026-04-12T15:18:04.181Z</time></trkpt><trkpt lat="43.7361557" lon="11.3434366"><ele>234.25</ele><time>2026-04-12T15:18:05.181Z</time></trkpt><trkpt lat="43.7361095" lon="11.343282"><ele>233.5</ele><time>2026-04-12T15:18:06.181Z</time></trkpt><trkpt lat="43.7360628" lon="11.3431236"><ele>232.75</ele><time>2026-04-12T15:18:07.182Z</time></trkpt><trkpt lat="43.7360204" lon="11.3429662"><ele>232.0</ele><time>2026-04-12T15:18:08.182Z</time></trkpt><trkpt lat="43.7359806" lon="11.3428068"><ele>227.5</ele><time>2026-04-12T15:18:09.182Z</time></trkpt><trkpt lat="43.7359472" lon="11.342647"><ele>223.0</ele><time>2026-04-12T15:18:10.181Z</time></trkpt><trkpt lat="43.7359131" lon="11.3424937"><ele>218.5</ele><time>2026-04-12T15:18:11.182Z</time></trkpt><trkpt lat="43.7358889" lon="11.3423424"><ele>214.0</ele><time>2026-04-12T15:18:12.182Z</time></trkpt><trkpt lat="43.7358818" lon="11.3421899"><ele>212.5</ele><time>2026-04-12T15:18:13.182Z</time></trkpt><trkpt lat="43.7358916" lon="11.3420169"><ele>211.0</ele><time>2026-04-12T15:18:14.181Z</time></trkpt><trkpt lat="43.735913" lon="11.3418341"><ele>209.5</ele><time>2026-04-12T15:18:15.182Z</time></trkpt><trkpt lat="43.7359297" lon="11.3416522"><ele>208.0</ele><time>2026-04-12T15:18:16.181Z</time></trkpt><trkpt lat="43.7359348" lon="11.3414754"><ele>206.2</ele><time>2026-04-12T15:18:17.181Z</time></trkpt><trkpt lat="43.7359361" lon="11.3413102"><ele>204.4</ele><time>2026-04-12T15:18:18.182Z</time></trkpt><trkpt lat="43.7359351" lon="11.3411596"><ele>202.6</ele><time>2026-04-12T15:18:19.181Z</time></trkpt><trkpt lat="43.7359343" lon="11.3410273"><ele>200.79999999999998</ele><time>2026-04-12T15:18:20.182Z</time></trkpt><trkpt lat="43.7359311" lon="11.3409129"><ele>199.0</ele><time>2026-04-12T15:18:21.181Z</time></trkpt><trkpt lat="43.7359244" lon="11.3408251"><ele>198.99999999999997</ele><time>2026-04-12T15:18:22.182Z</time></trkpt><trkpt lat="43.7359177" lon="11.3406958"><ele>199.0</ele><time>2026-04-12T15:18:24.181Z</time></trkpt><trkpt lat="43.7358865" lon="11.3405999"><ele>199.0</ele><time>2026-04-12T15:18:29.181Z</time></trkpt><trkpt lat="43.7357988" lon="11.3405717"><ele>199.0</ele><time>2026-04-12T15:18:31.181Z</time></trkpt><trkpt lat="43.7357295" lon="11.3405947"><ele>198.99999999999997</ele><time>2026-04-12T15:18:32.181Z</time></trkpt><trkpt lat="43.7356485" lon="11.340613"><ele>199.0</ele><time>2026-04-12T15:18:33.181Z</time></trkpt><trkpt lat="43.7355493" lon="11.3406978"><ele>199.0</ele><time>2026-04-12T15:18:34.181Z</time></trkpt><trkpt lat="43.7354248" lon="11.3407744"><ele>199.0</ele><time>2026-04-12T15:18:35.181Z</time></trkpt><trkpt lat="43.7352873" lon="11.340867"><ele>199.0</ele><time>2026-04-12T15:18:36.182Z</time></trkpt><trkpt lat="43.7351232" lon="11.3409602"><ele>196.66666666666666</ele><time>2026-04-12T15:18:37.182Z</time></trkpt><trkpt lat="43.7349385" lon="11.341051"><ele>194.33333333333331</ele><time>2026-04-12T15:18:38.182Z</time></trkpt><trkpt lat="43.7347806" lon="11.341123"><ele>192.0</ele><time>2026-04-12T15:18:39.182Z</time></trkpt><trkpt lat="43.7346339" lon="11.3411816"><ele>192.0</ele><time>2026-04-12T15:18:40.182Z</time></trkpt><trkpt lat="43.7345187" lon="11.3412186"><ele>192.0</ele><time>2026-04-12T15:18:41.181Z</time></trkpt><trkpt lat="43.7344313" lon="11.3412347"><ele>192.0</ele><time>2026-04-12T15:18:42.182Z</time></trkpt><trkpt lat="43.734315" lon="11.341203"><ele>192.0</ele><time>2026-04-12T15:18:44.182Z</time></trkpt><trkpt lat="43.7343159" lon="11.3411032"><ele>192.0</ele><time>2026-04-12T15:18:45.181Z</time></trkpt><trkpt lat="43.7342975" lon="11.3410065"><ele>191.8</ele><time>2026-04-12T15:18:46.182Z</time></trkpt><trkpt lat="43.7342919" lon="11.3408904"><ele>191.6</ele><time>2026-04-12T15:18:47.182Z</time></trkpt><trkpt lat="43.7342924" lon="11.340761"><ele>191.4</ele><time>2026-04-12T15:18:48.182Z</time></trkpt><trkpt lat="43.7342923" lon="11.3406294"><ele>191.20000000000002</ele><time>2026-04-12T15:18:49.182Z</time></trkpt><trkpt lat="43.734289" lon="11.3404975"><ele>191.0</ele><time>2026-04-12T15:18:50.181Z</time></trkpt><trkpt lat="43.7342852" lon="11.3403691"><ele>191.0</ele><time>2026-04-12T15:18:51.181Z</time></trkpt><trkpt lat="43.7342882" lon="11.3402353"><ele>191.0</ele><time>2026-04-12T15:18:52.181Z</time></trkpt><trkpt lat="43.7342857" lon="11.3400948"><ele>191.0</ele><time>2026-04-12T15:18:53.182Z</time></trkpt><trkpt lat="43.7342882" lon="11.3399552"><ele>191.0</ele><time>2026-04-12T15:18:54.181Z</time></trkpt><trkpt lat="43.7342909" lon="11.3398101"><ele>191.0</ele><time>2026-04-12T15:18:55.182Z</time></trkpt><trkpt lat="43.7342974" lon="11.3396703"><ele>190.4</ele><time>2026-04-12T15:18:56.182Z</time></trkpt><trkpt lat="43.7343045" lon="11.3395394"><ele>189.8</ele><time>2026-04-12T15:18:57.181Z</time></trkpt><trkpt lat="43.7343112" lon="11.3394118"><ele>189.20000000000002</ele><time>2026-04-12T15:18:58.182Z</time></trkpt><trkpt lat="43.734322" lon="11.3392776"><ele>188.60000000000002</ele><time>2026-04-12T15:18:59.182Z</time></trkpt><trkpt lat="43.73434" lon="11.3391359"><ele>188.0</ele><time>2026-04-12T15:19:00.181Z</time></trkpt><trkpt lat="43.7343625" lon="11.3389951"><ele>186.8</ele><time>2026-04-12T15:19:01.181Z</time></trkpt><trkpt lat="43.7343907" lon="11.3388596"><ele>185.60000000000002</ele><time>2026-04-12T15:19:02.181Z</time></trkpt><trkpt lat="43.7344286" lon="11.3387234"><ele>184.39999999999998</ele><time>2026-04-12T15:19:03.182Z</time></trkpt><trkpt lat="43.7344673" lon="11.3385851"><ele>183.2</ele><time>2026-04-12T15:19:04.182Z</time></trkpt><trkpt lat="43.7345022" lon="11.338457"><ele>182.0</ele><time>2026-04-12T15:19:05.182Z</time></trkpt><trkpt lat="43.7345379" lon="11.3383337"><ele>182.0</ele><time>2026-04-12T15:19:06.182Z</time></trkpt><trkpt lat="43.7345698" lon="11.3382287"><ele>182.0</ele><time>2026-04-12T15:19:07.182Z</time></trkpt><trkpt lat="43.7346036" lon="11.3381372"><ele>182.0</ele><time>2026-04-12T15:19:08.181Z</time></trkpt><trkpt lat="43.7346533" lon="11.3380419"><ele>182.0</ele><time>2026-04-12T15:19:09.182Z</time></trkpt><trkpt lat="43.7347082" lon="11.3379393"><ele>182.0</ele><time>2026-04-12T15:19:10.182Z</time></trkpt><trkpt lat="43.7347567" lon="11.3378168"><ele>182.0</ele><time>2026-04-12T15:19:11.182Z</time></trkpt><trkpt lat="43.7348085" lon="11.337694"><ele>181.8</ele><time>2026-04-12T15:19:12.181Z</time></trkpt><trkpt lat="43.7348605" lon="11.3375801"><ele>181.6</ele><time>2026-04-12T15:19:13.181Z</time></trkpt><trkpt lat="43.7349173" lon="11.3374565"><ele>181.4</ele><time>2026-04-12T15:19:14.181Z</time></trkpt><trkpt lat="43.7349776" lon="11.337332"><ele>181.20000000000002</ele><time>2026-04-12T15:19:15.182Z</time></trkpt><trkpt lat="43.7350417" lon="11.3372063"><ele>181.0</ele><time>2026-04-12T15:19:16.181Z</time></trkpt><trkpt lat="43.7351092" lon="11.3370719"><ele>179.75</ele><time>2026-04-12T15:19:17.181Z</time></trkpt><trkpt lat="43.735184" lon="11.3369179"><ele>178.5</ele><time>2026-04-12T15:19:18.182Z</time></trkpt><trkpt lat="43.7352613" lon="11.3367528"><ele>177.25</ele><time>2026-04-12T15:19:19.182Z</time></trkpt><trkpt lat="43.735331" lon="11.3365924"><ele>176.0</ele><time>2026-04-12T15:19:20.181Z</time></trkpt><trkpt lat="43.7353993" lon="11.3364358"><ele>173.8</ele><time>2026-04-12T15:19:21.181Z</time></trkpt><trkpt lat="43.7354648" lon="11.3362961"><ele>171.60000000000002</ele><time>2026-04-12T15:19:22.182Z</time></trkpt><trkpt lat="43.735523" lon="11.3361718"><ele>169.4</ele><time>2026-04-12T15:19:23.182Z</time></trkpt><trkpt lat="43.7355717" lon="11.3360579"><ele>167.2</ele><time>2026-04-12T15:19:24.182Z</time></trkpt><trkpt lat="43.7356182" lon="11.3359544"><ele>165.0</ele><time>2026-04-12T15:19:25.181Z</time></trkpt><trkpt lat="43.7356645" lon="11.3358579"><ele>165.0</ele><time>2026-04-12T15:19:26.182Z</time></trkpt><trkpt lat="43.7357349" lon="11.3357339"><ele>165.0</ele><time>2026-04-12T15:19:28.182Z</time></trkpt><trkpt lat="43.7357765" lon="11.3356569"><ele>165.0</ele><time>2026-04-12T15:19:29.182Z</time></trkpt><trkpt lat="43.7358269" lon="11.3355702"><ele>165.0</ele><time>2026-04-12T15:19:30.181Z</time></trkpt><trkpt lat="43.7358863" lon="11.3354706"><ele>165.0</ele><time>2026-04-12T15:19:31.181Z</time></trkpt><trkpt lat="43.735951" lon="11.3353631"><ele>164.75</ele><time>2026-04-12T15:19:32.181Z</time></trkpt><trkpt lat="43.7360233" lon="11.3352495"><ele>164.5</ele><time>2026-04-12T15:19:33.182Z</time></trkpt><trkpt lat="43.7361018" lon="11.3351115"><ele>164.25</ele><time>2026-04-12T15:19:34.182Z</time></trkpt><trkpt lat="43.7361826" lon="11.334974"><ele>164.0</ele><time>2026-04-12T15:19:35.181Z</time></trkpt><trkpt lat="43.7362593" lon="11.3348386"><ele>161.0</ele><time>2026-04-12T15:19:36.181Z</time></trkpt><trkpt lat="43.7363366" lon="11.3346999"><ele>158.0</ele><time>2026-04-12T15:19:37.182Z</time></trkpt><trkpt lat="43.7364177" lon="11.3345557"><ele>155.0</ele><time>2026-04-12T15:19:38.181Z</time></trkpt><trkpt lat="43.7364926" lon="11.3344234"><ele>152.0</ele><time>2026-04-12T15:19:39.181Z</time></trkpt><trkpt lat="43.7365546" lon="11.334298"><ele>152.0</ele><time>2026-04-12T15:19:40.182Z</time></trkpt><trkpt lat="43.7366129" lon="11.334181"><ele>152.0</ele><time>2026-04-12T15:19:41.18Z</time></trkpt><trkpt lat="43.7366781" lon="11.3340847"><ele>152.0</ele><time>2026-04-12T15:19:42.181Z</time></trkpt><trkpt lat="43.7367575" lon="11.3339848"><ele>152.0</ele><time>2026-04-12T15:19:43.18Z</time></trkpt><trkpt lat="43.7368337" lon="11.3338617"><ele>152.0</ele><time>2026-04-12T15:19:44.18Z</time></trkpt><trkpt lat="43.7369147" lon="11.3337344"><ele>154.25</ele><time>2026-04-12T15:19:45.181Z</time></trkpt><trkpt lat="43.7369978" lon="11.3336147"><ele>156.5</ele><time>2026-04-12T15:19:46.18Z</time></trkpt><trkpt lat="43.7370697" lon="11.3334776"><ele>158.75</ele><time>2026-04-12T15:19:47.181Z</time></trkpt><trkpt lat="43.7371393" lon="11.3333305"><ele>161.0</ele><time>2026-04-12T15:19:48.18Z</time></trkpt><trkpt lat="43.7372117" lon="11.3331881"><ele>161.0</ele><time>2026-04-12T15:19:49.181Z</time></trkpt><trkpt lat="43.737289" lon="11.3330673"><ele>161.0</ele><time>2026-04-12T15:19:50.181Z</time></trkpt><trkpt lat="43.7373671" lon="11.3329676"><ele>161.0</ele><time>2026-04-12T15:19:51.18Z</time></trkpt><trkpt lat="43.7374389" lon="11.3328457"><ele>161.0</ele><time>2026-04-12T15:19:52.181Z</time></trkpt><trkpt lat="43.7375038" lon="11.3327111"><ele>161.0</ele><time>2026-04-12T15:19:53.181Z</time></trkpt><trkpt lat="43.7375782" lon="11.3325896"><ele>161.0</ele><time>2026-04-12T15:19:54.18Z</time></trkpt><trkpt lat="43.7376616" lon="11.3324708"><ele>161.0</ele><time>2026-04-12T15:19:55.18Z</time></trkpt><trkpt lat="43.7377329" lon="11.332352"><ele>161.0</ele><time>2026-04-12T15:19:56.181Z</time></trkpt><trkpt lat="43.737798" lon="11.3322439"><ele>161.0</ele><time>2026-04-12T15:19:57.18Z</time></trkpt><trkpt lat="43.737862" lon="11.3321405"><ele>160.8</ele><time>2026-04-12T15:19:58.181Z</time></trkpt><trkpt lat="43.7379244" lon="11.3320401"><ele>160.60000000000002</ele><time>2026-04-12T15:19:59.181Z</time></trkpt><trkpt lat="43.7379811" lon="11.3319511"><ele>160.4</ele><time>2026-04-12T15:20:00.181Z</time></trkpt><trkpt lat="43.738041" lon="11.3318591"><ele>160.2</ele><time>2026-04-12T15:20:01.18Z</time></trkpt><trkpt lat="43.7381567" lon="11.3317715"><ele>160.0</ele><time>2026-04-12T15:20:03.18Z</time></trkpt><trkpt lat="43.7382264" lon="11.3317446"><ele>160.0</ele><time>2026-04-12T15:20:04.181Z</time></trkpt><trkpt lat="43.7383007" lon="11.3317197"><ele>160.0</ele><time>2026-04-12T15:20:05.18Z</time></trkpt><trkpt lat="43.7383788" lon="11.331711"><ele>160.0</ele><time>2026-04-12T15:20:06.18Z</time></trkpt><trkpt lat="43.7384679" lon="11.3317107"><ele>160.0</ele><time>2026-04-12T15:20:07.181Z</time></trkpt><trkpt lat="43.7385732" lon="11.3316943"><ele>160.0</ele><time>2026-04-12T15:20:08.181Z</time></trkpt><trkpt lat="43.738682" lon="11.3316824"><ele>156.75</ele><time>2026-04-12T15:20:09.18Z</time></trkpt><trkpt lat="43.7388093" lon="11.3316759"><ele>153.5</ele><time>2026-04-12T15:20:10.18Z</time></trkpt><trkpt lat="43.7389279" lon="11.3316691"><ele>150.25</ele><time>2026-04-12T15:20:11.181Z</time></trkpt><trkpt lat="43.7390598" lon="11.3316526"><ele>147.0</ele><time>2026-04-12T15:20:12.181Z</time></trkpt><trkpt lat="43.7391908" lon="11.3316565"><ele>147.0</ele><time>2026-04-12T15:20:13.181Z</time></trkpt><trkpt lat="43.739361" lon="11.3316394"><ele>147.0</ele><time>2026-04-12T15:20:14.18Z</time></trkpt><trkpt lat="43.7395374" lon="11.3316444"><ele>147.0</ele><time>2026-04-12T15:20:15.181Z</time></trkpt><trkpt lat="43.7397282" lon="11.3316334"><ele>145.66666666666666</ele><time>2026-04-12T15:20:16.181Z</time></trkpt><trkpt lat="43.7399141" lon="11.331615"><ele>144.33333333333331</ele><time>2026-04-12T15:20:17.18Z</time></trkpt><trkpt lat="43.740132" lon="11.3316024"><ele>143.0</ele><time>2026-04-12T15:20:18.18Z</time></trkpt><trkpt lat="43.740371" lon="11.3315827"><ele>147.0</ele><time>2026-04-12T15:20:19.181Z</time></trkpt><trkpt lat="43.7406178" lon="11.3315686"><ele>151.0</ele><time>2026-04-12T15:20:20.181Z</time></trkpt><trkpt lat="43.7408268" lon="11.3315515"><ele>151.0</ele><time>2026-04-12T15:20:21.18Z</time></trkpt><trkpt lat="43.7410371" lon="11.3315369"><ele>151.0</ele><time>2026-04-12T15:20:22.181Z</time></trkpt><trkpt lat="43.741122" lon="11.3315309"><ele>151.0</ele><time>2026-04-12T15:20:23.18Z</time></trkpt><trkpt lat="43.7412272" lon="11.3315218"><ele>151.0</ele><time>2026-04-12T15:20:24.181Z</time></trkpt><trkpt lat="43.7412982" lon="11.3315165"><ele>151.0</ele><time>2026-04-12T15:20:25.18Z</time></trkpt><trkpt lat="43.7413631" lon="11.3314839"><ele>151.0</ele><time>2026-04-12T15:20:27.18Z</time></trkpt><trkpt lat="43.7413505" lon="11.3313448"><ele>151.0</ele><time>2026-04-12T15:20:42.18Z</time></trkpt><trkpt lat="43.7413247" lon="11.3312482"><ele>151.0</ele><time>2026-04-12T15:20:43.18Z</time></trkpt><trkpt lat="43.7412949" lon="11.3311364"><ele>151.0</ele><time>2026-04-12T15:20:44.181Z</time></trkpt><trkpt lat="43.7412582" lon="11.3310053"><ele>151.0</ele><time>2026-04-12T15:20:45.179Z</time></trkpt><trkpt lat="43.7412195" lon="11.3308733"><ele>151.0</ele><time>2026-04-12T15:20:46.181Z</time></trkpt><trkpt lat="43.7411802" lon="11.3307427"><ele>151.0</ele><time>2026-04-12T15:20:47.18Z</time></trkpt><trkpt lat="43.7411409" lon="11.3306171"><ele>151.0</ele><time>2026-04-12T15:20:48.181Z</time></trkpt><trkpt lat="43.741098" lon="11.3304893"><ele>151.0</ele><time>2026-04-12T15:20:49.18Z</time></trkpt><trkpt lat="43.7410567" lon="11.3303671"><ele>151.0</ele><time>2026-04-12T15:20:50.181Z</time></trkpt><trkpt lat="43.7410174" lon="11.330245"><ele>151.0</ele><time>2026-04-12T15:20:51.181Z</time></trkpt><trkpt lat="43.740977" lon="11.330117"><ele>151.0</ele><time>2026-04-12T15:20:52.181Z</time></trkpt><trkpt lat="43.7409344" lon="11.3299798"><ele>151.0</ele><time>2026-04-12T15:20:53.181Z</time></trkpt><trkpt lat="43.7408966" lon="11.3298314"><ele>151.0</ele><time>2026-04-12T15:20:54.181Z</time></trkpt><trkpt lat="43.7408602" lon="11.3296583"><ele>150.33333333333334</ele><time>2026-04-12T15:20:55.181Z</time></trkpt><trkpt lat="43.7408235" lon="11.329459"><ele>149.66666666666666</ele><time>2026-04-12T15:20:56.181Z</time></trkpt><trkpt lat="43.7407986" lon="11.329237"><ele>149.0</ele><time>2026-04-12T15:20:57.181Z</time></trkpt><trkpt lat="43.7407689" lon="11.3290226"><ele>148.5</ele><time>2026-04-12T15:20:58.181Z</time></trkpt><trkpt lat="43.7407353" lon="11.3288167"><ele>148.0</ele><time>2026-04-12T15:20:59.179Z</time></trkpt><trkpt lat="43.740703" lon="11.3286235"><ele>147.5</ele><time>2026-04-12T15:21:00.181Z</time></trkpt><trkpt lat="43.7406761" lon="11.3284234"><ele>147.0</ele><time>2026-04-12T15:21:01.181Z</time></trkpt><trkpt lat="43.7406455" lon="11.3282264"><ele>146.75</ele><time>2026-04-12T15:21:02.18Z</time></trkpt><trkpt lat="43.7406195" lon="11.3280344"><ele>146.5</ele><time>2026-04-12T15:21:03.18Z</time></trkpt><trkpt lat="43.74061" lon="11.3278449"><ele>146.25</ele><time>2026-04-12T15:21:04.181Z</time></trkpt><trkpt lat="43.7406156" lon="11.3276649"><ele>146.0</ele><time>2026-04-12T15:21:05.18Z</time></trkpt><trkpt lat="43.7406244" lon="11.327496"><ele>146.0</ele><time>2026-04-12T15:21:06.179Z</time></trkpt><trkpt lat="43.7406327" lon="11.3273388"><ele>146.0</ele><time>2026-04-12T15:21:07.181Z</time></trkpt><trkpt lat="43.7406428" lon="11.3271915"><ele>146.0</ele><time>2026-04-12T15:21:08.181Z</time></trkpt><trkpt lat="43.7406568" lon="11.3270539"><ele>146.0</ele><time>2026-04-12T15:21:09.181Z</time></trkpt><trkpt lat="43.74067" lon="11.3269433"><ele>146.0</ele><time>2026-04-12T15:21:10.181Z</time></trkpt><trkpt lat="43.740677" lon="11.3268537"><ele>145.83333333333331</ele><time>2026-04-12T15:21:11.181Z</time></trkpt><trkpt lat="43.7406859" lon="11.3267231"><ele>145.66666666666666</ele><time>2026-04-12T15:21:13.181Z</time></trkpt><trkpt lat="43.7406969" lon="11.3266366"><ele>145.5</ele><time>2026-04-12T15:21:14.18Z</time></trkpt><trkpt lat="43.7407117" lon="11.3265336"><ele>145.33333333333334</ele><time>2026-04-12T15:21:15.18Z</time></trkpt><trkpt lat="43.7407312" lon="11.3264142"><ele>145.16666666666669</ele><time>2026-04-12T15:21:16.179Z</time></trkpt><trkpt lat="43.7407548" lon="11.3262817"><ele>145.0</ele><time>2026-04-12T15:21:17.181Z</time></trkpt><trkpt lat="43.7407861" lon="11.32614"><ele>144.25</ele><time>2026-04-12T15:21:18.18Z</time></trkpt><trkpt lat="43.7408041" lon="11.3259917"><ele>143.5</ele><time>2026-04-12T15:21:19.18Z</time></trkpt><trkpt lat="43.7408277" lon="11.3258302"><ele>142.75</ele><time>2026-04-12T15:21:20.181Z</time></trkpt><trkpt lat="43.7408517" lon="11.3256762"><ele>142.0</ele><time>2026-04-12T15:21:21.181Z</time></trkpt><trkpt lat="43.74088" lon="11.3255252"><ele>142.0</ele><time>2026-04-12T15:21:22.181Z</time></trkpt><trkpt lat="43.7409074" lon="11.3253966"><ele>142.0</ele><time>2026-04-12T15:21:23.181Z</time></trkpt><trkpt lat="43.7409396" lon="11.3252792"><ele>142.0</ele><time>2026-04-12T15:21:24.18Z</time></trkpt><trkpt lat="43.7409785" lon="11.325155"><ele>142.0</ele><time>2026-04-12T15:21:25.181Z</time></trkpt><trkpt lat="43.741031" lon="11.3250301"><ele>142.0</ele><time>2026-04-12T15:21:26.181Z</time></trkpt><trkpt lat="43.7410916" lon="11.3249139"><ele>141.0</ele><time>2026-04-12T15:21:27.18Z</time></trkpt><trkpt lat="43.7411319" lon="11.3247742"><ele>140.0</ele><time>2026-04-12T15:21:28.18Z</time></trkpt><trkpt lat="43.7411682" lon="11.324626"><ele>139.0</ele><time>2026-04-12T15:21:29.18Z</time></trkpt><trkpt lat="43.7412092" lon="11.324465"><ele>138.0</ele><time>2026-04-12T15:21:30.181Z</time></trkpt><trkpt lat="43.7412561" lon="11.3243052"><ele>138.0</ele><time>2026-04-12T15:21:31.181Z</time></trkpt><trkpt lat="43.7413104" lon="11.3241159"><ele>138.0</ele><time>2026-04-12T15:21:32.181Z</time></trkpt><trkpt lat="43.7413614" lon="11.3239311"><ele>138.0</ele><time>2026-04-12T15:21:33.18Z</time></trkpt><trkpt lat="43.7414184" lon="11.3237422"><ele>138.0</ele><time>2026-04-12T15:21:34.18Z</time></trkpt><trkpt lat="43.7414902" lon="11.323544"><ele>139.33333333333334</ele><time>2026-04-12T15:21:35.181Z</time></trkpt><trkpt lat="43.7415702" lon="11.3233401"><ele>140.66666666666669</ele><time>2026-04-12T15:21:36.18Z</time></trkpt><trkpt lat="43.7416437" lon="11.3231376"><ele>142.0</ele><time>2026-04-12T15:21:37.18Z</time></trkpt><trkpt lat="43.7417136" lon="11.3229713"><ele>143.5</ele><time>2026-04-12T15:21:38.181Z</time></trkpt><trkpt lat="43.7417634" lon="11.3228181"><ele>145.0</ele><time>2026-04-12T15:21:39.18Z</time></trkpt><trkpt lat="43.7418226" lon="11.3226597"><ele>146.5</ele><time>2026-04-12T15:21:40.18Z</time></trkpt><trkpt lat="43.7418833" lon="11.3225079"><ele>148.0</ele><time>2026-04-12T15:21:41.18Z</time></trkpt><trkpt lat="43.7419502" lon="11.3223613"><ele>145.8</ele><time>2026-04-12T15:21:42.181Z</time></trkpt><trkpt lat="43.7420262" lon="11.3222308"><ele>143.60000000000002</ele><time>2026-04-12T15:21:43.179Z</time></trkpt><trkpt lat="43.7420943" lon="11.3221137"><ele>141.39999999999998</ele><time>2026-04-12T15:21:44.18Z</time></trkpt><trkpt lat="43.7421529" lon="11.3219961"><ele>139.2</ele><time>2026-04-12T15:21:45.181Z</time></trkpt><trkpt lat="43.7421845" lon="11.3218718"><ele>137.0</ele><time>2026-04-12T15:21:46.181Z</time></trkpt><trkpt lat="43.7422094" lon="11.3217475"><ele>137.0</ele><time>2026-04-12T15:21:47.18Z</time></trkpt><trkpt lat="43.7422236" lon="11.3216122"><ele>137.0</ele><time>2026-04-12T15:21:48.181Z</time></trkpt><trkpt lat="43.7422348" lon="11.3214633"><ele>137.0</ele><time>2026-04-12T15:21:49.18Z</time></trkpt><trkpt lat="43.7422131" lon="11.3213098"><ele>137.0</ele><time>2026-04-12T15:21:50.181Z</time></trkpt><trkpt lat="43.7421922" lon="11.3211559"><ele>137.0</ele><time>2026-04-12T15:21:51.181Z</time></trkpt><trkpt lat="43.7421761" lon="11.3209988"><ele>137.0</ele><time>2026-04-12T15:21:52.18Z</time></trkpt><trkpt lat="43.7421591" lon="11.3208536"><ele>137.0</ele><time>2026-04-12T15:21:53.18Z</time></trkpt><trkpt lat="43.7421406" lon="11.3207249"><ele>137.0</ele><time>2026-04-12T15:21:54.181Z</time></trkpt><trkpt lat="43.742129" lon="11.3206108"><ele>137.0</ele><time>2026-04-12T15:21:55.181Z</time></trkpt><trkpt lat="43.7421236" lon="11.3205082"><ele>137.0</ele><time>2026-04-12T15:21:56.181Z</time></trkpt><trkpt lat="43.7421228" lon="11.3204006"><ele>137.0</ele><time>2026-04-12T15:21:57.181Z</time></trkpt><trkpt lat="43.742125" lon="11.3202936"><ele>137.0</ele><time>2026-04-12T15:21:58.18Z</time></trkpt><trkpt lat="43.7421287" lon="11.3201908"><ele>137.0</ele><time>2026-04-12T15:21:59.181Z</time></trkpt><trkpt lat="43.7421485" lon="11.320036"><ele>137.0</ele><time>2026-04-12T15:22:01.179Z</time></trkpt><trkpt lat="43.7421791" lon="11.3199401"><ele>137.0</ele><time>2026-04-12T15:22:02.18Z</time></trkpt><trkpt lat="43.7422163" lon="11.3198242"><ele>137.0</ele><time>2026-04-12T15:22:03.181Z</time></trkpt><trkpt lat="43.7422601" lon="11.3196876"><ele>137.75</ele><time>2026-04-12T15:22:04.18Z</time></trkpt><trkpt lat="43.7423107" lon="11.3195319"><ele>138.5</ele><time>2026-04-12T15:22:05.18Z</time></trkpt><trkpt lat="43.7423647" lon="11.3193649"><ele>139.25</ele><time>2026-04-12T15:22:06.181Z</time></trkpt><trkpt lat="43.7424207" lon="11.3191931"><ele>140.0</ele><time>2026-04-12T15:22:07.18Z</time></trkpt><trkpt lat="43.7424811" lon="11.319008"><ele>140.0</ele><time>2026-04-12T15:22:08.181Z</time></trkpt><trkpt lat="43.7425454" lon="11.3188281"><ele>140.0</ele><time>2026-04-12T15:22:09.181Z</time></trkpt><trkpt lat="43.74261" lon="11.3186479"><ele>140.0</ele><time>2026-04-12T15:22:10.18Z</time></trkpt><trkpt lat="43.7426766" lon="11.3184673"><ele>140.0</ele><time>2026-04-12T15:22:11.18Z</time></trkpt><trkpt lat="43.7427435" lon="11.3182853"><ele>138.0</ele><time>2026-04-12T15:22:12.181Z</time></trkpt><trkpt lat="43.7428042" lon="11.3180964"><ele>136.0</ele><time>2026-04-12T15:22:13.181Z</time></trkpt><trkpt lat="43.7428627" lon="11.3179003"><ele>134.0</ele><time>2026-04-12T15:22:14.181Z</time></trkpt><trkpt lat="43.7429197" lon="11.3177024"><ele>134.0</ele><time>2026-04-12T15:22:15.18Z</time></trkpt><trkpt lat="43.742987" lon="11.3175092"><ele>134.0</ele><time>2026-04-12T15:22:16.18Z</time></trkpt><trkpt lat="43.7430635" lon="11.3173197"><ele>134.0</ele><time>2026-04-12T15:22:17.181Z</time></trkpt><trkpt lat="43.7431408" lon="11.3171297"><ele>136.0</ele><time>2026-04-12T15:22:18.181Z</time></trkpt><trkpt lat="43.7432089" lon="11.316948"><ele>138.0</ele><time>2026-04-12T15:22:19.181Z</time></trkpt><trkpt lat="43.7432706" lon="11.316778"><ele>140.0</ele><time>2026-04-12T15:22:20.181Z</time></trkpt><trkpt lat="43.7433231" lon="11.316622"><ele>142.0</ele><time>2026-04-12T15:22:21.18Z</time></trkpt><trkpt lat="43.7433705" lon="11.316474"><ele>142.0</ele><time>2026-04-12T15:22:22.181Z</time></trkpt><trkpt lat="43.743412" lon="11.3163365"><ele>142.0</ele><time>2026-04-12T15:22:23.18Z</time></trkpt><trkpt lat="43.7434502" lon="11.3162083"><ele>142.0</ele><time>2026-04-12T15:22:24.18Z</time></trkpt><trkpt lat="43.7434901" lon="11.3160912"><ele>142.0</ele><time>2026-04-12T15:22:25.18Z</time></trkpt><trkpt lat="43.7435248" lon="11.3159738"><ele>142.0</ele><time>2026-04-12T15:22:26.18Z</time></trkpt><trkpt lat="43.7435571" lon="11.3158605"><ele>140.79999999999998</ele><time>2026-04-12T15:22:27.181Z</time></trkpt><trkpt lat="43.7435948" lon="11.3157217"><ele>139.6</ele><time>2026-04-12T15:22:28.18Z</time></trkpt><trkpt lat="43.7436404" lon="11.3155797"><ele>138.39999999999998</ele><time>2026-04-12T15:22:29.181Z</time></trkpt><trkpt lat="43.7436864" lon="11.3154382"><ele>137.2</ele><time>2026-04-12T15:22:30.18Z</time></trkpt><trkpt lat="43.7437266" lon="11.3153204"><ele>136.0</ele><time>2026-04-12T15:22:31.179Z</time></trkpt><trkpt lat="43.7437622" lon="11.3152212"><ele>136.0</ele><time>2026-04-12T15:22:32.18Z</time></trkpt><trkpt lat="43.7437892" lon="11.3151352"><ele>136.0</ele><time>2026-04-12T15:22:33.18Z</time></trkpt><trkpt lat="43.7438367" lon="11.3150626"><ele>136.0</ele><time>2026-04-12T15:22:35.181Z</time></trkpt><trkpt lat="43.7439203" lon="11.3150732"><ele>136.0</ele><time>2026-04-12T15:22:38.18Z</time></trkpt><trkpt lat="43.7440097" lon="11.3151105"><ele>136.0</ele><time>2026-04-12T15:22:39.18Z</time></trkpt><trkpt lat="43.7441058" lon="11.3151518"><ele>136.0</ele><time>2026-04-12T15:22:40.181Z</time></trkpt><trkpt lat="43.744223" lon="11.3151999"><ele>136.0</ele><time>2026-04-12T15:22:41.181Z</time></trkpt><trkpt lat="43.7443448" lon="11.3152573"><ele>136.0</ele><time>2026-04-12T15:22:42.18Z</time></trkpt><trkpt lat="43.7444729" lon="11.3153284"><ele>136.0</ele><time>2026-04-12T15:22:43.181Z</time></trkpt><trkpt lat="43.7445944" lon="11.3153994"><ele>136.0</ele><time>2026-04-12T15:22:44.181Z</time></trkpt><trkpt lat="43.7447201" lon="11.3154673"><ele>132.25</ele><time>2026-04-12T15:22:45.181Z</time></trkpt><trkpt lat="43.7448487" lon="11.3155371"><ele>128.5</ele><time>2026-04-12T15:22:46.181Z</time></trkpt><trkpt lat="43.7449768" lon="11.3155995"><ele>124.75</ele><time>2026-04-12T15:22:47.181Z</time></trkpt><trkpt lat="43.7451085" lon="11.3156326"><ele>121.0</ele><time>2026-04-12T15:22:48.18Z</time></trkpt><trkpt lat="43.7451996" lon="11.3156526"><ele>118.6</ele><time>2026-04-12T15:22:49.18Z</time></trkpt><trkpt lat="43.7452982" lon="11.3156782"><ele>116.19999999999999</ele><time>2026-04-12T15:22:50.18Z</time></trkpt><trkpt lat="43.7453795" lon="11.3156563"><ele>113.80000000000001</ele><time>2026-04-12T15:22:51.181Z</time></trkpt><trkpt lat="43.7454702" lon="11.3155862"><ele>111.4</ele><time>2026-04-12T15:22:52.181Z</time></trkpt><trkpt lat="43.7455838" lon="11.3154956"><ele>109.0</ele><time>2026-04-12T15:22:53.18Z</time></trkpt><trkpt lat="43.7457133" lon="11.3154103"><ele>109.0</ele><time>2026-04-12T15:22:54.181Z</time></trkpt><trkpt lat="43.7458788" lon="11.3153423"><ele>109.0</ele><time>2026-04-12T15:22:55.181Z</time></trkpt><trkpt lat="43.7460237" lon="11.3152657"><ele>109.0</ele><time>2026-04-12T15:22:56.18Z</time></trkpt><trkpt lat="43.7461678" lon="11.3151997"><ele>108.75</ele><time>2026-04-12T15:22:57.18Z</time></trkpt><trkpt lat="43.7463213" lon="11.3151654"><ele>108.5</ele><time>2026-04-12T15:22:58.18Z</time></trkpt><trkpt lat="43.7464695" lon="11.3151415"><ele>108.25</ele><time>2026-04-12T15:22:59.18Z</time></trkpt><trkpt lat="43.7466117" lon="11.3151271"><ele>108.0</ele><time>2026-04-12T15:23:00.181Z</time></trkpt><trkpt lat="43.7467332" lon="11.3151301"><ele>108.0</ele><time>2026-04-12T15:23:01.18Z</time></trkpt><trkpt lat="43.746842" lon="11.3151682"><ele>108.0</ele><time>2026-04-12T15:23:02.181Z</time></trkpt><trkpt lat="43.7469516" lon="11.3152353"><ele>108.0</ele><time>2026-04-12T15:23:03.18Z</time></trkpt><trkpt lat="43.7470633" lon="11.3152967"><ele>108.0</ele><time>2026-04-12T15:23:04.181Z</time></trkpt><trkpt lat="43.7471827" lon="11.3154192"><ele>108.0</ele><time>2026-04-12T15:23:05.181Z</time></trkpt><trkpt lat="43.747267" lon="11.3155236"><ele>108.0</ele><time>2026-04-12T15:23:06.181Z</time></trkpt><trkpt lat="43.7473404" lon="11.3156106"><ele>108.0</ele><time>2026-04-12T15:23:07.181Z</time></trkpt><trkpt lat="43.7473984" lon="11.3156786"><ele>108.0</ele><time>2026-04-12T15:23:08.181Z</time></trkpt><trkpt lat="43.7474833" lon="11.3157242"><ele>108.0</ele><time>2026-04-12T15:23:10.18Z</time></trkpt><trkpt lat="43.7475237" lon="11.3156442"><ele>108.0</ele><time>2026-04-12T15:23:13.18Z</time></trkpt><trkpt lat="43.7474668" lon="11.3154857"><ele>108.0</ele><time>2026-04-12T15:23:15.181Z</time></trkpt><trkpt lat="43.7474154" lon="11.3153538"><ele>108.0</ele><time>2026-04-12T15:23:16.18Z</time></trkpt><trkpt lat="43.7473583" lon="11.3152079"><ele>108.0</ele><time>2026-04-12T15:23:17.181Z</time></trkpt><trkpt lat="43.7472563" lon="11.3148997"><ele>108.0</ele><time>2026-04-12T15:23:18.18Z</time></trkpt><trkpt lat="43.747158" lon="11.3145984"><ele>108.0</ele><time>2026-04-12T15:23:19.181Z</time></trkpt><trkpt lat="43.7470572" lon="11.3142684"><ele>108.0</ele><time>2026-04-12T15:23:20.18Z</time></trkpt><trkpt lat="43.746964" lon="11.3139719"><ele>108.0</ele><time>2026-04-12T15:23:21.181Z</time></trkpt><trkpt lat="43.7468777" lon="11.3137044"><ele>108.0</ele><time>2026-04-12T15:23:22.181Z</time></trkpt><trkpt lat="43.7467968" lon="11.3134582"><ele>108.0</ele><time>2026-04-12T15:23:23.181Z</time></trkpt><trkpt lat="43.7467216" lon="11.3132194"><ele>108.0</ele><time>2026-04-12T15:23:24.18Z</time></trkpt><trkpt lat="43.7466479" lon="11.3129947"><ele>108.0</ele><time>2026-04-12T15:23:25.18Z</time></trkpt><trkpt lat="43.7465959" lon="11.312826"><ele>108.0</ele><time>2026-04-12T15:23:26.18Z</time></trkpt><trkpt lat="43.7465376" lon="11.3126575"><ele>108.0</ele><time>2026-04-12T15:23:27.181Z</time></trkpt><trkpt lat="43.7464802" lon="11.312483"><ele>108.0</ele><time>2026-04-12T15:23:28.181Z</time></trkpt><trkpt lat="43.7464195" lon="11.3123039"><ele>108.0</ele><time>2026-04-12T15:23:29.18Z</time></trkpt><trkpt lat="43.7463629" lon="11.31213"><ele>108.0</ele><time>2026-04-12T15:23:30.181Z</time></trkpt><trkpt lat="43.746311" lon="11.3119563"><ele>108.0</ele><time>2026-04-12T15:23:31.181Z</time></trkpt><trkpt lat="43.746254" lon="11.3117741"><ele>108.0</ele><time>2026-04-12T15:23:32.18Z</time></trkpt><trkpt lat="43.7461918" lon="11.3115817"><ele>108.0</ele><time>2026-04-12T15:23:33.18Z</time></trkpt><trkpt lat="43.7461219" lon="11.311383"><ele>108.0</ele><time>2026-04-12T15:23:34.181Z</time></trkpt><trkpt lat="43.7460602" lon="11.3111801"><ele>108.0</ele><time>2026-04-12T15:23:35.181Z</time></trkpt><trkpt lat="43.7459961" lon="11.3109858"><ele>108.0</ele><time>2026-04-12T15:23:36.179Z</time></trkpt><trkpt lat="43.7459315" lon="11.3107946"><ele>106.0</ele><time>2026-04-12T15:23:37.181Z</time></trkpt><trkpt lat="43.7458657" lon="11.3106005"><ele>104.0</ele><time>2026-04-12T15:23:38.18Z</time></trkpt><trkpt lat="43.7458025" lon="11.3104085"><ele>102.0</ele><time>2026-04-12T15:23:39.18Z</time></trkpt><trkpt lat="43.7457424" lon="11.3102163"><ele>101.75</ele><time>2026-04-12T15:23:40.181Z</time></trkpt><trkpt lat="43.7456816" lon="11.3100296"><ele>101.5</ele><time>2026-04-12T15:23:41.181Z</time></trkpt><trkpt lat="43.745623" lon="11.3098428"><ele>101.25</ele><time>2026-04-12T15:23:42.18Z</time></trkpt><trkpt lat="43.7455663" lon="11.3096521"><ele>101.0</ele><time>2026-04-12T15:23:43.18Z</time></trkpt><trkpt lat="43.7455182" lon="11.3094561"><ele>101.0</ele><time>2026-04-12T15:23:44.181Z</time></trkpt><trkpt lat="43.7454672" lon="11.3092566"><ele>101.0</ele><time>2026-04-12T15:23:45.18Z</time></trkpt><trkpt lat="43.7454208" lon="11.3090539"><ele>101.0</ele><time>2026-04-12T15:23:46.18Z</time></trkpt><trkpt lat="43.745368" lon="11.3088425"><ele>101.66666666666666</ele><time>2026-04-12T15:23:47.18Z</time></trkpt><trkpt lat="43.7453181" lon="11.3086352"><ele>102.33333333333334</ele><time>2026-04-12T15:23:48.181Z</time></trkpt><trkpt lat="43.7452714" lon="11.3084308"><ele>103.0</ele><time>2026-04-12T15:23:49.18Z</time></trkpt><trkpt lat="43.7452231" lon="11.3082247"><ele>101.0</ele><time>2026-04-12T15:23:50.18Z</time></trkpt><trkpt lat="43.7451742" lon="11.3080159"><ele>99.0</ele><time>2026-04-12T15:23:51.181Z</time></trkpt><trkpt lat="43.7451271" lon="11.3078066"><ele>97.0</ele><time>2026-04-12T15:23:52.181Z</time></trkpt><trkpt lat="43.7450787" lon="11.3075962"><ele>97.0</ele><time>2026-04-12T15:23:53.181Z</time></trkpt><trkpt lat="43.7450315" lon="11.3073865"><ele>97.0</ele><time>2026-04-12T15:23:54.181Z</time></trkpt><trkpt lat="43.7449856" lon="11.3071771"><ele>97.0</ele><time>2026-04-12T15:23:55.181Z</time></trkpt><trkpt lat="43.7449418" lon="11.306973"><ele>97.33333333333334</ele><time>2026-04-12T15:23:56.181Z</time></trkpt><trkpt lat="43.7448974" lon="11.3067721"><ele>97.66666666666666</ele><time>2026-04-12T15:23:57.18Z</time></trkpt><trkpt lat="43.74485" lon="11.3065715"><ele>98.0</ele><time>2026-04-12T15:23:58.179Z</time></trkpt><trkpt lat="43.7448046" lon="11.3063745"><ele>98.66666666666666</ele><time>2026-04-12T15:23:59.18Z</time></trkpt><trkpt lat="43.7447555" lon="11.3061797"><ele>99.33333333333334</ele><time>2026-04-12T15:24:00.18Z</time></trkpt><trkpt lat="43.7447089" lon="11.305983"><ele>100.0</ele><time>2026-04-12T15:24:01.18Z</time></trkpt><trkpt lat="43.7446623" lon="11.3057823"><ele>100.0</ele><time>2026-04-12T15:24:02.181Z</time></trkpt><trkpt lat="43.7446177" lon="11.305585"><ele>100.0</ele><time>2026-04-12T15:24:03.181Z</time></trkpt><trkpt lat="43.7445705" lon="11.3053907"><ele>100.0</ele><time>2026-04-12T15:24:04.18Z</time></trkpt><trkpt lat="43.7445168" lon="11.305196"><ele>100.0</ele><time>2026-04-12T15:24:05.181Z</time></trkpt><trkpt lat="43.7444522" lon="11.305009"><ele>100.75</ele><time>2026-04-12T15:24:06.181Z</time></trkpt><trkpt lat="43.7443872" lon="11.3048254"><ele>101.5</ele><time>2026-04-12T15:24:07.18Z</time></trkpt><trkpt lat="43.7442866" lon="11.304668"><ele>102.25</ele><time>2026-04-12T15:24:08.181Z</time></trkpt><trkpt lat="43.744192" lon="11.3045076"><ele>103.0</ele><time>2026-04-12T15:24:09.181Z</time></trkpt><trkpt lat="43.7440942" lon="11.304346"><ele>101.25</ele><time>2026-04-12T15:24:10.181Z</time></trkpt><trkpt lat="43.743999" lon="11.3041862"><ele>99.5</ele><time>2026-04-12T15:24:11.18Z</time></trkpt><trkpt lat="43.7439027" lon="11.304026"><ele>97.75</ele><time>2026-04-12T15:24:12.181Z</time></trkpt><trkpt lat="43.7438091" lon="11.3038667"><ele>96.0</ele><time>2026-04-12T15:24:13.18Z</time></trkpt><trkpt lat="43.7437155" lon="11.303711"><ele>95.25</ele><time>2026-04-12T15:24:14.18Z</time></trkpt><trkpt lat="43.7436233" lon="11.3035526"><ele>94.5</ele><time>2026-04-12T15:24:15.181Z</time></trkpt><trkpt lat="43.7435389" lon="11.3033952"><ele>93.75</ele><time>2026-04-12T15:24:16.181Z</time></trkpt><trkpt lat="43.7434626" lon="11.3032253"><ele>93.0</ele><time>2026-04-12T15:24:17.181Z</time></trkpt><trkpt lat="43.743394" lon="11.3030478"><ele>92.5</ele><time>2026-04-12T15:24:18.18Z</time></trkpt><trkpt lat="43.7433325" lon="11.3028638"><ele>92.0</ele><time>2026-04-12T15:24:19.18Z</time></trkpt><trkpt lat="43.74328" lon="11.302676"><ele>91.5</ele><time>2026-04-12T15:24:20.18Z</time></trkpt><trkpt lat="43.7432293" lon="11.3024829"><ele>91.0</ele><time>2026-04-12T15:24:21.181Z</time></trkpt><trkpt lat="43.7431753" lon="11.3022914"><ele>90.0</ele><time>2026-04-12T15:24:22.181Z</time></trkpt><trkpt lat="43.7431114" lon="11.302104"><ele>89.0</ele><time>2026-04-12T15:24:23.181Z</time></trkpt><trkpt lat="43.7430398" lon="11.3019223"><ele>88.0</ele><time>2026-04-12T15:24:24.181Z</time></trkpt><trkpt lat="43.7429606" lon="11.3017432"><ele>88.0</ele><time>2026-04-12T15:24:25.181Z</time></trkpt><trkpt lat="43.7428788" lon="11.3015719"><ele>88.0</ele><time>2026-04-12T15:24:26.18Z</time></trkpt><trkpt lat="43.7427964" lon="11.3014042"><ele>88.0</ele><time>2026-04-12T15:24:27.181Z</time></trkpt><trkpt lat="43.742712" lon="11.3012365"><ele>88.0</ele><time>2026-04-12T15:24:28.181Z</time></trkpt><trkpt lat="43.7426256" lon="11.3010692"><ele>87.75</ele><time>2026-04-12T15:24:29.181Z</time></trkpt><trkpt lat="43.7425414" lon="11.3009056"><ele>87.5</ele><time>2026-04-12T15:24:30.181Z</time></trkpt><trkpt lat="43.7424584" lon="11.3007452"><ele>87.25</ele><time>2026-04-12T15:24:31.181Z</time></trkpt><trkpt lat="43.7423767" lon="11.3005842"><ele>87.0</ele><time>2026-04-12T15:24:32.181Z</time></trkpt><trkpt lat="43.7422955" lon="11.3004234"><ele>86.75</ele><time>2026-04-12T15:24:33.18Z</time></trkpt><trkpt lat="43.7422076" lon="11.3002643"><ele>86.5</ele><time>2026-04-12T15:24:34.181Z</time></trkpt><trkpt lat="43.7421114" lon="11.3001144"><ele>86.25</ele><time>2026-04-12T15:24:35.18Z</time></trkpt><trkpt lat="43.7420105" lon="11.299974"><ele>86.0</ele><time>2026-04-12T15:24:36.181Z</time></trkpt><trkpt lat="43.7419003" lon="11.2998403"><ele>85.5</ele><time>2026-04-12T15:24:37.181Z</time></trkpt><trkpt lat="43.7417843" lon="11.2997106"><ele>85.0</ele><time>2026-04-12T15:24:38.181Z</time></trkpt><trkpt lat="43.7416686" lon="11.2995866"><ele>84.5</ele><time>2026-04-12T15:24:39.18Z</time></trkpt><trkpt lat="43.7415523" lon="11.2994625"><ele>84.0</ele><time>2026-04-12T15:24:40.18Z</time></trkpt><trkpt lat="43.7414374" lon="11.2993456"><ele>84.0</ele><time>2026-04-12T15:24:41.18Z</time></trkpt><trkpt lat="43.7413232" lon="11.2992311"><ele>84.0</ele><time>2026-04-12T15:24:42.181Z</time></trkpt><trkpt lat="43.7412107" lon="11.2991144"><ele>84.0</ele><time>2026-04-12T15:24:43.181Z</time></trkpt><trkpt lat="43.7410995" lon="11.2990027"><ele>84.0</ele><time>2026-04-12T15:24:44.18Z</time></trkpt><trkpt lat="43.7409909" lon="11.2988918"><ele>83.75</ele><time>2026-04-12T15:24:45.181Z</time></trkpt><trkpt lat="43.7408848" lon="11.2987828"><ele>83.5</ele><time>2026-04-12T15:24:46.18Z</time></trkpt><trkpt lat="43.7407848" lon="11.2986716"><ele>83.25</ele><time>2026-04-12T15:24:47.181Z</time></trkpt><trkpt lat="43.7406941" lon="11.2985538"><ele>83.0</ele><time>2026-04-12T15:24:48.18Z</time></trkpt><trkpt lat="43.7406112" lon="11.2984331"><ele>83.0</ele><time>2026-04-12T15:24:49.181Z</time></trkpt><trkpt lat="43.7405323" lon="11.2983115"><ele>83.0</ele><time>2026-04-12T15:24:50.181Z</time></trkpt><trkpt lat="43.7404588" lon="11.2981973"><ele>83.0</ele><time>2026-04-12T15:24:51.181Z</time></trkpt><trkpt lat="43.7403977" lon="11.2980901"><ele>83.0</ele><time>2026-04-12T15:24:52.181Z</time></trkpt><trkpt lat="43.7403459" lon="11.297991"><ele>83.0</ele><time>2026-04-12T15:24:53.18Z</time></trkpt><trkpt lat="43.7403011" lon="11.2979072"><ele>82.85714285714285</ele><time>2026-04-12T15:24:54.181Z</time></trkpt><trkpt lat="43.7402576" lon="11.2978249"><ele>82.71428571428572</ele><time>2026-04-12T15:24:55.18Z</time></trkpt><trkpt lat="43.7402149" lon="11.2977544"><ele>82.57142857142857</ele><time>2026-04-12T15:24:56.181Z</time></trkpt><trkpt lat="43.7401625" lon="11.297683"><ele>82.42857142857142</ele><time>2026-04-12T15:24:57.18Z</time></trkpt><trkpt lat="43.7400999" lon="11.2976222"><ele>82.28571428571428</ele><time>2026-04-12T15:24:58.181Z</time></trkpt><trkpt lat="43.740036" lon="11.2975611"><ele>82.14285714285714</ele><time>2026-04-12T15:24:59.181Z</time></trkpt><trkpt lat="43.7399906" lon="11.2974836"><ele>82.0</ele><time>2026-04-12T15:25:00.181Z</time></trkpt><trkpt lat="43.7399571" lon="11.2973833"><ele>82.0</ele><time>2026-04-12T15:25:01.181Z</time></trkpt><trkpt lat="43.7399266" lon="11.2972716"><ele>82.0</ele><time>2026-04-12T15:25:02.181Z</time></trkpt><trkpt lat="43.7398954" lon="11.2971599"><ele>82.0</ele><time>2026-04-12T15:25:03.181Z</time></trkpt><trkpt lat="43.7398666" lon="11.2970586"><ele>82.0</ele><time>2026-04-12T15:25:04.181Z</time></trkpt><trkpt lat="43.7398404" lon="11.2969655"><ele>82.0</ele><time>2026-04-12T15:25:05.18Z</time></trkpt><trkpt lat="43.7398189" lon="11.2968739"><ele>82.0</ele><time>2026-04-12T15:25:06.181Z</time></trkpt><trkpt lat="43.7398015" lon="11.296784"><ele>82.0</ele><time>2026-04-12T15:25:07.181Z</time></trkpt><trkpt lat="43.7397803" lon="11.296695"><ele>82.0</ele><time>2026-04-12T15:25:08.181Z</time></trkpt><trkpt lat="43.7397735" lon="11.2965525"><ele>82.0</ele><time>2026-04-12T15:25:10.181Z</time></trkpt><trkpt lat="43.7398258" lon="11.2963836"><ele>82.0</ele><time>2026-04-12T15:25:12.181Z</time></trkpt><trkpt lat="43.7398794" lon="11.2962862"><ele>82.0</ele><time>2026-04-12T15:25:13.18Z</time></trkpt><trkpt lat="43.7399375" lon="11.2961731"><ele>81.75</ele><time>2026-04-12T15:25:14.181Z</time></trkpt><trkpt lat="43.7399965" lon="11.2960532"><ele>81.5</ele><time>2026-04-12T15:25:15.18Z</time></trkpt><trkpt lat="43.7400503" lon="11.2959147"><ele>81.25</ele><time>2026-04-12T15:25:16.181Z</time></trkpt><trkpt lat="43.7400955" lon="11.2957683"><ele>81.0</ele><time>2026-04-12T15:25:17.18Z</time></trkpt><trkpt lat="43.7401304" lon="11.2956075"><ele>80.5</ele><time>2026-04-12T15:25:18.18Z</time></trkpt><trkpt lat="43.7401648" lon="11.295439"><ele>80.0</ele><time>2026-04-12T15:25:19.181Z</time></trkpt><trkpt lat="43.7402051" lon="11.2952695"><ele>79.5</ele><time>2026-04-12T15:25:20.181Z</time></trkpt><trkpt lat="43.7402442" lon="11.2950936"><ele>79.0</ele><time>2026-04-12T15:25:21.18Z</time></trkpt><trkpt lat="43.7402806" lon="11.2949112"><ele>81.25</ele><time>2026-04-12T15:25:22.18Z</time></trkpt><trkpt lat="43.7403129" lon="11.2947274"><ele>83.5</ele><time>2026-04-12T15:25:23.181Z</time></trkpt><trkpt lat="43.7403363" lon="11.2945612"><ele>85.75</ele><time>2026-04-12T15:25:24.181Z</time></trkpt><trkpt lat="43.7403547" lon="11.2943853"><ele>88.0</ele><time>2026-04-12T15:25:25.181Z</time></trkpt><trkpt lat="43.7403683" lon="11.2942079"><ele>88.0</ele><time>2026-04-12T15:25:26.18Z</time></trkpt><trkpt lat="43.7403807" lon="11.2940318"><ele>88.0</ele><time>2026-04-12T15:25:27.181Z</time></trkpt><trkpt lat="43.7403901" lon="11.2938594"><ele>88.0</ele><time>2026-04-12T15:25:28.18Z</time></trkpt><trkpt lat="43.7403918" lon="11.2936875"><ele>88.0</ele><time>2026-04-12T15:25:29.181Z</time></trkpt><trkpt lat="43.740385" lon="11.29353"><ele>88.83333333333333</ele><time>2026-04-12T15:25:30.181Z</time></trkpt><trkpt lat="43.7403794" lon="11.293388"><ele>89.66666666666666</ele><time>2026-04-12T15:25:31.18Z</time></trkpt><trkpt lat="43.7403763" lon="11.2932685"><ele>90.5</ele><time>2026-04-12T15:25:32.18Z</time></trkpt><trkpt lat="43.740385" lon="11.2931203"><ele>91.33333333333333</ele><time>2026-04-12T15:25:34.18Z</time></trkpt><trkpt lat="43.7403693" lon="11.2930059"><ele>92.16666666666667</ele><time>2026-04-12T15:25:40.181Z</time></trkpt><trkpt lat="43.740355" lon="11.2929174"><ele>93.0</ele><time>2026-04-12T15:25:42.18Z</time></trkpt><trkpt lat="43.740271" lon="11.2928866"><ele>90.4</ele><time>2026-04-12T15:25:43.18Z</time></trkpt><trkpt lat="43.7401337" lon="11.2928904"><ele>87.80000000000001</ele><time>2026-04-12T15:25:45.181Z</time></trkpt><trkpt lat="43.7400318" lon="11.2928957"><ele>85.2</ele><time>2026-04-12T15:25:46.181Z</time></trkpt><trkpt lat="43.7399219" lon="11.2928826"><ele>82.6</ele><time>2026-04-12T15:25:47.181Z</time></trkpt><trkpt lat="43.7398274" lon="11.2928842"><ele>80.0</ele><time>2026-04-12T15:25:48.181Z</time></trkpt><trkpt lat="43.739742" lon="11.2928915"><ele>80.0</ele><time>2026-04-12T15:25:49.181Z</time></trkpt><trkpt lat="43.739668" lon="11.2928972"><ele>80.0</ele><time>2026-04-12T15:25:50.18Z</time></trkpt><trkpt lat="43.7395959" lon="11.2929003"><ele>80.0</ele><time>2026-04-12T15:25:51.18Z</time></trkpt><trkpt lat="43.7395225" lon="11.2929063"><ele>80.0</ele><time>2026-04-12T15:25:52.18Z</time></trkpt><trkpt lat="43.7394455" lon="11.2929158"><ele>80.0</ele><time>2026-04-12T15:25:53.181Z</time></trkpt><trkpt lat="43.7393669" lon="11.2929323"><ele>80.0</ele><time>2026-04-12T15:25:54.181Z</time></trkpt><trkpt lat="43.7392884" lon="11.2929395"><ele>80.0</ele><time>2026-04-12T15:25:55.181Z</time></trkpt><trkpt lat="43.7392065" lon="11.2929863"><ele>80.0</ele><time>2026-04-12T15:25:56.18Z</time></trkpt><trkpt lat="43.7391243" lon="11.2930147"><ele>80.0</ele><time>2026-04-12T15:25:57.181Z</time></trkpt><trkpt lat="43.7390527" lon="11.2930393"><ele>80.0</ele><time>2026-04-12T15:25:58.181Z</time></trkpt><trkpt lat="43.7389814" lon="11.2930639"><ele>80.0</ele><time>2026-04-12T15:25:59.18Z</time></trkpt><trkpt lat="43.7389086" lon="11.2930906"><ele>80.0</ele><time>2026-04-12T15:26:00.18Z</time></trkpt><trkpt lat="43.7388332" lon="11.2931194"><ele>80.0</ele><time>2026-04-12T15:26:01.181Z</time></trkpt><trkpt lat="43.7387529" lon="11.2931512"><ele>80.0</ele><time>2026-04-12T15:26:02.181Z</time></trkpt><trkpt lat="43.7386725" lon="11.2931793"><ele>80.0</ele><time>2026-04-12T15:26:03.18Z</time></trkpt><trkpt lat="43.7385908" lon="11.2932105"><ele>80.0</ele><time>2026-04-12T15:26:04.181Z</time></trkpt><trkpt lat="43.7385193" lon="11.293238"><ele>80.0</ele><time>2026-04-12T15:26:05.181Z</time></trkpt><trkpt lat="43.7384556" lon="11.2932586"><ele>80.0</ele><time>2026-04-12T15:26:06.181Z</time></trkpt><trkpt lat="43.738342" lon="11.2932902"><ele>80.0</ele><time>2026-04-12T15:26:08.18Z</time></trkpt><trkpt lat="43.7382441" lon="11.2933061"><ele>80.0</ele><time>2026-04-12T15:26:10.18Z</time></trkpt><trkpt lat="43.7381721" lon="11.293312"><ele>80.0</ele><time>2026-04-12T15:26:13.18Z</time></trkpt><trkpt lat="43.7381264" lon="11.2932239"><ele>80.0</ele><time>2026-04-12T15:26:23.18Z</time></trkpt><trkpt lat="43.7381132" lon="11.293081"><ele>80.0</ele><time>2026-04-12T15:26:25.18Z</time></trkpt><trkpt lat="43.73813" lon="11.2929604"><ele>80.0</ele><time>2026-04-12T15:26:26.18Z</time></trkpt><trkpt lat="43.7381515" lon="11.2928117"><ele>80.0</ele><time>2026-04-12T15:26:27.18Z</time></trkpt><trkpt lat="43.7381763" lon="11.2926377"><ele>80.0</ele><time>2026-04-12T15:26:28.181Z</time></trkpt><trkpt lat="43.7382095" lon="11.2924714"><ele>80.0</ele><time>2026-04-12T15:26:29.181Z</time></trkpt><trkpt lat="43.7382417" lon="11.2923182"><ele>80.0</ele><time>2026-04-12T15:26:30.181Z</time></trkpt><trkpt lat="43.7382677" lon="11.2921895"><ele>80.33333333333334</ele><time>2026-04-12T15:26:31.18Z</time></trkpt><trkpt lat="43.7382879" lon="11.2920769"><ele>80.66666666666667</ele><time>2026-04-12T15:26:32.18Z</time></trkpt><trkpt lat="43.7383059" lon="11.291988"><ele>81.0</ele><time>2026-04-12T15:26:33.181Z</time></trkpt><trkpt lat="43.7383256" lon="11.2918774"><ele>81.33333333333333</ele><time>2026-04-12T15:26:35.18Z</time></trkpt><trkpt lat="43.7383154" lon="11.2917742"><ele>81.66666666666666</ele><time>2026-04-12T15:26:46.181Z</time></trkpt><trkpt lat="43.7382758" lon="11.2916306"><ele>82.0</ele><time>2026-04-12T15:26:48.18Z</time></trkpt><trkpt lat="43.7382502" lon="11.2915332"><ele>82.0</ele><time>2026-04-12T15:26:50.179Z</time></trkpt></trkseg></trk></gpx>